<?xml version="1.0" encoding="UTF-8" standalone="no" ?>
<gpx xmlns="http://www.topografix.com/GPX/1/1" xmlns:xsi="http://www.w3.org/2001/XMLSchema-instance" xsi:schemaLocation="http://www.topografix.com/GPX/1/1 http://www.topografix.com/GPX/1/1/gpx.xsd" version="1.1" creator="VisuGPX - https://www.visugpx.com">
  <metadata>
    <name>Le mont Lantin</name>
    <desc><![CDATA[De très belle vue sur Marseille , le bec de l'aigle la saint Baume.
]]></desc>
  </metadata>
  <trk>
    <name><![CDATA[Mont Lantin reco 001]]></name>
    <trkseg>
      <trkpt lat="43.2787" lon="5.50773">
        <ele>85.63</ele>
        <time>2016-10-04T06:47:10Z</time>
      </trkpt>
      <trkpt lat="43.2787" lon="5.50774">
        <ele>85.83</ele>
        <time>2016-10-04T06:47:11Z</time>
      </trkpt>
      <trkpt lat="43.2787" lon="5.50774">
        <ele>85.56</ele>
        <time>2016-10-04T06:47:24Z</time>
      </trkpt>
      <trkpt lat="43.27872" lon="5.50772">
        <ele>85.46</ele>
        <time>2016-10-04T06:47:44Z</time>
      </trkpt>
      <trkpt lat="43.27873" lon="5.50768">
        <ele>85.22</ele>
        <time>2016-10-04T06:48:09Z</time>
      </trkpt>
      <trkpt lat="43.27874" lon="5.50766">
        <ele>85.56</ele>
        <time>2016-10-04T06:48:26Z</time>
      </trkpt>
      <trkpt lat="43.27874" lon="5.50765">
        <ele>85.45</ele>
        <time>2016-10-04T06:48:37Z</time>
      </trkpt>
      <trkpt lat="43.27873" lon="5.50765">
        <ele>85.4</ele>
        <time>2016-10-04T06:48:52Z</time>
      </trkpt>
      <trkpt lat="43.27873" lon="5.50765">
        <ele>85.76</ele>
        <time>2016-10-04T06:49:00Z</time>
      </trkpt>
      <trkpt lat="43.27873" lon="5.50765">
        <ele>85.77</ele>
        <time>2016-10-04T06:49:02Z</time>
      </trkpt>
      <trkpt lat="43.27871" lon="5.50768">
        <ele>85.99</ele>
        <time>2016-10-04T06:49:09Z</time>
      </trkpt>
      <trkpt lat="43.27869" lon="5.50767">
        <ele>86.18</ele>
        <time>2016-10-04T06:49:28Z</time>
      </trkpt>
      <trkpt lat="43.27869" lon="5.50766">
        <ele>86.29</ele>
        <time>2016-10-04T06:49:48Z</time>
      </trkpt>
      <trkpt lat="43.27869" lon="5.50766">
        <ele>86.2</ele>
        <time>2016-10-04T06:50:02Z</time>
      </trkpt>
      <trkpt lat="43.27869" lon="5.50767">
        <ele>85.97</ele>
        <time>2016-10-04T06:50:14Z</time>
      </trkpt>
      <trkpt lat="43.27868" lon="5.50766">
        <ele>85.71</ele>
        <time>2016-10-04T06:50:26Z</time>
      </trkpt>
      <trkpt lat="43.27868" lon="5.50768">
        <ele>85.7</ele>
        <time>2016-10-04T06:50:37Z</time>
      </trkpt>
      <trkpt lat="43.2787" lon="5.50768">
        <ele>85.57</ele>
        <time>2016-10-04T06:50:47Z</time>
      </trkpt>
      <trkpt lat="43.27871" lon="5.50767">
        <ele>85.54</ele>
        <time>2016-10-04T06:50:59Z</time>
      </trkpt>
      <trkpt lat="43.27871" lon="5.50768">
        <ele>85.62</ele>
        <time>2016-10-04T06:51:12Z</time>
      </trkpt>
      <trkpt lat="43.27871" lon="5.50767">
        <ele>85.44</ele>
        <time>2016-10-04T06:51:21Z</time>
      </trkpt>
      <trkpt lat="43.2787" lon="5.50767">
        <ele>85.77</ele>
        <time>2016-10-04T06:51:35Z</time>
      </trkpt>
      <trkpt lat="43.2787" lon="5.50767">
        <ele>85.86</ele>
        <time>2016-10-04T06:51:51Z</time>
      </trkpt>
      <trkpt lat="43.27869" lon="5.50767">
        <ele>86.05</ele>
        <time>2016-10-04T06:52:05Z</time>
      </trkpt>
      <trkpt lat="43.27869" lon="5.50766">
        <ele>86.02</ele>
        <time>2016-10-04T06:52:22Z</time>
      </trkpt>
      <trkpt lat="43.27868" lon="5.50766">
        <ele>86</ele>
        <time>2016-10-04T06:52:35Z</time>
      </trkpt>
      <trkpt lat="43.27869" lon="5.50767">
        <ele>86.1</ele>
        <time>2016-10-04T06:52:44Z</time>
      </trkpt>
      <trkpt lat="43.27866" lon="5.50749">
        <ele>86.52</ele>
        <time>2016-10-04T06:53:31Z</time>
      </trkpt>
      <trkpt lat="43.27854" lon="5.50777">
        <ele>86.19</ele>
        <time>2016-10-04T06:53:39Z</time>
      </trkpt>
      <trkpt lat="43.27852" lon="5.50769">
        <ele>86.43</ele>
        <time>2016-10-04T06:53:53Z</time>
      </trkpt>
      <trkpt lat="43.27856" lon="5.50767">
        <ele>86.53</ele>
        <time>2016-10-04T06:54:06Z</time>
      </trkpt>
      <trkpt lat="43.27858" lon="5.50766">
        <ele>86.75</ele>
        <time>2016-10-04T06:54:20Z</time>
      </trkpt>
      <trkpt lat="43.27854" lon="5.50759">
        <ele>86.79</ele>
        <time>2016-10-04T06:54:30Z</time>
      </trkpt>
      <trkpt lat="43.27847" lon="5.50749">
        <ele>87.37</ele>
        <time>2016-10-04T06:54:42Z</time>
      </trkpt>
      <trkpt lat="43.2784" lon="5.50738">
        <ele>88.34</ele>
        <time>2016-10-04T06:54:52Z</time>
      </trkpt>
      <trkpt lat="43.27836" lon="5.50731">
        <ele>88.92</ele>
        <time>2016-10-04T06:55:00Z</time>
      </trkpt>
      <trkpt lat="43.27826" lon="5.5072">
        <ele>89.74</ele>
        <time>2016-10-04T06:55:12Z</time>
      </trkpt>
      <trkpt lat="43.2782" lon="5.50713">
        <ele>90.63</ele>
        <time>2016-10-04T06:55:21Z</time>
      </trkpt>
      <trkpt lat="43.27814" lon="5.50713">
        <ele>91.45</ele>
        <time>2016-10-04T06:55:30Z</time>
      </trkpt>
      <trkpt lat="43.27807" lon="5.50711">
        <ele>92.18</ele>
        <time>2016-10-04T06:55:40Z</time>
      </trkpt>
      <trkpt lat="43.27797" lon="5.50706">
        <ele>94.68</ele>
        <time>2016-10-04T06:55:54Z</time>
      </trkpt>
      <trkpt lat="43.27793" lon="5.50702">
        <ele>95.55</ele>
        <time>2016-10-04T06:56:08Z</time>
      </trkpt>
      <trkpt lat="43.27786" lon="5.507">
        <ele>97.65</ele>
        <time>2016-10-04T06:56:20Z</time>
      </trkpt>
      <trkpt lat="43.27776" lon="5.50697">
        <ele>99.54</ele>
        <time>2016-10-04T06:56:32Z</time>
      </trkpt>
      <trkpt lat="43.27773" lon="5.50696">
        <ele>100.54</ele>
        <time>2016-10-04T06:56:42Z</time>
      </trkpt>
      <trkpt lat="43.27766" lon="5.50696">
        <ele>101.46</ele>
        <time>2016-10-04T06:56:51Z</time>
      </trkpt>
      <trkpt lat="43.27759" lon="5.50686">
        <ele>102.18</ele>
        <time>2016-10-04T06:57:02Z</time>
      </trkpt>
      <trkpt lat="43.27754" lon="5.50671">
        <ele>102.87</ele>
        <time>2016-10-04T06:57:17Z</time>
      </trkpt>
      <trkpt lat="43.27754" lon="5.5066">
        <ele>103.37</ele>
        <time>2016-10-04T06:57:28Z</time>
      </trkpt>
      <trkpt lat="43.27749" lon="5.50656">
        <ele>104.26</ele>
        <time>2016-10-04T06:57:40Z</time>
      </trkpt>
      <trkpt lat="43.27745" lon="5.50657">
        <ele>104.98</ele>
        <time>2016-10-04T06:57:50Z</time>
      </trkpt>
      <trkpt lat="43.27743" lon="5.50657">
        <ele>105.33</ele>
        <time>2016-10-04T06:58:05Z</time>
      </trkpt>
      <trkpt lat="43.27744" lon="5.5065">
        <ele>105.11</ele>
        <time>2016-10-04T06:58:16Z</time>
      </trkpt>
      <trkpt lat="43.2774" lon="5.5064">
        <ele>104.83</ele>
        <time>2016-10-04T06:58:28Z</time>
      </trkpt>
      <trkpt lat="43.27728" lon="5.50626">
        <ele>105.28</ele>
        <time>2016-10-04T06:58:42Z</time>
      </trkpt>
      <trkpt lat="43.27723" lon="5.50613">
        <ele>105.92</ele>
        <time>2016-10-04T06:58:53Z</time>
      </trkpt>
      <trkpt lat="43.27714" lon="5.50598">
        <ele>105.75</ele>
        <time>2016-10-04T06:59:05Z</time>
      </trkpt>
      <trkpt lat="43.27711" lon="5.50593">
        <ele>105.55</ele>
        <time>2016-10-04T06:59:15Z</time>
      </trkpt>
      <trkpt lat="43.27706" lon="5.50584">
        <ele>105.11</ele>
        <time>2016-10-04T06:59:29Z</time>
      </trkpt>
      <trkpt lat="43.27699" lon="5.50573">
        <ele>104.82</ele>
        <time>2016-10-04T06:59:42Z</time>
      </trkpt>
      <trkpt lat="43.27693" lon="5.50569">
        <ele>104.1</ele>
        <time>2016-10-04T06:59:54Z</time>
      </trkpt>
      <trkpt lat="43.27684" lon="5.50567">
        <ele>102.73</ele>
        <time>2016-10-04T07:00:06Z</time>
      </trkpt>
      <trkpt lat="43.2768" lon="5.50564">
        <ele>101.2</ele>
        <time>2016-10-04T07:00:14Z</time>
      </trkpt>
      <trkpt lat="43.27671" lon="5.5056">
        <ele>99.35</ele>
        <time>2016-10-04T07:00:23Z</time>
      </trkpt>
      <trkpt lat="43.27663" lon="5.50559">
        <ele>99.43</ele>
        <time>2016-10-04T07:00:31Z</time>
      </trkpt>
      <trkpt lat="43.27657" lon="5.50563">
        <ele>100.19</ele>
        <time>2016-10-04T07:00:39Z</time>
      </trkpt>
      <trkpt lat="43.27656" lon="5.50564">
        <ele>100.61</ele>
        <time>2016-10-04T07:00:42Z</time>
      </trkpt>
      <trkpt lat="43.27652" lon="5.50566">
        <ele>101.48</ele>
        <time>2016-10-04T07:00:59Z</time>
      </trkpt>
      <trkpt lat="43.27651" lon="5.50566">
        <ele>101.57</ele>
        <time>2016-10-04T07:01:02Z</time>
      </trkpt>
      <trkpt lat="43.27644" lon="5.50566">
        <ele>101.97</ele>
        <time>2016-10-04T07:01:12Z</time>
      </trkpt>
      <trkpt lat="43.27638" lon="5.50569">
        <ele>103.33</ele>
        <time>2016-10-04T07:01:23Z</time>
      </trkpt>
      <trkpt lat="43.27635" lon="5.50572">
        <ele>104.56</ele>
        <time>2016-10-04T07:01:32Z</time>
      </trkpt>
      <trkpt lat="43.27622" lon="5.50575">
        <ele>106.84</ele>
        <time>2016-10-04T07:01:46Z</time>
      </trkpt>
      <trkpt lat="43.27611" lon="5.50577">
        <ele>109.15</ele>
        <time>2016-10-04T07:01:59Z</time>
      </trkpt>
      <trkpt lat="43.27599" lon="5.50577">
        <ele>111.23</ele>
        <time>2016-10-04T07:02:12Z</time>
      </trkpt>
      <trkpt lat="43.27595" lon="5.50578">
        <ele>111.76</ele>
        <time>2016-10-04T07:02:16Z</time>
      </trkpt>
      <trkpt lat="43.27584" lon="5.50581">
        <ele>113.34</ele>
        <time>2016-10-04T07:02:27Z</time>
      </trkpt>
      <trkpt lat="43.27584" lon="5.50582">
        <ele>113.82</ele>
        <time>2016-10-04T07:02:42Z</time>
      </trkpt>
      <trkpt lat="43.27583" lon="5.50585">
        <ele>113.91</ele>
        <time>2016-10-04T07:02:57Z</time>
      </trkpt>
      <trkpt lat="43.27579" lon="5.50582">
        <ele>114.02</ele>
        <time>2016-10-04T07:03:08Z</time>
      </trkpt>
      <trkpt lat="43.2757" lon="5.50585">
        <ele>114.5</ele>
        <time>2016-10-04T07:03:19Z</time>
      </trkpt>
      <trkpt lat="43.27558" lon="5.50583">
        <ele>115.68</ele>
        <time>2016-10-04T07:03:33Z</time>
      </trkpt>
      <trkpt lat="43.27542" lon="5.50581">
        <ele>117.51</ele>
        <time>2016-10-04T07:03:47Z</time>
      </trkpt>
      <trkpt lat="43.27533" lon="5.50579">
        <ele>119.37</ele>
        <time>2016-10-04T07:04:00Z</time>
      </trkpt>
      <trkpt lat="43.27523" lon="5.50584">
        <ele>121.43</ele>
        <time>2016-10-04T07:04:12Z</time>
      </trkpt>
      <trkpt lat="43.27514" lon="5.50588">
        <ele>123.48</ele>
        <time>2016-10-04T07:04:24Z</time>
      </trkpt>
      <trkpt lat="43.27506" lon="5.50591">
        <ele>124.99</ele>
        <time>2016-10-04T07:04:36Z</time>
      </trkpt>
      <trkpt lat="43.27498" lon="5.50593">
        <ele>126.72</ele>
        <time>2016-10-04T07:04:47Z</time>
      </trkpt>
      <trkpt lat="43.2749" lon="5.50594">
        <ele>128.51</ele>
        <time>2016-10-04T07:04:58Z</time>
      </trkpt>
      <trkpt lat="43.27481" lon="5.50596">
        <ele>130.25</ele>
        <time>2016-10-04T07:05:09Z</time>
      </trkpt>
      <trkpt lat="43.27472" lon="5.50597">
        <ele>132.37</ele>
        <time>2016-10-04T07:05:20Z</time>
      </trkpt>
      <trkpt lat="43.27464" lon="5.50601">
        <ele>134.19</ele>
        <time>2016-10-04T07:05:32Z</time>
      </trkpt>
      <trkpt lat="43.27456" lon="5.5061">
        <ele>135.99</ele>
        <time>2016-10-04T07:05:44Z</time>
      </trkpt>
      <trkpt lat="43.27453" lon="5.50612">
        <ele>136.74</ele>
        <time>2016-10-04T07:05:53Z</time>
      </trkpt>
      <trkpt lat="43.27452" lon="5.50614">
        <ele>135.7</ele>
        <time>2016-10-04T07:06:08Z</time>
      </trkpt>
      <trkpt lat="43.2745" lon="5.50614">
        <ele>136.54</ele>
        <time>2016-10-04T07:06:20Z</time>
      </trkpt>
      <trkpt lat="43.27449" lon="5.50612">
        <ele>136.89</ele>
        <time>2016-10-04T07:06:37Z</time>
      </trkpt>
      <trkpt lat="43.27447" lon="5.50612">
        <ele>136.97</ele>
        <time>2016-10-04T07:06:50Z</time>
      </trkpt>
      <trkpt lat="43.27448" lon="5.50611">
        <ele>136.67</ele>
        <time>2016-10-04T07:07:05Z</time>
      </trkpt>
      <trkpt lat="43.27446" lon="5.50613">
        <ele>137.03</ele>
        <time>2016-10-04T07:07:19Z</time>
      </trkpt>
      <trkpt lat="43.27442" lon="5.50621">
        <ele>137.29</ele>
        <time>2016-10-04T07:07:26Z</time>
      </trkpt>
      <trkpt lat="43.27438" lon="5.50626">
        <ele>137.96</ele>
        <time>2016-10-04T07:07:30Z</time>
      </trkpt>
      <trkpt lat="43.2743" lon="5.50638">
        <ele>138.65</ele>
        <time>2016-10-04T07:07:40Z</time>
      </trkpt>
      <trkpt lat="43.27429" lon="5.5064">
        <ele>138.95</ele>
        <time>2016-10-04T07:07:42Z</time>
      </trkpt>
      <trkpt lat="43.27423" lon="5.50648">
        <ele>139.96</ele>
        <time>2016-10-04T07:07:50Z</time>
      </trkpt>
      <trkpt lat="43.27417" lon="5.50656">
        <ele>140.63</ele>
        <time>2016-10-04T07:07:58Z</time>
      </trkpt>
      <trkpt lat="43.27407" lon="5.5067">
        <ele>142.38</ele>
        <time>2016-10-04T07:08:12Z</time>
      </trkpt>
      <trkpt lat="43.27398" lon="5.5068">
        <ele>144.42</ele>
        <time>2016-10-04T07:08:26Z</time>
      </trkpt>
      <trkpt lat="43.2739" lon="5.50689">
        <ele>146.65</ele>
        <time>2016-10-04T07:08:39Z</time>
      </trkpt>
      <trkpt lat="43.27383" lon="5.50697">
        <ele>149.05</ele>
        <time>2016-10-04T07:08:52Z</time>
      </trkpt>
      <trkpt lat="43.27375" lon="5.50702">
        <ele>150.88</ele>
        <time>2016-10-04T07:09:03Z</time>
      </trkpt>
      <trkpt lat="43.27368" lon="5.50708">
        <ele>153.03</ele>
        <time>2016-10-04T07:09:14Z</time>
      </trkpt>
      <trkpt lat="43.27367" lon="5.50709">
        <ele>153.98</ele>
        <time>2016-10-04T07:09:29Z</time>
      </trkpt>
      <trkpt lat="43.27365" lon="5.50709">
        <ele>153.48</ele>
        <time>2016-10-04T07:09:43Z</time>
      </trkpt>
      <trkpt lat="43.27359" lon="5.50713">
        <ele>155.21</ele>
        <time>2016-10-04T07:09:56Z</time>
      </trkpt>
      <trkpt lat="43.27348" lon="5.50715">
        <ele>158.18</ele>
        <time>2016-10-04T07:10:12Z</time>
      </trkpt>
      <trkpt lat="43.27342" lon="5.50719">
        <ele>160.08</ele>
        <time>2016-10-04T07:10:23Z</time>
      </trkpt>
      <trkpt lat="43.27336" lon="5.50726">
        <ele>162.7</ele>
        <time>2016-10-04T07:10:37Z</time>
      </trkpt>
      <trkpt lat="43.27331" lon="5.50735">
        <ele>163.88</ele>
        <time>2016-10-04T07:10:47Z</time>
      </trkpt>
      <trkpt lat="43.27321" lon="5.50751">
        <ele>165.81</ele>
        <time>2016-10-04T07:11:03Z</time>
      </trkpt>
      <trkpt lat="43.27314" lon="5.5076">
        <ele>167.42</ele>
        <time>2016-10-04T07:11:16Z</time>
      </trkpt>
      <trkpt lat="43.27306" lon="5.50769">
        <ele>168.97</ele>
        <time>2016-10-04T07:11:29Z</time>
      </trkpt>
      <trkpt lat="43.27299" lon="5.5078">
        <ele>170.21</ele>
        <time>2016-10-04T07:11:41Z</time>
      </trkpt>
      <trkpt lat="43.27295" lon="5.50792">
        <ele>171.44</ele>
        <time>2016-10-04T07:11:56Z</time>
      </trkpt>
      <trkpt lat="43.27287" lon="5.50804">
        <ele>173.22</ele>
        <time>2016-10-04T07:12:10Z</time>
      </trkpt>
      <trkpt lat="43.27282" lon="5.50806">
        <ele>174.2</ele>
        <time>2016-10-04T07:12:19Z</time>
      </trkpt>
      <trkpt lat="43.27275" lon="5.50812">
        <ele>176.49</ele>
        <time>2016-10-04T07:12:33Z</time>
      </trkpt>
      <trkpt lat="43.27267" lon="5.5082">
        <ele>178.26</ele>
        <time>2016-10-04T07:12:47Z</time>
      </trkpt>
      <trkpt lat="43.27261" lon="5.50824">
        <ele>179.98</ele>
        <time>2016-10-04T07:13:00Z</time>
      </trkpt>
      <trkpt lat="43.27255" lon="5.5083">
        <ele>182.06</ele>
        <time>2016-10-04T07:13:14Z</time>
      </trkpt>
      <trkpt lat="43.27247" lon="5.50837">
        <ele>184.12</ele>
        <time>2016-10-04T07:13:27Z</time>
      </trkpt>
      <trkpt lat="43.27241" lon="5.50843">
        <ele>185.88</ele>
        <time>2016-10-04T07:13:40Z</time>
      </trkpt>
      <trkpt lat="43.27236" lon="5.50846">
        <ele>187.78</ele>
        <time>2016-10-04T07:13:53Z</time>
      </trkpt>
      <trkpt lat="43.2723" lon="5.5085">
        <ele>189.73</ele>
        <time>2016-10-04T07:14:06Z</time>
      </trkpt>
      <trkpt lat="43.27224" lon="5.50854">
        <ele>191.88</ele>
        <time>2016-10-04T07:14:21Z</time>
      </trkpt>
      <trkpt lat="43.27218" lon="5.50856">
        <ele>194.25</ele>
        <time>2016-10-04T07:14:35Z</time>
      </trkpt>
      <trkpt lat="43.27216" lon="5.50856">
        <ele>195.8</ele>
        <time>2016-10-04T07:14:46Z</time>
      </trkpt>
      <trkpt lat="43.27211" lon="5.50855">
        <ele>197.26</ele>
        <time>2016-10-04T07:14:58Z</time>
      </trkpt>
      <trkpt lat="43.27205" lon="5.50854">
        <ele>199.52</ele>
        <time>2016-10-04T07:15:13Z</time>
      </trkpt>
      <trkpt lat="43.272" lon="5.50859">
        <ele>201.62</ele>
        <time>2016-10-04T07:15:26Z</time>
      </trkpt>
      <trkpt lat="43.27198" lon="5.50861">
        <ele>202.21</ele>
        <time>2016-10-04T07:15:39Z</time>
      </trkpt>
      <trkpt lat="43.27192" lon="5.50867">
        <ele>202.99</ele>
        <time>2016-10-04T07:15:50Z</time>
      </trkpt>
      <trkpt lat="43.27188" lon="5.50877">
        <ele>203.81</ele>
        <time>2016-10-04T07:16:03Z</time>
      </trkpt>
      <trkpt lat="43.27183" lon="5.50888">
        <ele>204.61</ele>
        <time>2016-10-04T07:16:16Z</time>
      </trkpt>
      <trkpt lat="43.2718" lon="5.50893">
        <ele>205.28</ele>
        <time>2016-10-04T07:16:27Z</time>
      </trkpt>
      <trkpt lat="43.27178" lon="5.50895">
        <ele>205.72</ele>
        <time>2016-10-04T07:16:40Z</time>
      </trkpt>
      <trkpt lat="43.27178" lon="5.50896">
        <ele>205.58</ele>
        <time>2016-10-04T07:17:08Z</time>
      </trkpt>
      <trkpt lat="43.27177" lon="5.50898">
        <ele>205.64</ele>
        <time>2016-10-04T07:17:25Z</time>
      </trkpt>
      <trkpt lat="43.27176" lon="5.50897">
        <ele>205.75</ele>
        <time>2016-10-04T07:17:39Z</time>
      </trkpt>
      <trkpt lat="43.27176" lon="5.50897">
        <ele>205.92</ele>
        <time>2016-10-04T07:17:55Z</time>
      </trkpt>
      <trkpt lat="43.27176" lon="5.50897">
        <ele>205.68</ele>
        <time>2016-10-04T07:18:09Z</time>
      </trkpt>
      <trkpt lat="43.27172" lon="5.50903">
        <ele>205.75</ele>
        <time>2016-10-04T07:18:19Z</time>
      </trkpt>
      <trkpt lat="43.27166" lon="5.5091">
        <ele>206.83</ele>
        <time>2016-10-04T07:18:31Z</time>
      </trkpt>
      <trkpt lat="43.27159" lon="5.50918">
        <ele>208.48</ele>
        <time>2016-10-04T07:18:44Z</time>
      </trkpt>
      <trkpt lat="43.2715" lon="5.50921">
        <ele>210.65</ele>
        <time>2016-10-04T07:18:56Z</time>
      </trkpt>
      <trkpt lat="43.27145" lon="5.50924">
        <ele>212.66</ele>
        <time>2016-10-04T07:19:09Z</time>
      </trkpt>
      <trkpt lat="43.27141" lon="5.50925">
        <ele>214.63</ele>
        <time>2016-10-04T07:19:20Z</time>
      </trkpt>
      <trkpt lat="43.27134" lon="5.50924">
        <ele>217.13</ele>
        <time>2016-10-04T07:19:35Z</time>
      </trkpt>
      <trkpt lat="43.27126" lon="5.50923">
        <ele>219.7</ele>
        <time>2016-10-04T07:19:50Z</time>
      </trkpt>
      <trkpt lat="43.27119" lon="5.50919">
        <ele>222.08</ele>
        <time>2016-10-04T07:20:03Z</time>
      </trkpt>
      <trkpt lat="43.27114" lon="5.50916">
        <ele>223.75</ele>
        <time>2016-10-04T07:20:16Z</time>
      </trkpt>
      <trkpt lat="43.27112" lon="5.50912">
        <ele>224.37</ele>
        <time>2016-10-04T07:20:24Z</time>
      </trkpt>
      <trkpt lat="43.27111" lon="5.50912">
        <ele>224.73</ele>
        <time>2016-10-04T07:20:33Z</time>
      </trkpt>
      <trkpt lat="43.27112" lon="5.50912">
        <ele>224.16</ele>
        <time>2016-10-04T07:20:48Z</time>
      </trkpt>
      <trkpt lat="43.27112" lon="5.50912">
        <ele>223.75</ele>
        <time>2016-10-04T07:21:05Z</time>
      </trkpt>
      <trkpt lat="43.27113" lon="5.50912">
        <ele>224.66</ele>
        <time>2016-10-04T07:21:20Z</time>
      </trkpt>
      <trkpt lat="43.27114" lon="5.50913">
        <ele>224.66</ele>
        <time>2016-10-04T07:21:30Z</time>
      </trkpt>
      <trkpt lat="43.27114" lon="5.50913">
        <ele>224.44</ele>
        <time>2016-10-04T07:21:44Z</time>
      </trkpt>
      <trkpt lat="43.27115" lon="5.50912">
        <ele>224.4</ele>
        <time>2016-10-04T07:22:04Z</time>
      </trkpt>
      <trkpt lat="43.27113" lon="5.50912">
        <ele>224.52</ele>
        <time>2016-10-04T07:22:20Z</time>
      </trkpt>
      <trkpt lat="43.27113" lon="5.50913">
        <ele>224.51</ele>
        <time>2016-10-04T07:22:23Z</time>
      </trkpt>
      <trkpt lat="43.27113" lon="5.50912">
        <ele>224.43</ele>
        <time>2016-10-04T07:22:39Z</time>
      </trkpt>
      <trkpt lat="43.27113" lon="5.50913">
        <ele>224.64</ele>
        <time>2016-10-04T07:22:57Z</time>
      </trkpt>
      <trkpt lat="43.27112" lon="5.50913">
        <ele>224.55</ele>
        <time>2016-10-04T07:23:08Z</time>
      </trkpt>
      <trkpt lat="43.27112" lon="5.50913">
        <ele>224.46</ele>
        <time>2016-10-04T07:23:22Z</time>
      </trkpt>
      <trkpt lat="43.27113" lon="5.50912">
        <ele>224.44</ele>
        <time>2016-10-04T07:23:38Z</time>
      </trkpt>
      <trkpt lat="43.27115" lon="5.50912">
        <ele>224.72</ele>
        <time>2016-10-04T07:23:55Z</time>
      </trkpt>
      <trkpt lat="43.27115" lon="5.50913">
        <ele>224.58</ele>
        <time>2016-10-04T07:24:08Z</time>
      </trkpt>
      <trkpt lat="43.27115" lon="5.50913">
        <ele>224.49</ele>
        <time>2016-10-04T07:24:23Z</time>
      </trkpt>
      <trkpt lat="43.27114" lon="5.50912">
        <ele>224.55</ele>
        <time>2016-10-04T07:24:41Z</time>
      </trkpt>
      <trkpt lat="43.27112" lon="5.50914">
        <ele>224.36</ele>
        <time>2016-10-04T07:24:56Z</time>
      </trkpt>
      <trkpt lat="43.2711" lon="5.50917">
        <ele>224.35</ele>
        <time>2016-10-04T07:25:12Z</time>
      </trkpt>
      <trkpt lat="43.27106" lon="5.50926">
        <ele>224.64</ele>
        <time>2016-10-04T07:25:22Z</time>
      </trkpt>
      <trkpt lat="43.27106" lon="5.50925">
        <ele>224.46</ele>
        <time>2016-10-04T07:25:30Z</time>
      </trkpt>
      <trkpt lat="43.27101" lon="5.5092">
        <ele>225.14</ele>
        <time>2016-10-04T07:25:40Z</time>
      </trkpt>
      <trkpt lat="43.27094" lon="5.50928">
        <ele>226.28</ele>
        <time>2016-10-04T07:25:52Z</time>
      </trkpt>
      <trkpt lat="43.2709" lon="5.5093">
        <ele>227.35</ele>
        <time>2016-10-04T07:26:02Z</time>
      </trkpt>
      <trkpt lat="43.27086" lon="5.50929">
        <ele>228.32</ele>
        <time>2016-10-04T07:26:10Z</time>
      </trkpt>
      <trkpt lat="43.2708" lon="5.50929">
        <ele>230.07</ele>
        <time>2016-10-04T07:26:20Z</time>
      </trkpt>
      <trkpt lat="43.27071" lon="5.50927">
        <ele>232.77</ele>
        <time>2016-10-04T07:26:36Z</time>
      </trkpt>
      <trkpt lat="43.27065" lon="5.50922">
        <ele>234.73</ele>
        <time>2016-10-04T07:26:50Z</time>
      </trkpt>
      <trkpt lat="43.27058" lon="5.50923">
        <ele>236.26</ele>
        <time>2016-10-04T07:27:01Z</time>
      </trkpt>
      <trkpt lat="43.27051" lon="5.50921">
        <ele>237.55</ele>
        <time>2016-10-04T07:27:12Z</time>
      </trkpt>
      <trkpt lat="43.27047" lon="5.50923">
        <ele>239.22</ele>
        <time>2016-10-04T07:27:23Z</time>
      </trkpt>
      <trkpt lat="43.27038" lon="5.50924">
        <ele>240.56</ele>
        <time>2016-10-04T07:27:34Z</time>
      </trkpt>
      <trkpt lat="43.27034" lon="5.50929">
        <ele>241.99</ele>
        <time>2016-10-04T07:27:45Z</time>
      </trkpt>
      <trkpt lat="43.27029" lon="5.50929">
        <ele>243.42</ele>
        <time>2016-10-04T07:27:56Z</time>
      </trkpt>
      <trkpt lat="43.27022" lon="5.50932">
        <ele>245.37</ele>
        <time>2016-10-04T07:28:10Z</time>
      </trkpt>
      <trkpt lat="43.27019" lon="5.50935">
        <ele>247.09</ele>
        <time>2016-10-04T07:28:20Z</time>
      </trkpt>
      <trkpt lat="43.27013" lon="5.50936">
        <ele>249.15</ele>
        <time>2016-10-04T07:28:34Z</time>
      </trkpt>
      <trkpt lat="43.27011" lon="5.50941">
        <ele>250.47</ele>
        <time>2016-10-04T07:28:46Z</time>
      </trkpt>
      <trkpt lat="43.27007" lon="5.50947">
        <ele>251.06</ele>
        <time>2016-10-04T07:28:58Z</time>
      </trkpt>
      <trkpt lat="43.27005" lon="5.50956">
        <ele>250.98</ele>
        <time>2016-10-04T07:29:10Z</time>
      </trkpt>
      <trkpt lat="43.27005" lon="5.50959">
        <ele>250.99</ele>
        <time>2016-10-04T07:29:26Z</time>
      </trkpt>
      <trkpt lat="43.27004" lon="5.5096">
        <ele>251.02</ele>
        <time>2016-10-04T07:29:38Z</time>
      </trkpt>
      <trkpt lat="43.27004" lon="5.5096">
        <ele>250.86</ele>
        <time>2016-10-04T07:29:57Z</time>
      </trkpt>
      <trkpt lat="43.27004" lon="5.5096">
        <ele>250.85</ele>
        <time>2016-10-04T07:30:07Z</time>
      </trkpt>
      <trkpt lat="43.27004" lon="5.5096">
        <ele>251.07</ele>
        <time>2016-10-04T07:30:30Z</time>
      </trkpt>
      <trkpt lat="43.27004" lon="5.50961">
        <ele>251.05</ele>
        <time>2016-10-04T07:30:53Z</time>
      </trkpt>
      <trkpt lat="43.27004" lon="5.50962">
        <ele>251.21</ele>
        <time>2016-10-04T07:31:07Z</time>
      </trkpt>
      <trkpt lat="43.27003" lon="5.5096">
        <ele>251.18</ele>
        <time>2016-10-04T07:31:28Z</time>
      </trkpt>
      <trkpt lat="43.27003" lon="5.5096">
        <ele>251.15</ele>
        <time>2016-10-04T07:31:44Z</time>
      </trkpt>
      <trkpt lat="43.27003" lon="5.50959">
        <ele>251.18</ele>
        <time>2016-10-04T07:31:57Z</time>
      </trkpt>
      <trkpt lat="43.27004" lon="5.5096">
        <ele>251.27</ele>
        <time>2016-10-04T07:32:14Z</time>
      </trkpt>
      <trkpt lat="43.27004" lon="5.5096">
        <ele>251.19</ele>
        <time>2016-10-04T07:32:25Z</time>
      </trkpt>
      <trkpt lat="43.27005" lon="5.50959">
        <ele>251.01</ele>
        <time>2016-10-04T07:32:36Z</time>
      </trkpt>
      <trkpt lat="43.27004" lon="5.50958">
        <ele>251.15</ele>
        <time>2016-10-04T07:32:47Z</time>
      </trkpt>
      <trkpt lat="43.27004" lon="5.50958">
        <ele>250.92</ele>
        <time>2016-10-04T07:33:02Z</time>
      </trkpt>
      <trkpt lat="43.27004" lon="5.50959">
        <ele>251.12</ele>
        <time>2016-10-04T07:33:18Z</time>
      </trkpt>
      <trkpt lat="43.27004" lon="5.50958">
        <ele>250.97</ele>
        <time>2016-10-04T07:33:36Z</time>
      </trkpt>
      <trkpt lat="43.27004" lon="5.50958">
        <ele>250.73</ele>
        <time>2016-10-04T07:33:49Z</time>
      </trkpt>
      <trkpt lat="43.27004" lon="5.50958">
        <ele>250.98</ele>
        <time>2016-10-04T07:34:05Z</time>
      </trkpt>
      <trkpt lat="43.27004" lon="5.50958">
        <ele>250.71</ele>
        <time>2016-10-04T07:34:21Z</time>
      </trkpt>
      <trkpt lat="43.27003" lon="5.50958">
        <ele>250.71</ele>
        <time>2016-10-04T07:34:32Z</time>
      </trkpt>
      <trkpt lat="43.27002" lon="5.5096">
        <ele>250.68</ele>
        <time>2016-10-04T07:34:51Z</time>
      </trkpt>
      <trkpt lat="43.27002" lon="5.50962">
        <ele>250.83</ele>
        <time>2016-10-04T07:35:03Z</time>
      </trkpt>
      <trkpt lat="43.27004" lon="5.50962">
        <ele>250.51</ele>
        <time>2016-10-04T07:35:14Z</time>
      </trkpt>
      <trkpt lat="43.27004" lon="5.50961">
        <ele>250.44</ele>
        <time>2016-10-04T07:35:36Z</time>
      </trkpt>
      <trkpt lat="43.27003" lon="5.50962">
        <ele>250.48</ele>
        <time>2016-10-04T07:35:49Z</time>
      </trkpt>
      <trkpt lat="43.27003" lon="5.50964">
        <ele>250.32</ele>
        <time>2016-10-04T07:35:58Z</time>
      </trkpt>
      <trkpt lat="43.27003" lon="5.50966">
        <ele>250.13</ele>
        <time>2016-10-04T07:36:02Z</time>
      </trkpt>
      <trkpt lat="43.27001" lon="5.50973">
        <ele>249.81</ele>
        <time>2016-10-04T07:36:10Z</time>
      </trkpt>
      <trkpt lat="43.27" lon="5.50974">
        <ele>249.43</ele>
        <time>2016-10-04T07:36:22Z</time>
      </trkpt>
      <trkpt lat="43.27" lon="5.50975">
        <ele>249.45</ele>
        <time>2016-10-04T07:36:36Z</time>
      </trkpt>
      <trkpt lat="43.27" lon="5.50977">
        <ele>249.46</ele>
        <time>2016-10-04T07:36:39Z</time>
      </trkpt>
      <trkpt lat="43.26999" lon="5.50984">
        <ele>248.73</ele>
        <time>2016-10-04T07:36:47Z</time>
      </trkpt>
      <trkpt lat="43.26991" lon="5.50987">
        <ele>247.95</ele>
        <time>2016-10-04T07:36:56Z</time>
      </trkpt>
      <trkpt lat="43.26989" lon="5.50988">
        <ele>247.79</ele>
        <time>2016-10-04T07:36:59Z</time>
      </trkpt>
      <trkpt lat="43.26986" lon="5.50989">
        <ele>247.61</ele>
        <time>2016-10-04T07:37:02Z</time>
      </trkpt>
      <trkpt lat="43.26982" lon="5.50994">
        <ele>247.35</ele>
        <time>2016-10-04T07:37:10Z</time>
      </trkpt>
      <trkpt lat="43.2698" lon="5.50998">
        <ele>247.35</ele>
        <time>2016-10-04T07:37:20Z</time>
      </trkpt>
      <trkpt lat="43.26979" lon="5.50999">
        <ele>247.21</ele>
        <time>2016-10-04T07:37:32Z</time>
      </trkpt>
      <trkpt lat="43.26974" lon="5.51001">
        <ele>247.16</ele>
        <time>2016-10-04T07:37:39Z</time>
      </trkpt>
      <trkpt lat="43.26972" lon="5.51003">
        <ele>247.1</ele>
        <time>2016-10-04T07:37:42Z</time>
      </trkpt>
      <trkpt lat="43.26962" lon="5.51006">
        <ele>247.46</ele>
        <time>2016-10-04T07:37:53Z</time>
      </trkpt>
      <trkpt lat="43.26952" lon="5.51011">
        <ele>248.21</ele>
        <time>2016-10-04T07:38:05Z</time>
      </trkpt>
      <trkpt lat="43.26945" lon="5.51012">
        <ele>249.34</ele>
        <time>2016-10-04T07:38:15Z</time>
      </trkpt>
      <trkpt lat="43.26942" lon="5.51012">
        <ele>250.33</ele>
        <time>2016-10-04T07:38:25Z</time>
      </trkpt>
      <trkpt lat="43.26941" lon="5.51014">
        <ele>251.08</ele>
        <time>2016-10-04T07:38:40Z</time>
      </trkpt>
      <trkpt lat="43.26939" lon="5.51009">
        <ele>251.51</ele>
        <time>2016-10-04T07:38:51Z</time>
      </trkpt>
      <trkpt lat="43.26934" lon="5.51">
        <ele>252.19</ele>
        <time>2016-10-04T07:39:00Z</time>
      </trkpt>
      <trkpt lat="43.2693" lon="5.50999">
        <ele>252.65</ele>
        <time>2016-10-04T07:39:04Z</time>
      </trkpt>
      <trkpt lat="43.26923" lon="5.50996">
        <ele>253.38</ele>
        <time>2016-10-04T07:39:13Z</time>
      </trkpt>
      <trkpt lat="43.26919" lon="5.50996">
        <ele>253.46</ele>
        <time>2016-10-04T07:39:22Z</time>
      </trkpt>
      <trkpt lat="43.26918" lon="5.50998">
        <ele>252.53</ele>
        <time>2016-10-04T07:39:32Z</time>
      </trkpt>
      <trkpt lat="43.26915" lon="5.50997">
        <ele>251.54</ele>
        <time>2016-10-04T07:39:43Z</time>
      </trkpt>
      <trkpt lat="43.26914" lon="5.50993">
        <ele>249.45</ele>
        <time>2016-10-04T07:39:55Z</time>
      </trkpt>
      <trkpt lat="43.26914" lon="5.50993">
        <ele>248.2</ele>
        <time>2016-10-04T07:40:10Z</time>
      </trkpt>
      <trkpt lat="43.26915" lon="5.50992">
        <ele>248.06</ele>
        <time>2016-10-04T07:40:23Z</time>
      </trkpt>
      <trkpt lat="43.26912" lon="5.50986">
        <ele>247.56</ele>
        <time>2016-10-04T07:40:36Z</time>
      </trkpt>
      <trkpt lat="43.26904" lon="5.50979">
        <ele>244.19</ele>
        <time>2016-10-04T07:40:52Z</time>
      </trkpt>
      <trkpt lat="43.26903" lon="5.50977">
        <ele>242.81</ele>
        <time>2016-10-04T07:41:02Z</time>
      </trkpt>
      <trkpt lat="43.26902" lon="5.50971">
        <ele>241.69</ele>
        <time>2016-10-04T07:41:12Z</time>
      </trkpt>
      <trkpt lat="43.26901" lon="5.50969">
        <ele>240.78</ele>
        <time>2016-10-04T07:41:26Z</time>
      </trkpt>
      <trkpt lat="43.26897" lon="5.50963">
        <ele>239.64</ele>
        <time>2016-10-04T07:41:37Z</time>
      </trkpt>
      <trkpt lat="43.26891" lon="5.50957">
        <ele>238.37</ele>
        <time>2016-10-04T07:41:49Z</time>
      </trkpt>
      <trkpt lat="43.26887" lon="5.50947">
        <ele>237.42</ele>
        <time>2016-10-04T07:41:58Z</time>
      </trkpt>
      <trkpt lat="43.26881" lon="5.50939">
        <ele>236.71</ele>
        <time>2016-10-04T07:42:09Z</time>
      </trkpt>
      <trkpt lat="43.26875" lon="5.5093">
        <ele>236.59</ele>
        <time>2016-10-04T07:42:19Z</time>
      </trkpt>
      <trkpt lat="43.26875" lon="5.50924">
        <ele>234.97</ele>
        <time>2016-10-04T07:42:30Z</time>
      </trkpt>
      <trkpt lat="43.26874" lon="5.50916">
        <ele>232.67</ele>
        <time>2016-10-04T07:42:40Z</time>
      </trkpt>
      <trkpt lat="43.26868" lon="5.50908">
        <ele>231.99</ele>
        <time>2016-10-04T07:42:51Z</time>
      </trkpt>
      <trkpt lat="43.26867" lon="5.50902">
        <ele>230.99</ele>
        <time>2016-10-04T07:43:01Z</time>
      </trkpt>
      <trkpt lat="43.26864" lon="5.50893">
        <ele>230.01</ele>
        <time>2016-10-04T07:43:11Z</time>
      </trkpt>
      <trkpt lat="43.26859" lon="5.50885">
        <ele>229.23</ele>
        <time>2016-10-04T07:43:20Z</time>
      </trkpt>
      <trkpt lat="43.26857" lon="5.50886">
        <ele>229.1</ele>
        <time>2016-10-04T07:43:30Z</time>
      </trkpt>
      <trkpt lat="43.26855" lon="5.50895">
        <ele>229.32</ele>
        <time>2016-10-04T07:43:40Z</time>
      </trkpt>
      <trkpt lat="43.26851" lon="5.509">
        <ele>229.72</ele>
        <time>2016-10-04T07:43:48Z</time>
      </trkpt>
      <trkpt lat="43.26847" lon="5.50907">
        <ele>230.12</ele>
        <time>2016-10-04T07:44:00Z</time>
      </trkpt>
      <trkpt lat="43.26845" lon="5.50909">
        <ele>229.54</ele>
        <time>2016-10-04T07:44:10Z</time>
      </trkpt>
      <trkpt lat="43.26839" lon="5.50909">
        <ele>228.64</ele>
        <time>2016-10-04T07:44:21Z</time>
      </trkpt>
      <trkpt lat="43.26833" lon="5.50911">
        <ele>226.58</ele>
        <time>2016-10-04T07:44:33Z</time>
      </trkpt>
      <trkpt lat="43.26828" lon="5.50914">
        <ele>225.63</ele>
        <time>2016-10-04T07:44:42Z</time>
      </trkpt>
      <trkpt lat="43.26822" lon="5.50919">
        <ele>224.24</ele>
        <time>2016-10-04T07:44:50Z</time>
      </trkpt>
      <trkpt lat="43.26813" lon="5.50922">
        <ele>223.05</ele>
        <time>2016-10-04T07:45:03Z</time>
      </trkpt>
      <trkpt lat="43.26809" lon="5.50923">
        <ele>221.79</ele>
        <time>2016-10-04T07:45:13Z</time>
      </trkpt>
      <trkpt lat="43.26804" lon="5.50927">
        <ele>221.04</ele>
        <time>2016-10-04T07:45:23Z</time>
      </trkpt>
      <trkpt lat="43.268" lon="5.50928">
        <ele>219.68</ele>
        <time>2016-10-04T07:45:31Z</time>
      </trkpt>
      <trkpt lat="43.26795" lon="5.5093">
        <ele>218.72</ele>
        <time>2016-10-04T07:45:42Z</time>
      </trkpt>
      <trkpt lat="43.26796" lon="5.50928">
        <ele>217.85</ele>
        <time>2016-10-04T07:45:50Z</time>
      </trkpt>
      <trkpt lat="43.26796" lon="5.50925">
        <ele>216.63</ele>
        <time>2016-10-04T07:46:00Z</time>
      </trkpt>
      <trkpt lat="43.26796" lon="5.50917">
        <ele>215.61</ele>
        <time>2016-10-04T07:46:13Z</time>
      </trkpt>
      <trkpt lat="43.26795" lon="5.50913">
        <ele>214.14</ele>
        <time>2016-10-04T07:46:30Z</time>
      </trkpt>
      <trkpt lat="43.26795" lon="5.50907">
        <ele>212.27</ele>
        <time>2016-10-04T07:46:45Z</time>
      </trkpt>
      <trkpt lat="43.26796" lon="5.50903">
        <ele>211.32</ele>
        <time>2016-10-04T07:46:57Z</time>
      </trkpt>
      <trkpt lat="43.268" lon="5.50898">
        <ele>210.1</ele>
        <time>2016-10-04T07:47:09Z</time>
      </trkpt>
      <trkpt lat="43.26805" lon="5.50891">
        <ele>208.97</ele>
        <time>2016-10-04T07:47:20Z</time>
      </trkpt>
      <trkpt lat="43.2681" lon="5.50886">
        <ele>207.6</ele>
        <time>2016-10-04T07:47:31Z</time>
      </trkpt>
      <trkpt lat="43.26813" lon="5.50881">
        <ele>205.96</ele>
        <time>2016-10-04T07:47:42Z</time>
      </trkpt>
      <trkpt lat="43.26814" lon="5.50874">
        <ele>204.65</ele>
        <time>2016-10-04T07:47:54Z</time>
      </trkpt>
      <trkpt lat="43.26814" lon="5.50863">
        <ele>202.05</ele>
        <time>2016-10-04T07:48:10Z</time>
      </trkpt>
      <trkpt lat="43.26813" lon="5.50858">
        <ele>199.44</ele>
        <time>2016-10-04T07:48:22Z</time>
      </trkpt>
      <trkpt lat="43.2681" lon="5.50862">
        <ele>198.07</ele>
        <time>2016-10-04T07:48:34Z</time>
      </trkpt>
      <trkpt lat="43.26808" lon="5.50865">
        <ele>197.49</ele>
        <time>2016-10-04T07:48:46Z</time>
      </trkpt>
      <trkpt lat="43.26807" lon="5.50866">
        <ele>197.34</ele>
        <time>2016-10-04T07:49:02Z</time>
      </trkpt>
      <trkpt lat="43.26806" lon="5.50865">
        <ele>197.47</ele>
        <time>2016-10-04T07:49:17Z</time>
      </trkpt>
      <trkpt lat="43.26808" lon="5.50865">
        <ele>197.47</ele>
        <time>2016-10-04T07:49:39Z</time>
      </trkpt>
      <trkpt lat="43.26808" lon="5.50864">
        <ele>197.53</ele>
        <time>2016-10-04T07:49:55Z</time>
      </trkpt>
      <trkpt lat="43.26808" lon="5.50864">
        <ele>197.8</ele>
        <time>2016-10-04T07:50:13Z</time>
      </trkpt>
      <trkpt lat="43.26809" lon="5.50861">
        <ele>197.68</ele>
        <time>2016-10-04T07:50:29Z</time>
      </trkpt>
      <trkpt lat="43.26808" lon="5.50863">
        <ele>197.67</ele>
        <time>2016-10-04T07:50:43Z</time>
      </trkpt>
      <trkpt lat="43.26805" lon="5.50862">
        <ele>197.43</ele>
        <time>2016-10-04T07:51:01Z</time>
      </trkpt>
      <trkpt lat="43.26805" lon="5.50859">
        <ele>196.89</ele>
        <time>2016-10-04T07:51:16Z</time>
      </trkpt>
      <trkpt lat="43.26802" lon="5.50856">
        <ele>196.95</ele>
        <time>2016-10-04T07:51:31Z</time>
      </trkpt>
      <trkpt lat="43.26802" lon="5.50848">
        <ele>195.62</ele>
        <time>2016-10-04T07:51:44Z</time>
      </trkpt>
      <trkpt lat="43.26801" lon="5.50836">
        <ele>193.64</ele>
        <time>2016-10-04T07:51:58Z</time>
      </trkpt>
      <trkpt lat="43.26803" lon="5.50824">
        <ele>192.45</ele>
        <time>2016-10-04T07:52:10Z</time>
      </trkpt>
      <trkpt lat="43.2681" lon="5.50815">
        <ele>193.06</ele>
        <time>2016-10-04T07:52:22Z</time>
      </trkpt>
      <trkpt lat="43.2682" lon="5.50811">
        <ele>193.3</ele>
        <time>2016-10-04T07:52:34Z</time>
      </trkpt>
      <trkpt lat="43.26824" lon="5.50811">
        <ele>193.59</ele>
        <time>2016-10-04T07:52:43Z</time>
      </trkpt>
      <trkpt lat="43.26832" lon="5.50806">
        <ele>193.51</ele>
        <time>2016-10-04T07:52:55Z</time>
      </trkpt>
      <trkpt lat="43.26834" lon="5.50801">
        <ele>192.01</ele>
        <time>2016-10-04T07:53:08Z</time>
      </trkpt>
      <trkpt lat="43.26837" lon="5.5079">
        <ele>191.57</ele>
        <time>2016-10-04T07:53:18Z</time>
      </trkpt>
      <trkpt lat="43.26845" lon="5.50779">
        <ele>192.38</ele>
        <time>2016-10-04T07:53:31Z</time>
      </trkpt>
      <trkpt lat="43.26852" lon="5.50771">
        <ele>191.77</ele>
        <time>2016-10-04T07:53:43Z</time>
      </trkpt>
      <trkpt lat="43.26858" lon="5.50767">
        <ele>192.16</ele>
        <time>2016-10-04T07:53:53Z</time>
      </trkpt>
      <trkpt lat="43.26862" lon="5.50766">
        <ele>192.63</ele>
        <time>2016-10-04T07:54:03Z</time>
      </trkpt>
      <trkpt lat="43.26867" lon="5.50766">
        <ele>192.46</ele>
        <time>2016-10-04T07:54:16Z</time>
      </trkpt>
      <trkpt lat="43.26871" lon="5.50766">
        <ele>191.69</ele>
        <time>2016-10-04T07:54:23Z</time>
      </trkpt>
      <trkpt lat="43.26879" lon="5.50768">
        <ele>189.14</ele>
        <time>2016-10-04T07:54:36Z</time>
      </trkpt>
      <trkpt lat="43.2688" lon="5.50768">
        <ele>188.81</ele>
        <time>2016-10-04T07:54:39Z</time>
      </trkpt>
      <trkpt lat="43.26882" lon="5.50767">
        <ele>187.96</ele>
        <time>2016-10-04T07:54:50Z</time>
      </trkpt>
      <trkpt lat="43.2688" lon="5.50762">
        <ele>185.99</ele>
        <time>2016-10-04T07:55:05Z</time>
      </trkpt>
      <trkpt lat="43.2688" lon="5.50755">
        <ele>184.13</ele>
        <time>2016-10-04T07:55:19Z</time>
      </trkpt>
      <trkpt lat="43.26885" lon="5.50752">
        <ele>182.19</ele>
        <time>2016-10-04T07:55:33Z</time>
      </trkpt>
      <trkpt lat="43.2689" lon="5.50751">
        <ele>179.7</ele>
        <time>2016-10-04T07:55:48Z</time>
      </trkpt>
      <trkpt lat="43.26894" lon="5.50751">
        <ele>178.92</ele>
        <time>2016-10-04T07:56:00Z</time>
      </trkpt>
      <trkpt lat="43.26894" lon="5.50744">
        <ele>176.52</ele>
        <time>2016-10-04T07:56:14Z</time>
      </trkpt>
      <trkpt lat="43.26894" lon="5.50744">
        <ele>174.71</ele>
        <time>2016-10-04T07:56:29Z</time>
      </trkpt>
      <trkpt lat="43.26891" lon="5.50742">
        <ele>173.47</ele>
        <time>2016-10-04T07:56:43Z</time>
      </trkpt>
      <trkpt lat="43.26889" lon="5.50739">
        <ele>173.14</ele>
        <time>2016-10-04T07:56:51Z</time>
      </trkpt>
      <trkpt lat="43.26888" lon="5.50738">
        <ele>173.08</ele>
        <time>2016-10-04T07:56:53Z</time>
      </trkpt>
      <trkpt lat="43.26888" lon="5.50736">
        <ele>172.01</ele>
        <time>2016-10-04T07:57:06Z</time>
      </trkpt>
      <trkpt lat="43.26886" lon="5.50739">
        <ele>172</ele>
        <time>2016-10-04T07:57:22Z</time>
      </trkpt>
      <trkpt lat="43.26884" lon="5.50734">
        <ele>171.2</ele>
        <time>2016-10-04T07:57:33Z</time>
      </trkpt>
      <trkpt lat="43.26881" lon="5.50729">
        <ele>169.29</ele>
        <time>2016-10-04T07:57:47Z</time>
      </trkpt>
      <trkpt lat="43.26881" lon="5.50729">
        <ele>168.54</ele>
        <time>2016-10-04T07:57:58Z</time>
      </trkpt>
      <trkpt lat="43.26879" lon="5.5072">
        <ele>167.62</ele>
        <time>2016-10-04T07:58:10Z</time>
      </trkpt>
      <trkpt lat="43.26872" lon="5.50712">
        <ele>166.2</ele>
        <time>2016-10-04T07:58:21Z</time>
      </trkpt>
      <trkpt lat="43.2687" lon="5.50705">
        <ele>164.52</ele>
        <time>2016-10-04T07:58:32Z</time>
      </trkpt>
      <trkpt lat="43.26872" lon="5.50698">
        <ele>161.46</ele>
        <time>2016-10-04T07:58:44Z</time>
      </trkpt>
      <trkpt lat="43.26876" lon="5.50698">
        <ele>160.41</ele>
        <time>2016-10-04T07:58:56Z</time>
      </trkpt>
      <trkpt lat="43.26884" lon="5.50699">
        <ele>158.84</ele>
        <time>2016-10-04T07:59:08Z</time>
      </trkpt>
      <trkpt lat="43.26893" lon="5.50702">
        <ele>156.18</ele>
        <time>2016-10-04T07:59:20Z</time>
      </trkpt>
      <trkpt lat="43.26893" lon="5.50702">
        <ele>154.83</ele>
        <time>2016-10-04T07:59:27Z</time>
      </trkpt>
      <trkpt lat="43.26895" lon="5.50701">
        <ele>153.76</ele>
        <time>2016-10-04T07:59:39Z</time>
      </trkpt>
      <trkpt lat="43.26896" lon="5.50701">
        <ele>153.58</ele>
        <time>2016-10-04T07:59:40Z</time>
      </trkpt>
      <trkpt lat="43.269" lon="5.50696">
        <ele>150.33</ele>
        <time>2016-10-04T07:59:52Z</time>
      </trkpt>
      <trkpt lat="43.26902" lon="5.50695">
        <ele>149.39</ele>
        <time>2016-10-04T07:59:56Z</time>
      </trkpt>
      <trkpt lat="43.26907" lon="5.50692">
        <ele>147.95</ele>
        <time>2016-10-04T08:00:05Z</time>
      </trkpt>
      <trkpt lat="43.2692" lon="5.50685">
        <ele>145.45</ele>
        <time>2016-10-04T08:00:18Z</time>
      </trkpt>
      <trkpt lat="43.269" lon="5.50659">
        <ele>144.83</ele>
        <time>2016-10-04T08:00:25Z</time>
      </trkpt>
      <trkpt lat="43.26881" lon="5.50623">
        <ele>144.6</ele>
        <time>2016-10-04T08:00:34Z</time>
      </trkpt>
      <trkpt lat="43.26863" lon="5.50578">
        <ele>144.16</ele>
        <time>2016-10-04T08:00:43Z</time>
      </trkpt>
      <trkpt lat="43.26858" lon="5.50552">
        <ele>143.58</ele>
        <time>2016-10-04T08:00:51Z</time>
      </trkpt>
      <trkpt lat="43.26861" lon="5.50531">
        <ele>143.06</ele>
        <time>2016-10-04T08:00:58Z</time>
      </trkpt>
      <trkpt lat="43.26873" lon="5.50497">
        <ele>142.79</ele>
        <time>2016-10-04T08:01:04Z</time>
      </trkpt>
      <trkpt lat="43.26884" lon="5.50477">
        <ele>142.26</ele>
        <time>2016-10-04T08:01:10Z</time>
      </trkpt>
      <trkpt lat="43.2688" lon="5.50447">
        <ele>142.14</ele>
        <time>2016-10-04T08:01:12Z</time>
      </trkpt>
      <trkpt lat="43.26897" lon="5.50417">
        <ele>141.99</ele>
        <time>2016-10-04T08:01:17Z</time>
      </trkpt>
      <trkpt lat="43.26898" lon="5.50385">
        <ele>141.91</ele>
        <time>2016-10-04T08:01:25Z</time>
      </trkpt>
      <trkpt lat="43.26894" lon="5.5036">
        <ele>141.79</ele>
        <time>2016-10-04T08:01:32Z</time>
      </trkpt>
      <trkpt lat="43.26884" lon="5.50342">
        <ele>141.74</ele>
        <time>2016-10-04T08:01:35Z</time>
      </trkpt>
      <trkpt lat="43.26881" lon="5.50315">
        <ele>141.35</ele>
        <time>2016-10-04T08:01:42Z</time>
      </trkpt>
      <trkpt lat="43.26885" lon="5.50295">
        <ele>141.3</ele>
        <time>2016-10-04T08:01:43Z</time>
      </trkpt>
      <trkpt lat="43.26893" lon="5.50273">
        <ele>140.74</ele>
        <time>2016-10-04T08:01:51Z</time>
      </trkpt>
      <trkpt lat="43.26906" lon="5.50266">
        <ele>140.5</ele>
        <time>2016-10-04T08:01:57Z</time>
      </trkpt>
      <trkpt lat="43.26911" lon="5.50227">
        <ele>139.09</ele>
        <time>2016-10-04T08:02:08Z</time>
      </trkpt>
      <trkpt lat="43.26912" lon="5.50206">
        <ele>138.1</ele>
        <time>2016-10-04T08:02:21Z</time>
      </trkpt>
      <trkpt lat="43.26897" lon="5.50188">
        <ele>137.51</ele>
        <time>2016-10-04T08:02:28Z</time>
      </trkpt>
      <trkpt lat="43.26903" lon="5.50166">
        <ele>136.29</ele>
        <time>2016-10-04T08:02:42Z</time>
      </trkpt>
      <trkpt lat="43.26898" lon="5.50141">
        <ele>135.66</ele>
        <time>2016-10-04T08:02:51Z</time>
      </trkpt>
      <trkpt lat="43.26902" lon="5.50118">
        <ele>134.91</ele>
        <time>2016-10-04T08:03:02Z</time>
      </trkpt>
      <trkpt lat="43.26892" lon="5.50059">
        <ele>134.19</ele>
        <time>2016-10-04T08:03:12Z</time>
      </trkpt>
      <trkpt lat="43.2689" lon="5.50002">
        <ele>133.38</ele>
        <time>2016-10-04T08:03:24Z</time>
      </trkpt>
      <trkpt lat="43.26891" lon="5.49973">
        <ele>133.08</ele>
        <time>2016-10-04T08:03:37Z</time>
      </trkpt>
      <trkpt lat="43.26877" lon="5.49934">
        <ele>132.14</ele>
        <time>2016-10-04T08:03:49Z</time>
      </trkpt>
      <trkpt lat="43.26856" lon="5.49887">
        <ele>131.37</ele>
        <time>2016-10-04T08:04:00Z</time>
      </trkpt>
      <trkpt lat="43.26844" lon="5.49868">
        <ele>131.14</ele>
        <time>2016-10-04T08:04:09Z</time>
      </trkpt>
      <trkpt lat="43.26829" lon="5.49834">
        <ele>130.61</ele>
        <time>2016-10-04T08:04:14Z</time>
      </trkpt>
      <trkpt lat="43.26791" lon="5.49823">
        <ele>130.33</ele>
        <time>2016-10-04T08:04:22Z</time>
      </trkpt>
      <trkpt lat="43.26776" lon="5.49821">
        <ele>129.75</ele>
        <time>2016-10-04T08:04:34Z</time>
      </trkpt>
      <trkpt lat="43.2673" lon="5.49716">
        <ele>129.26</ele>
        <time>2016-10-04T08:04:46Z</time>
      </trkpt>
      <trkpt lat="43.26726" lon="5.49637">
        <ele>128.7</ele>
        <time>2016-10-04T08:04:54Z</time>
      </trkpt>
      <trkpt lat="43.26734" lon="5.49619">
        <ele>128.09</ele>
        <time>2016-10-04T08:05:07Z</time>
      </trkpt>
      <trkpt lat="43.26726" lon="5.49585">
        <ele>127.69</ele>
        <time>2016-10-04T08:05:15Z</time>
      </trkpt>
      <trkpt lat="43.26716" lon="5.49508">
        <ele>127.59</ele>
        <time>2016-10-04T08:05:24Z</time>
      </trkpt>
      <trkpt lat="43.26713" lon="5.49438">
        <ele>127.74</ele>
        <time>2016-10-04T08:05:33Z</time>
      </trkpt>
      <trkpt lat="43.26711" lon="5.49369">
        <ele>127.82</ele>
        <time>2016-10-04T08:05:36Z</time>
      </trkpt>
      <trkpt lat="43.26704" lon="5.49305">
        <ele>126.25</ele>
        <time>2016-10-04T08:05:50Z</time>
      </trkpt>
      <trkpt lat="43.26734" lon="5.49239">
        <ele>124.84</ele>
        <time>2016-10-04T08:06:03Z</time>
      </trkpt>
      <trkpt lat="43.26748" lon="5.4922">
        <ele>123.3</ele>
        <time>2016-10-04T08:06:15Z</time>
      </trkpt>
      <trkpt lat="43.26779" lon="5.49179">
        <ele>122.16</ele>
        <time>2016-10-04T08:06:26Z</time>
      </trkpt>
      <trkpt lat="43.26795" lon="5.49154">
        <ele>326.7</ele>
        <time>2016-10-04T09:26:50Z</time>
      </trkpt>
      <trkpt lat="43.26795" lon="5.49153">
        <ele>326.89</ele>
        <time>2016-10-04T09:27:16Z</time>
      </trkpt>
      <trkpt lat="43.26795" lon="5.49154">
        <ele>327.05</ele>
        <time>2016-10-04T09:27:37Z</time>
      </trkpt>
      <trkpt lat="43.26795" lon="5.49152">
        <ele>327.16</ele>
        <time>2016-10-04T09:27:55Z</time>
      </trkpt>
      <trkpt lat="43.26797" lon="5.49145">
        <ele>326.75</ele>
        <time>2016-10-04T09:28:05Z</time>
      </trkpt>
      <trkpt lat="43.26801" lon="5.49136">
        <ele>325.32</ele>
        <time>2016-10-04T09:28:16Z</time>
      </trkpt>
      <trkpt lat="43.26804" lon="5.49136">
        <ele>323.83</ele>
        <time>2016-10-04T09:28:25Z</time>
      </trkpt>
      <trkpt lat="43.26802" lon="5.49136">
        <ele>323.05</ele>
        <time>2016-10-04T09:28:40Z</time>
      </trkpt>
      <trkpt lat="43.26806" lon="5.49135">
        <ele>322.89</ele>
        <time>2016-10-04T09:28:54Z</time>
      </trkpt>
      <trkpt lat="43.26811" lon="5.4913">
        <ele>321.32</ele>
        <time>2016-10-04T09:29:04Z</time>
      </trkpt>
      <trkpt lat="43.26815" lon="5.49125">
        <ele>318.63</ele>
        <time>2016-10-04T09:29:16Z</time>
      </trkpt>
      <trkpt lat="43.26817" lon="5.49116">
        <ele>316.06</ele>
        <time>2016-10-04T09:29:26Z</time>
      </trkpt>
      <trkpt lat="43.26817" lon="5.4911">
        <ele>313.99</ele>
        <time>2016-10-04T09:29:37Z</time>
      </trkpt>
      <trkpt lat="43.26817" lon="5.49109">
        <ele>312.56</ele>
        <time>2016-10-04T09:30:17Z</time>
      </trkpt>
      <trkpt lat="43.26818" lon="5.4911">
        <ele>312.43</ele>
        <time>2016-10-04T09:30:36Z</time>
      </trkpt>
      <trkpt lat="43.26819" lon="5.49107">
        <ele>312.1</ele>
        <time>2016-10-04T09:30:47Z</time>
      </trkpt>
      <trkpt lat="43.26819" lon="5.49103">
        <ele>310.83</ele>
        <time>2016-10-04T09:30:56Z</time>
      </trkpt>
      <trkpt lat="43.26818" lon="5.49089">
        <ele>308.14</ele>
        <time>2016-10-04T09:31:19Z</time>
      </trkpt>
      <trkpt lat="43.26818" lon="5.4908">
        <ele>307.42</ele>
        <time>2016-10-04T09:31:28Z</time>
      </trkpt>
      <trkpt lat="43.26817" lon="5.49068">
        <ele>304.96</ele>
        <time>2016-10-04T09:31:39Z</time>
      </trkpt>
      <trkpt lat="43.26815" lon="5.49061">
        <ele>303.51</ele>
        <time>2016-10-04T09:31:48Z</time>
      </trkpt>
      <trkpt lat="43.26817" lon="5.4905">
        <ele>302</ele>
        <time>2016-10-04T09:31:58Z</time>
      </trkpt>
      <trkpt lat="43.26818" lon="5.49044">
        <ele>300.57</ele>
        <time>2016-10-04T09:32:03Z</time>
      </trkpt>
      <trkpt lat="43.26822" lon="5.49031">
        <ele>298.58</ele>
        <time>2016-10-04T09:32:14Z</time>
      </trkpt>
      <trkpt lat="43.26822" lon="5.49028">
        <ele>298.71</ele>
        <time>2016-10-04T09:32:24Z</time>
      </trkpt>
      <trkpt lat="43.26822" lon="5.49029">
        <ele>298.99</ele>
        <time>2016-10-04T09:32:38Z</time>
      </trkpt>
      <trkpt lat="43.26826" lon="5.49026">
        <ele>298.78</ele>
        <time>2016-10-04T09:32:49Z</time>
      </trkpt>
      <trkpt lat="43.26829" lon="5.49022">
        <ele>298.65</ele>
        <time>2016-10-04T09:32:57Z</time>
      </trkpt>
      <trkpt lat="43.26829" lon="5.49023">
        <ele>298.62</ele>
        <time>2016-10-04T09:33:06Z</time>
      </trkpt>
      <trkpt lat="43.26831" lon="5.49022">
        <ele>297.93</ele>
        <time>2016-10-04T09:33:14Z</time>
      </trkpt>
      <trkpt lat="43.26832" lon="5.49018">
        <ele>297.17</ele>
        <time>2016-10-04T09:33:22Z</time>
      </trkpt>
      <trkpt lat="43.26838" lon="5.49013">
        <ele>295.49</ele>
        <time>2016-10-04T09:33:32Z</time>
      </trkpt>
      <trkpt lat="43.2684" lon="5.49007">
        <ele>293.98</ele>
        <time>2016-10-04T09:33:40Z</time>
      </trkpt>
      <trkpt lat="43.26842" lon="5.49005">
        <ele>293.3</ele>
        <time>2016-10-04T09:33:49Z</time>
      </trkpt>
      <trkpt lat="43.2684" lon="5.49005">
        <ele>292.8</ele>
        <time>2016-10-04T09:34:04Z</time>
      </trkpt>
      <trkpt lat="43.26846" lon="5.49002">
        <ele>292.21</ele>
        <time>2016-10-04T09:34:13Z</time>
      </trkpt>
      <trkpt lat="43.2685" lon="5.48999">
        <ele>290.83</ele>
        <time>2016-10-04T09:34:22Z</time>
      </trkpt>
      <trkpt lat="43.26853" lon="5.48995">
        <ele>290.07</ele>
        <time>2016-10-04T09:34:30Z</time>
      </trkpt>
      <trkpt lat="43.26857" lon="5.4899">
        <ele>288.44</ele>
        <time>2016-10-04T09:34:41Z</time>
      </trkpt>
      <trkpt lat="43.2686" lon="5.48991">
        <ele>287.85</ele>
        <time>2016-10-04T09:34:53Z</time>
      </trkpt>
      <trkpt lat="43.26866" lon="5.48996">
        <ele>285.97</ele>
        <time>2016-10-04T09:35:03Z</time>
      </trkpt>
      <trkpt lat="43.26871" lon="5.48998">
        <ele>283.69</ele>
        <time>2016-10-04T09:35:12Z</time>
      </trkpt>
      <trkpt lat="43.26873" lon="5.48996">
        <ele>281.75</ele>
        <time>2016-10-04T09:35:25Z</time>
      </trkpt>
      <trkpt lat="43.2688" lon="5.48998">
        <ele>279.78</ele>
        <time>2016-10-04T09:35:36Z</time>
      </trkpt>
      <trkpt lat="43.26883" lon="5.48998">
        <ele>277.93</ele>
        <time>2016-10-04T09:35:46Z</time>
      </trkpt>
      <trkpt lat="43.26887" lon="5.48998">
        <ele>276.33</ele>
        <time>2016-10-04T09:35:57Z</time>
      </trkpt>
      <trkpt lat="43.26891" lon="5.48999">
        <ele>275.65</ele>
        <time>2016-10-04T09:36:18Z</time>
      </trkpt>
      <trkpt lat="43.26895" lon="5.49002">
        <ele>274.31</ele>
        <time>2016-10-04T09:36:25Z</time>
      </trkpt>
      <trkpt lat="43.26898" lon="5.49003">
        <ele>271.45</ele>
        <time>2016-10-04T09:36:36Z</time>
      </trkpt>
      <trkpt lat="43.26902" lon="5.49004">
        <ele>270.27</ele>
        <time>2016-10-04T09:36:44Z</time>
      </trkpt>
      <trkpt lat="43.26904" lon="5.49005">
        <ele>268.6</ele>
        <time>2016-10-04T09:36:54Z</time>
      </trkpt>
      <trkpt lat="43.26908" lon="5.49009">
        <ele>267.79</ele>
        <time>2016-10-04T09:37:09Z</time>
      </trkpt>
      <trkpt lat="43.2691" lon="5.49015">
        <ele>266.15</ele>
        <time>2016-10-04T09:37:18Z</time>
      </trkpt>
      <trkpt lat="43.26911" lon="5.49015">
        <ele>264.74</ele>
        <time>2016-10-04T09:37:32Z</time>
      </trkpt>
      <trkpt lat="43.26915" lon="5.49015">
        <ele>264.03</ele>
        <time>2016-10-04T09:37:40Z</time>
      </trkpt>
      <trkpt lat="43.26921" lon="5.49015">
        <ele>261.74</ele>
        <time>2016-10-04T09:37:50Z</time>
      </trkpt>
      <trkpt lat="43.26924" lon="5.49014">
        <ele>259.57</ele>
        <time>2016-10-04T09:37:59Z</time>
      </trkpt>
      <trkpt lat="43.26927" lon="5.49016">
        <ele>258.91</ele>
        <time>2016-10-04T09:38:07Z</time>
      </trkpt>
      <trkpt lat="43.26927" lon="5.49017">
        <ele>257.84</ele>
        <time>2016-10-04T09:38:15Z</time>
      </trkpt>
      <trkpt lat="43.26926" lon="5.49017">
        <ele>257.75</ele>
        <time>2016-10-04T09:38:31Z</time>
      </trkpt>
      <trkpt lat="43.26931" lon="5.49021">
        <ele>257.16</ele>
        <time>2016-10-04T09:38:40Z</time>
      </trkpt>
      <trkpt lat="43.26931" lon="5.49021">
        <ele>257.05</ele>
        <time>2016-10-04T09:38:41Z</time>
      </trkpt>
      <trkpt lat="43.26938" lon="5.49029">
        <ele>255.69</ele>
        <time>2016-10-04T09:38:49Z</time>
      </trkpt>
      <trkpt lat="43.26944" lon="5.4903">
        <ele>254.52</ele>
        <time>2016-10-04T09:38:57Z</time>
      </trkpt>
      <trkpt lat="43.2695" lon="5.49034">
        <ele>252.87</ele>
        <time>2016-10-04T09:39:05Z</time>
      </trkpt>
      <trkpt lat="43.2696" lon="5.49039">
        <ele>251.03</ele>
        <time>2016-10-04T09:39:15Z</time>
      </trkpt>
      <trkpt lat="43.26966" lon="5.4904">
        <ele>250.33</ele>
        <time>2016-10-04T09:39:21Z</time>
      </trkpt>
      <trkpt lat="43.26969" lon="5.49039">
        <ele>249.11</ele>
        <time>2016-10-04T09:39:30Z</time>
      </trkpt>
      <trkpt lat="43.26971" lon="5.49039">
        <ele>248.86</ele>
        <time>2016-10-04T09:39:32Z</time>
      </trkpt>
      <trkpt lat="43.2698" lon="5.49037">
        <ele>247.83</ele>
        <time>2016-10-04T09:39:42Z</time>
      </trkpt>
      <trkpt lat="43.26989" lon="5.49032">
        <ele>247.61</ele>
        <time>2016-10-04T09:39:52Z</time>
      </trkpt>
      <trkpt lat="43.26991" lon="5.4903">
        <ele>247.56</ele>
        <time>2016-10-04T09:39:54Z</time>
      </trkpt>
      <trkpt lat="43.26998" lon="5.49023">
        <ele>246.77</ele>
        <time>2016-10-04T09:40:04Z</time>
      </trkpt>
      <trkpt lat="43.27" lon="5.4902">
        <ele>245.56</ele>
        <time>2016-10-04T09:40:14Z</time>
      </trkpt>
      <trkpt lat="43.27002" lon="5.49017">
        <ele>245.04</ele>
        <time>2016-10-04T09:40:21Z</time>
      </trkpt>
      <trkpt lat="43.2701" lon="5.4901">
        <ele>243.46</ele>
        <time>2016-10-04T09:40:31Z</time>
      </trkpt>
      <trkpt lat="43.27011" lon="5.49004">
        <ele>242.32</ele>
        <time>2016-10-04T09:40:39Z</time>
      </trkpt>
      <trkpt lat="43.27011" lon="5.49001">
        <ele>241.01</ele>
        <time>2016-10-04T09:40:49Z</time>
      </trkpt>
      <trkpt lat="43.27011" lon="5.48993">
        <ele>239.16</ele>
        <time>2016-10-04T09:40:59Z</time>
      </trkpt>
      <trkpt lat="43.27015" lon="5.48986">
        <ele>237.53</ele>
        <time>2016-10-04T09:41:09Z</time>
      </trkpt>
      <trkpt lat="43.27014" lon="5.48985">
        <ele>236.3</ele>
        <time>2016-10-04T09:41:24Z</time>
      </trkpt>
      <trkpt lat="43.27016" lon="5.48977">
        <ele>235.38</ele>
        <time>2016-10-04T09:41:33Z</time>
      </trkpt>
      <trkpt lat="43.27018" lon="5.48966">
        <ele>233.84</ele>
        <time>2016-10-04T09:41:45Z</time>
      </trkpt>
      <trkpt lat="43.2702" lon="5.48955">
        <ele>231.57</ele>
        <time>2016-10-04T09:41:56Z</time>
      </trkpt>
      <trkpt lat="43.27022" lon="5.48946">
        <ele>229.09</ele>
        <time>2016-10-04T09:42:08Z</time>
      </trkpt>
      <trkpt lat="43.27025" lon="5.48939">
        <ele>228.15</ele>
        <time>2016-10-04T09:42:17Z</time>
      </trkpt>
      <trkpt lat="43.27027" lon="5.48931">
        <ele>227.02</ele>
        <time>2016-10-04T09:42:25Z</time>
      </trkpt>
      <trkpt lat="43.27028" lon="5.48924">
        <ele>225.1</ele>
        <time>2016-10-04T09:42:33Z</time>
      </trkpt>
      <trkpt lat="43.27025" lon="5.48925">
        <ele>224.07</ele>
        <time>2016-10-04T09:42:39Z</time>
      </trkpt>
      <trkpt lat="43.27014" lon="5.48933">
        <ele>222.62</ele>
        <time>2016-10-04T09:42:50Z</time>
      </trkpt>
      <trkpt lat="43.27005" lon="5.48946">
        <ele>222.74</ele>
        <time>2016-10-04T09:43:01Z</time>
      </trkpt>
      <trkpt lat="43.27" lon="5.48956">
        <ele>222.75</ele>
        <time>2016-10-04T09:43:10Z</time>
      </trkpt>
      <trkpt lat="43.26991" lon="5.48963">
        <ele>222.21</ele>
        <time>2016-10-04T09:43:19Z</time>
      </trkpt>
      <trkpt lat="43.26982" lon="5.48964">
        <ele>220.75</ele>
        <time>2016-10-04T09:43:28Z</time>
      </trkpt>
      <trkpt lat="43.26981" lon="5.48965">
        <ele>220.53</ele>
        <time>2016-10-04T09:43:29Z</time>
      </trkpt>
      <trkpt lat="43.26971" lon="5.48974">
        <ele>218.99</ele>
        <time>2016-10-04T09:43:38Z</time>
      </trkpt>
      <trkpt lat="43.26965" lon="5.48976">
        <ele>218.55</ele>
        <time>2016-10-04T09:43:43Z</time>
      </trkpt>
      <trkpt lat="43.26956" lon="5.48971">
        <ele>218.15</ele>
        <time>2016-10-04T09:43:51Z</time>
      </trkpt>
      <trkpt lat="43.26952" lon="5.48968">
        <ele>216.63</ele>
        <time>2016-10-04T09:43:59Z</time>
      </trkpt>
      <trkpt lat="43.26951" lon="5.48967">
        <ele>216.37</ele>
        <time>2016-10-04T09:44:01Z</time>
      </trkpt>
      <trkpt lat="43.26946" lon="5.48953">
        <ele>215.38</ele>
        <time>2016-10-04T09:44:10Z</time>
      </trkpt>
      <trkpt lat="43.26943" lon="5.48947">
        <ele>214.58</ele>
        <time>2016-10-04T09:44:16Z</time>
      </trkpt>
      <trkpt lat="43.26941" lon="5.48944">
        <ele>214.05</ele>
        <time>2016-10-04T09:44:19Z</time>
      </trkpt>
      <trkpt lat="43.26932" lon="5.48938">
        <ele>212.13</ele>
        <time>2016-10-04T09:44:29Z</time>
      </trkpt>
      <trkpt lat="43.26926" lon="5.48933">
        <ele>210.53</ele>
        <time>2016-10-04T09:44:37Z</time>
      </trkpt>
      <trkpt lat="43.26917" lon="5.48929">
        <ele>208.16</ele>
        <time>2016-10-04T09:44:48Z</time>
      </trkpt>
      <trkpt lat="43.26915" lon="5.48928">
        <ele>207.6</ele>
        <time>2016-10-04T09:44:50Z</time>
      </trkpt>
      <trkpt lat="43.26911" lon="5.48926">
        <ele>205.36</ele>
        <time>2016-10-04T09:44:58Z</time>
      </trkpt>
      <trkpt lat="43.2691" lon="5.4892">
        <ele>204.44</ele>
        <time>2016-10-04T09:45:10Z</time>
      </trkpt>
      <trkpt lat="43.26911" lon="5.48917">
        <ele>203.92</ele>
        <time>2016-10-04T09:45:19Z</time>
      </trkpt>
      <trkpt lat="43.26906" lon="5.48912">
        <ele>204.45</ele>
        <time>2016-10-04T09:45:28Z</time>
      </trkpt>
      <trkpt lat="43.26903" lon="5.48911">
        <ele>205.02</ele>
        <time>2016-10-04T09:45:37Z</time>
      </trkpt>
      <trkpt lat="43.26902" lon="5.48911">
        <ele>205.14</ele>
        <time>2016-10-04T09:45:48Z</time>
      </trkpt>
      <trkpt lat="43.26903" lon="5.48912">
        <ele>205.14</ele>
        <time>2016-10-04T09:46:03Z</time>
      </trkpt>
      <trkpt lat="43.26898" lon="5.48909">
        <ele>205.3</ele>
        <time>2016-10-04T09:46:13Z</time>
      </trkpt>
      <trkpt lat="43.26886" lon="5.48899">
        <ele>206.03</ele>
        <time>2016-10-04T09:46:28Z</time>
      </trkpt>
      <trkpt lat="43.26878" lon="5.48888">
        <ele>206.78</ele>
        <time>2016-10-04T09:46:38Z</time>
      </trkpt>
      <trkpt lat="43.26874" lon="5.48882">
        <ele>207.62</ele>
        <time>2016-10-04T09:46:45Z</time>
      </trkpt>
      <trkpt lat="43.26866" lon="5.48873">
        <ele>208.66</ele>
        <time>2016-10-04T09:46:57Z</time>
      </trkpt>
      <trkpt lat="43.26857" lon="5.48863">
        <ele>209.01</ele>
        <time>2016-10-04T09:47:07Z</time>
      </trkpt>
      <trkpt lat="43.26849" lon="5.48856">
        <ele>209.07</ele>
        <time>2016-10-04T09:47:15Z</time>
      </trkpt>
      <trkpt lat="43.2684" lon="5.48849">
        <ele>209.43</ele>
        <time>2016-10-04T09:47:24Z</time>
      </trkpt>
      <trkpt lat="43.26836" lon="5.4884">
        <ele>209.94</ele>
        <time>2016-10-04T09:47:32Z</time>
      </trkpt>
      <trkpt lat="43.26835" lon="5.4883">
        <ele>210.73</ele>
        <time>2016-10-04T09:47:40Z</time>
      </trkpt>
      <trkpt lat="43.26833" lon="5.48815">
        <ele>210.81</ele>
        <time>2016-10-04T09:47:51Z</time>
      </trkpt>
      <trkpt lat="43.26834" lon="5.48804">
        <ele>212.16</ele>
        <time>2016-10-04T09:48:00Z</time>
      </trkpt>
      <trkpt lat="43.26835" lon="5.48802">
        <ele>212.34</ele>
        <time>2016-10-04T09:48:02Z</time>
      </trkpt>
      <trkpt lat="43.26839" lon="5.48794">
        <ele>213.18</ele>
        <time>2016-10-04T09:48:09Z</time>
      </trkpt>
      <trkpt lat="43.26842" lon="5.48788">
        <ele>213.96</ele>
        <time>2016-10-04T09:48:14Z</time>
      </trkpt>
      <trkpt lat="43.26842" lon="5.48777">
        <ele>214.69</ele>
        <time>2016-10-04T09:48:21Z</time>
      </trkpt>
      <trkpt lat="43.26838" lon="5.48764">
        <ele>215.54</ele>
        <time>2016-10-04T09:48:30Z</time>
      </trkpt>
      <trkpt lat="43.26834" lon="5.48751">
        <ele>216.64</ele>
        <time>2016-10-04T09:48:39Z</time>
      </trkpt>
      <trkpt lat="43.26829" lon="5.48743">
        <ele>216.65</ele>
        <time>2016-10-04T09:48:47Z</time>
      </trkpt>
      <trkpt lat="43.26824" lon="5.48732">
        <ele>216.76</ele>
        <time>2016-10-04T09:48:58Z</time>
      </trkpt>
      <trkpt lat="43.26816" lon="5.48723">
        <ele>217.89</ele>
        <time>2016-10-04T09:49:08Z</time>
      </trkpt>
      <trkpt lat="43.2681" lon="5.48716">
        <ele>218.72</ele>
        <time>2016-10-04T09:49:16Z</time>
      </trkpt>
      <trkpt lat="43.26809" lon="5.48714">
        <ele>218.87</ele>
        <time>2016-10-04T09:49:18Z</time>
      </trkpt>
      <trkpt lat="43.26804" lon="5.48703">
        <ele>219.78</ele>
        <time>2016-10-04T09:49:28Z</time>
      </trkpt>
      <trkpt lat="43.26802" lon="5.487">
        <ele>220.06</ele>
        <time>2016-10-04T09:49:31Z</time>
      </trkpt>
      <trkpt lat="43.268" lon="5.48695">
        <ele>220.36</ele>
        <time>2016-10-04T09:49:39Z</time>
      </trkpt>
      <trkpt lat="43.26796" lon="5.48689">
        <ele>220.74</ele>
        <time>2016-10-04T09:49:44Z</time>
      </trkpt>
      <trkpt lat="43.2679" lon="5.48682">
        <ele>220.93</ele>
        <time>2016-10-04T09:49:52Z</time>
      </trkpt>
      <trkpt lat="43.26786" lon="5.48672">
        <ele>221.69</ele>
        <time>2016-10-04T09:50:01Z</time>
      </trkpt>
      <trkpt lat="43.26783" lon="5.48667">
        <ele>222.44</ele>
        <time>2016-10-04T09:50:08Z</time>
      </trkpt>
      <trkpt lat="43.26782" lon="5.48666">
        <ele>222.51</ele>
        <time>2016-10-04T09:50:09Z</time>
      </trkpt>
      <trkpt lat="43.26773" lon="5.48652">
        <ele>223.23</ele>
        <time>2016-10-04T09:50:21Z</time>
      </trkpt>
      <trkpt lat="43.26764" lon="5.48644">
        <ele>224.31</ele>
        <time>2016-10-04T09:50:30Z</time>
      </trkpt>
      <trkpt lat="43.26759" lon="5.48638">
        <ele>224.26</ele>
        <time>2016-10-04T09:50:38Z</time>
      </trkpt>
      <trkpt lat="43.26758" lon="5.48636">
        <ele>224.07</ele>
        <time>2016-10-04T09:50:40Z</time>
      </trkpt>
      <trkpt lat="43.26755" lon="5.48626">
        <ele>223.32</ele>
        <time>2016-10-04T09:50:50Z</time>
      </trkpt>
      <trkpt lat="43.2675" lon="5.48614">
        <ele>224.89</ele>
        <time>2016-10-04T09:51:02Z</time>
      </trkpt>
      <trkpt lat="43.26745" lon="5.48603">
        <ele>226.19</ele>
        <time>2016-10-04T09:51:11Z</time>
      </trkpt>
      <trkpt lat="43.26742" lon="5.486">
        <ele>227</ele>
        <time>2016-10-04T09:51:19Z</time>
      </trkpt>
      <trkpt lat="43.26739" lon="5.48596">
        <ele>227.19</ele>
        <time>2016-10-04T09:51:23Z</time>
      </trkpt>
      <trkpt lat="43.26731" lon="5.48583">
        <ele>226.09</ele>
        <time>2016-10-04T09:51:34Z</time>
      </trkpt>
      <trkpt lat="43.26727" lon="5.48573">
        <ele>226.1</ele>
        <time>2016-10-04T09:51:42Z</time>
      </trkpt>
      <trkpt lat="43.26724" lon="5.48564">
        <ele>227.13</ele>
        <time>2016-10-04T09:51:50Z</time>
      </trkpt>
      <trkpt lat="43.26719" lon="5.48551">
        <ele>229.31</ele>
        <time>2016-10-04T09:52:03Z</time>
      </trkpt>
      <trkpt lat="43.26716" lon="5.4854">
        <ele>230.78</ele>
        <time>2016-10-04T09:52:12Z</time>
      </trkpt>
      <trkpt lat="43.26713" lon="5.48533">
        <ele>231.57</ele>
        <time>2016-10-04T09:52:19Z</time>
      </trkpt>
      <trkpt lat="43.26708" lon="5.48524">
        <ele>232.48</ele>
        <time>2016-10-04T09:52:28Z</time>
      </trkpt>
      <trkpt lat="43.26701" lon="5.48516">
        <ele>233.84</ele>
        <time>2016-10-04T09:52:38Z</time>
      </trkpt>
      <trkpt lat="43.26694" lon="5.48508">
        <ele>234.86</ele>
        <time>2016-10-04T09:52:47Z</time>
      </trkpt>
      <trkpt lat="43.26686" lon="5.485">
        <ele>234.91</ele>
        <time>2016-10-04T09:52:56Z</time>
      </trkpt>
      <trkpt lat="43.26678" lon="5.48493">
        <ele>235.04</ele>
        <time>2016-10-04T09:53:05Z</time>
      </trkpt>
      <trkpt lat="43.26676" lon="5.48488">
        <ele>235.1</ele>
        <time>2016-10-04T09:53:09Z</time>
      </trkpt>
      <trkpt lat="43.26669" lon="5.48481">
        <ele>235.37</ele>
        <time>2016-10-04T09:53:18Z</time>
      </trkpt>
      <trkpt lat="43.26662" lon="5.48473">
        <ele>235.75</ele>
        <time>2016-10-04T09:53:27Z</time>
      </trkpt>
      <trkpt lat="43.26656" lon="5.48462">
        <ele>236.19</ele>
        <time>2016-10-04T09:53:36Z</time>
      </trkpt>
      <trkpt lat="43.26651" lon="5.48451">
        <ele>236.5</ele>
        <time>2016-10-04T09:53:47Z</time>
      </trkpt>
      <trkpt lat="43.26645" lon="5.48441">
        <ele>238.16</ele>
        <time>2016-10-04T09:53:58Z</time>
      </trkpt>
      <trkpt lat="43.26641" lon="5.48438">
        <ele>238.79</ele>
        <time>2016-10-04T09:54:03Z</time>
      </trkpt>
      <trkpt lat="43.26631" lon="5.48435">
        <ele>238.98</ele>
        <time>2016-10-04T09:54:13Z</time>
      </trkpt>
      <trkpt lat="43.26627" lon="5.48433">
        <ele>239.73</ele>
        <time>2016-10-04T09:54:19Z</time>
      </trkpt>
      <trkpt lat="43.26625" lon="5.48431">
        <ele>240.15</ele>
        <time>2016-10-04T09:54:22Z</time>
      </trkpt>
      <trkpt lat="43.26622" lon="5.48423">
        <ele>241.24</ele>
        <time>2016-10-04T09:54:30Z</time>
      </trkpt>
      <trkpt lat="43.26622" lon="5.48422">
        <ele>241.35</ele>
        <time>2016-10-04T09:54:31Z</time>
      </trkpt>
      <trkpt lat="43.2662" lon="5.48418">
        <ele>241.86</ele>
        <time>2016-10-04T09:54:35Z</time>
      </trkpt>
      <trkpt lat="43.26616" lon="5.4841">
        <ele>243.04</ele>
        <time>2016-10-04T09:54:44Z</time>
      </trkpt>
      <trkpt lat="43.26612" lon="5.484">
        <ele>243.91</ele>
        <time>2016-10-04T09:54:54Z</time>
      </trkpt>
      <trkpt lat="43.2661" lon="5.48388">
        <ele>245.16</ele>
        <time>2016-10-04T09:55:04Z</time>
      </trkpt>
      <trkpt lat="43.26607" lon="5.48378">
        <ele>246.19</ele>
        <time>2016-10-04T09:55:12Z</time>
      </trkpt>
      <trkpt lat="43.26603" lon="5.48367">
        <ele>247.4</ele>
        <time>2016-10-04T09:55:23Z</time>
      </trkpt>
      <trkpt lat="43.266" lon="5.48359">
        <ele>249.02</ele>
        <time>2016-10-04T09:55:33Z</time>
      </trkpt>
      <trkpt lat="43.26596" lon="5.48348">
        <ele>250.63</ele>
        <time>2016-10-04T09:55:44Z</time>
      </trkpt>
      <trkpt lat="43.26593" lon="5.48343">
        <ele>251.9</ele>
        <time>2016-10-04T09:55:52Z</time>
      </trkpt>
      <trkpt lat="43.26594" lon="5.48346">
        <ele>252.36</ele>
        <time>2016-10-04T09:56:08Z</time>
      </trkpt>
      <trkpt lat="43.26594" lon="5.48346">
        <ele>252.52</ele>
        <time>2016-10-04T09:56:24Z</time>
      </trkpt>
      <trkpt lat="43.26595" lon="5.48346">
        <ele>252.25</ele>
        <time>2016-10-04T09:56:46Z</time>
      </trkpt>
      <trkpt lat="43.26592" lon="5.48346">
        <ele>252.38</ele>
        <time>2016-10-04T09:57:03Z</time>
      </trkpt>
      <trkpt lat="43.2659" lon="5.48343">
        <ele>252.49</ele>
        <time>2016-10-04T09:57:15Z</time>
      </trkpt>
      <trkpt lat="43.26587" lon="5.48333">
        <ele>252.66</ele>
        <time>2016-10-04T09:57:22Z</time>
      </trkpt>
      <trkpt lat="43.26583" lon="5.48317">
        <ele>252.96</ele>
        <time>2016-10-04T09:57:32Z</time>
      </trkpt>
      <trkpt lat="43.26576" lon="5.48303">
        <ele>253.18</ele>
        <time>2016-10-04T09:57:42Z</time>
      </trkpt>
      <trkpt lat="43.26575" lon="5.48302">
        <ele>253.28</ele>
        <time>2016-10-04T09:57:43Z</time>
      </trkpt>
      <trkpt lat="43.26567" lon="5.48298">
        <ele>254.12</ele>
        <time>2016-10-04T09:57:52Z</time>
      </trkpt>
      <trkpt lat="43.26562" lon="5.48301">
        <ele>255.13</ele>
        <time>2016-10-04T09:57:58Z</time>
      </trkpt>
      <trkpt lat="43.26555" lon="5.48306">
        <ele>255.93</ele>
        <time>2016-10-04T09:58:05Z</time>
      </trkpt>
      <trkpt lat="43.26553" lon="5.48306">
        <ele>256.1</ele>
        <time>2016-10-04T09:58:07Z</time>
      </trkpt>
      <trkpt lat="43.26549" lon="5.48307">
        <ele>256.5</ele>
        <time>2016-10-04T09:58:11Z</time>
      </trkpt>
      <trkpt lat="43.26538" lon="5.48314">
        <ele>257.15</ele>
        <time>2016-10-04T09:58:21Z</time>
      </trkpt>
      <trkpt lat="43.2653" lon="5.48319">
        <ele>258.1</ele>
        <time>2016-10-04T09:58:29Z</time>
      </trkpt>
      <trkpt lat="43.26522" lon="5.48326">
        <ele>258.41</ele>
        <time>2016-10-04T09:58:36Z</time>
      </trkpt>
      <trkpt lat="43.26518" lon="5.48331">
        <ele>258.37</ele>
        <time>2016-10-04T09:58:41Z</time>
      </trkpt>
      <trkpt lat="43.26508" lon="5.48336">
        <ele>258.74</ele>
        <time>2016-10-04T09:58:51Z</time>
      </trkpt>
      <trkpt lat="43.265" lon="5.48339">
        <ele>260.29</ele>
        <time>2016-10-04T09:59:01Z</time>
      </trkpt>
      <trkpt lat="43.26493" lon="5.48337">
        <ele>262.36</ele>
        <time>2016-10-04T09:59:10Z</time>
      </trkpt>
      <trkpt lat="43.26483" lon="5.48326">
        <ele>263.27</ele>
        <time>2016-10-04T09:59:20Z</time>
      </trkpt>
      <trkpt lat="43.26476" lon="5.48312">
        <ele>262.78</ele>
        <time>2016-10-04T09:59:30Z</time>
      </trkpt>
      <trkpt lat="43.26472" lon="5.48299">
        <ele>263.12</ele>
        <time>2016-10-04T09:59:38Z</time>
      </trkpt>
      <trkpt lat="43.26472" lon="5.48285">
        <ele>263.71</ele>
        <time>2016-10-04T09:59:46Z</time>
      </trkpt>
      <trkpt lat="43.26474" lon="5.48274">
        <ele>263.4</ele>
        <time>2016-10-04T09:59:54Z</time>
      </trkpt>
      <trkpt lat="43.26473" lon="5.48271">
        <ele>263.61</ele>
        <time>2016-10-04T09:59:57Z</time>
      </trkpt>
      <trkpt lat="43.26472" lon="5.48268">
        <ele>263.74</ele>
        <time>2016-10-04T09:59:59Z</time>
      </trkpt>
      <trkpt lat="43.26466" lon="5.48258">
        <ele>264.17</ele>
        <time>2016-10-04T10:00:07Z</time>
      </trkpt>
      <trkpt lat="43.26464" lon="5.48255">
        <ele>264.48</ele>
        <time>2016-10-04T10:00:10Z</time>
      </trkpt>
      <trkpt lat="43.2646" lon="5.48248">
        <ele>264.96</ele>
        <time>2016-10-04T10:00:15Z</time>
      </trkpt>
      <trkpt lat="43.26453" lon="5.48238">
        <ele>265.55</ele>
        <time>2016-10-04T10:00:24Z</time>
      </trkpt>
      <trkpt lat="43.26447" lon="5.48228">
        <ele>266.18</ele>
        <time>2016-10-04T10:00:32Z</time>
      </trkpt>
      <trkpt lat="43.2644" lon="5.48217">
        <ele>267.05</ele>
        <time>2016-10-04T10:00:42Z</time>
      </trkpt>
      <trkpt lat="43.26434" lon="5.48207">
        <ele>268</ele>
        <time>2016-10-04T10:00:50Z</time>
      </trkpt>
      <trkpt lat="43.26426" lon="5.48195">
        <ele>268.9</ele>
        <time>2016-10-04T10:00:59Z</time>
      </trkpt>
      <trkpt lat="43.26421" lon="5.48185">
        <ele>269.54</ele>
        <time>2016-10-04T10:01:07Z</time>
      </trkpt>
      <trkpt lat="43.26418" lon="5.48178">
        <ele>270.03</ele>
        <time>2016-10-04T10:01:12Z</time>
      </trkpt>
      <trkpt lat="43.2641" lon="5.48169">
        <ele>270.57</ele>
        <time>2016-10-04T10:01:22Z</time>
      </trkpt>
      <trkpt lat="43.26408" lon="5.48159">
        <ele>271.77</ele>
        <time>2016-10-04T10:01:32Z</time>
      </trkpt>
      <trkpt lat="43.26408" lon="5.48156">
        <ele>272.69</ele>
        <time>2016-10-04T10:01:39Z</time>
      </trkpt>
      <trkpt lat="43.26407" lon="5.48157">
        <ele>273.36</ele>
        <time>2016-10-04T10:01:54Z</time>
      </trkpt>
      <trkpt lat="43.26408" lon="5.48158">
        <ele>273.24</ele>
        <time>2016-10-04T10:02:12Z</time>
      </trkpt>
      <trkpt lat="43.26408" lon="5.48158">
        <ele>273.37</ele>
        <time>2016-10-04T10:02:38Z</time>
      </trkpt>
      <trkpt lat="43.26408" lon="5.48156">
        <ele>273.57</ele>
        <time>2016-10-04T10:02:52Z</time>
      </trkpt>
      <trkpt lat="43.26409" lon="5.48154">
        <ele>273.59</ele>
        <time>2016-10-04T10:02:53Z</time>
      </trkpt>
      <trkpt lat="43.26411" lon="5.4815">
        <ele>273.76</ele>
        <time>2016-10-04T10:03:00Z</time>
      </trkpt>
      <trkpt lat="43.26415" lon="5.48141">
        <ele>273.68</ele>
        <time>2016-10-04T10:03:09Z</time>
      </trkpt>
      <trkpt lat="43.26422" lon="5.48125">
        <ele>273.87</ele>
        <time>2016-10-04T10:03:21Z</time>
      </trkpt>
      <trkpt lat="43.26425" lon="5.48117">
        <ele>274.16</ele>
        <time>2016-10-04T10:03:29Z</time>
      </trkpt>
      <trkpt lat="43.26425" lon="5.48106">
        <ele>275.06</ele>
        <time>2016-10-04T10:03:38Z</time>
      </trkpt>
      <trkpt lat="43.26424" lon="5.4809">
        <ele>276.24</ele>
        <time>2016-10-04T10:03:48Z</time>
      </trkpt>
      <trkpt lat="43.26422" lon="5.48081">
        <ele>276.86</ele>
        <time>2016-10-04T10:03:54Z</time>
      </trkpt>
      <trkpt lat="43.26422" lon="5.4807">
        <ele>277.55</ele>
        <time>2016-10-04T10:04:04Z</time>
      </trkpt>
      <trkpt lat="43.26422" lon="5.48069">
        <ele>277.64</ele>
        <time>2016-10-04T10:04:05Z</time>
      </trkpt>
      <trkpt lat="43.26422" lon="5.48066">
        <ele>277.82</ele>
        <time>2016-10-04T10:04:07Z</time>
      </trkpt>
      <trkpt lat="43.26422" lon="5.48051">
        <ele>278.71</ele>
        <time>2016-10-04T10:04:17Z</time>
      </trkpt>
      <trkpt lat="43.26422" lon="5.4804">
        <ele>279.09</ele>
        <time>2016-10-04T10:04:24Z</time>
      </trkpt>
      <trkpt lat="43.26423" lon="5.48029">
        <ele>279.69</ele>
        <time>2016-10-04T10:04:32Z</time>
      </trkpt>
      <trkpt lat="43.26424" lon="5.4802">
        <ele>280.34</ele>
        <time>2016-10-04T10:04:38Z</time>
      </trkpt>
      <trkpt lat="43.26426" lon="5.48011">
        <ele>281</ele>
        <time>2016-10-04T10:04:46Z</time>
      </trkpt>
      <trkpt lat="43.26429" lon="5.48004">
        <ele>281.31</ele>
        <time>2016-10-04T10:04:52Z</time>
      </trkpt>
      <trkpt lat="43.26432" lon="5.47996">
        <ele>282.44</ele>
        <time>2016-10-04T10:05:01Z</time>
      </trkpt>
      <trkpt lat="43.26435" lon="5.47987">
        <ele>283.45</ele>
        <time>2016-10-04T10:05:10Z</time>
      </trkpt>
      <trkpt lat="43.26436" lon="5.47975">
        <ele>284.32</ele>
        <time>2016-10-04T10:05:17Z</time>
      </trkpt>
      <trkpt lat="43.26438" lon="5.47966">
        <ele>284.57</ele>
        <time>2016-10-04T10:05:25Z</time>
      </trkpt>
      <trkpt lat="43.26443" lon="5.47957">
        <ele>285.26</ele>
        <time>2016-10-04T10:05:35Z</time>
      </trkpt>
      <trkpt lat="43.26446" lon="5.47949">
        <ele>286.11</ele>
        <time>2016-10-04T10:05:43Z</time>
      </trkpt>
      <trkpt lat="43.26449" lon="5.4794">
        <ele>287.07</ele>
        <time>2016-10-04T10:05:51Z</time>
      </trkpt>
      <trkpt lat="43.2645" lon="5.47928">
        <ele>287.83</ele>
        <time>2016-10-04T10:05:59Z</time>
      </trkpt>
      <trkpt lat="43.26452" lon="5.47916">
        <ele>288.49</ele>
        <time>2016-10-04T10:06:08Z</time>
      </trkpt>
      <trkpt lat="43.26453" lon="5.47909">
        <ele>288.79</ele>
        <time>2016-10-04T10:06:16Z</time>
      </trkpt>
      <trkpt lat="43.26455" lon="5.47899">
        <ele>289.26</ele>
        <time>2016-10-04T10:06:24Z</time>
      </trkpt>
      <trkpt lat="43.26457" lon="5.47891">
        <ele>289.72</ele>
        <time>2016-10-04T10:06:31Z</time>
      </trkpt>
      <trkpt lat="43.2646" lon="5.47884">
        <ele>290.52</ele>
        <time>2016-10-04T10:06:38Z</time>
      </trkpt>
      <trkpt lat="43.26465" lon="5.47875">
        <ele>291.41</ele>
        <time>2016-10-04T10:06:46Z</time>
      </trkpt>
      <trkpt lat="43.26469" lon="5.47866">
        <ele>292.21</ele>
        <time>2016-10-04T10:06:54Z</time>
      </trkpt>
      <trkpt lat="43.26474" lon="5.47857">
        <ele>292.95</ele>
        <time>2016-10-04T10:07:01Z</time>
      </trkpt>
      <trkpt lat="43.26482" lon="5.47848">
        <ele>293.37</ele>
        <time>2016-10-04T10:07:11Z</time>
      </trkpt>
      <trkpt lat="43.26486" lon="5.47844">
        <ele>293.64</ele>
        <time>2016-10-04T10:07:16Z</time>
      </trkpt>
      <trkpt lat="43.26489" lon="5.47842">
        <ele>293.94</ele>
        <time>2016-10-04T10:07:19Z</time>
      </trkpt>
      <trkpt lat="43.26494" lon="5.47833">
        <ele>294.45</ele>
        <time>2016-10-04T10:07:28Z</time>
      </trkpt>
      <trkpt lat="43.26496" lon="5.47829">
        <ele>294.62</ele>
        <time>2016-10-04T10:07:31Z</time>
      </trkpt>
      <trkpt lat="43.26496" lon="5.47815">
        <ele>295.36</ele>
        <time>2016-10-04T10:07:40Z</time>
      </trkpt>
      <trkpt lat="43.26496" lon="5.47802">
        <ele>295.97</ele>
        <time>2016-10-04T10:07:50Z</time>
      </trkpt>
      <trkpt lat="43.26496" lon="5.47801">
        <ele>296.05</ele>
        <time>2016-10-04T10:07:51Z</time>
      </trkpt>
      <trkpt lat="43.26494" lon="5.47789">
        <ele>297.17</ele>
        <time>2016-10-04T10:08:00Z</time>
      </trkpt>
      <trkpt lat="43.26494" lon="5.47777">
        <ele>297.99</ele>
        <time>2016-10-04T10:08:08Z</time>
      </trkpt>
      <trkpt lat="43.26493" lon="5.47771">
        <ele>298.44</ele>
        <time>2016-10-04T10:08:15Z</time>
      </trkpt>
      <trkpt lat="43.26493" lon="5.47763">
        <ele>299.02</ele>
        <time>2016-10-04T10:08:24Z</time>
      </trkpt>
      <trkpt lat="43.26492" lon="5.47751">
        <ele>299.1</ele>
        <time>2016-10-04T10:08:31Z</time>
      </trkpt>
      <trkpt lat="43.26492" lon="5.4774">
        <ele>299.45</ele>
        <time>2016-10-04T10:08:39Z</time>
      </trkpt>
      <trkpt lat="43.26492" lon="5.47736">
        <ele>300.02</ele>
        <time>2016-10-04T10:08:46Z</time>
      </trkpt>
      <trkpt lat="43.26492" lon="5.47727">
        <ele>300.11</ele>
        <time>2016-10-04T10:08:54Z</time>
      </trkpt>
      <trkpt lat="43.26491" lon="5.47714">
        <ele>300.32</ele>
        <time>2016-10-04T10:09:02Z</time>
      </trkpt>
      <trkpt lat="43.2649" lon="5.47713">
        <ele>300.37</ele>
        <time>2016-10-04T10:09:04Z</time>
      </trkpt>
      <trkpt lat="43.26482" lon="5.47708">
        <ele>301.03</ele>
        <time>2016-10-04T10:09:13Z</time>
      </trkpt>
      <trkpt lat="43.26478" lon="5.47705">
        <ele>301.85</ele>
        <time>2016-10-04T10:09:20Z</time>
      </trkpt>
      <trkpt lat="43.26474" lon="5.47701">
        <ele>302.53</ele>
        <time>2016-10-04T10:09:28Z</time>
      </trkpt>
      <trkpt lat="43.26472" lon="5.477">
        <ele>303.05</ele>
        <time>2016-10-04T10:09:34Z</time>
      </trkpt>
      <trkpt lat="43.26465" lon="5.4769">
        <ele>303.12</ele>
        <time>2016-10-04T10:09:43Z</time>
      </trkpt>
      <trkpt lat="43.26455" lon="5.47682">
        <ele>303.83</ele>
        <time>2016-10-04T10:09:54Z</time>
      </trkpt>
      <trkpt lat="43.26447" lon="5.47679">
        <ele>304.85</ele>
        <time>2016-10-04T10:10:03Z</time>
      </trkpt>
      <trkpt lat="43.26442" lon="5.47679">
        <ele>305.99</ele>
        <time>2016-10-04T10:10:12Z</time>
      </trkpt>
      <trkpt lat="43.2644" lon="5.47678">
        <ele>306.15</ele>
        <time>2016-10-04T10:10:14Z</time>
      </trkpt>
      <trkpt lat="43.26439" lon="5.47677">
        <ele>306.21</ele>
        <time>2016-10-04T10:10:16Z</time>
      </trkpt>
      <trkpt lat="43.2643" lon="5.47673">
        <ele>306.7</ele>
        <time>2016-10-04T10:10:25Z</time>
      </trkpt>
      <trkpt lat="43.26421" lon="5.47669">
        <ele>307.75</ele>
        <time>2016-10-04T10:10:35Z</time>
      </trkpt>
      <trkpt lat="43.26419" lon="5.47668">
        <ele>307.91</ele>
        <time>2016-10-04T10:10:37Z</time>
      </trkpt>
      <trkpt lat="43.26413" lon="5.47669">
        <ele>308.49</ele>
        <time>2016-10-04T10:10:44Z</time>
      </trkpt>
      <trkpt lat="43.26405" lon="5.47667">
        <ele>309.2</ele>
        <time>2016-10-04T10:10:52Z</time>
      </trkpt>
      <trkpt lat="43.26401" lon="5.47665">
        <ele>309.66</ele>
        <time>2016-10-04T10:10:57Z</time>
      </trkpt>
      <trkpt lat="43.26393" lon="5.47661">
        <ele>310.51</ele>
        <time>2016-10-04T10:11:06Z</time>
      </trkpt>
      <trkpt lat="43.26385" lon="5.47657">
        <ele>311.1</ele>
        <time>2016-10-04T10:11:16Z</time>
      </trkpt>
      <trkpt lat="43.2638" lon="5.47657">
        <ele>312.09</ele>
        <time>2016-10-04T10:11:23Z</time>
      </trkpt>
      <trkpt lat="43.26372" lon="5.47659">
        <ele>313.38</ele>
        <time>2016-10-04T10:11:33Z</time>
      </trkpt>
      <trkpt lat="43.26369" lon="5.47662">
        <ele>313.98</ele>
        <time>2016-10-04T10:11:37Z</time>
      </trkpt>
      <trkpt lat="43.26365" lon="5.47665">
        <ele>314.78</ele>
        <time>2016-10-04T10:11:46Z</time>
      </trkpt>
      <trkpt lat="43.26364" lon="5.47666">
        <ele>314.85</ele>
        <time>2016-10-04T10:11:47Z</time>
      </trkpt>
      <trkpt lat="43.26358" lon="5.47669">
        <ele>315.06</ele>
        <time>2016-10-04T10:11:53Z</time>
      </trkpt>
      <trkpt lat="43.26348" lon="5.47672">
        <ele>315.24</ele>
        <time>2016-10-04T10:12:03Z</time>
      </trkpt>
      <trkpt lat="43.26342" lon="5.4768">
        <ele>316.11</ele>
        <time>2016-10-04T10:12:11Z</time>
      </trkpt>
      <trkpt lat="43.2634" lon="5.47684">
        <ele>316.47</ele>
        <time>2016-10-04T10:12:15Z</time>
      </trkpt>
      <trkpt lat="43.26333" lon="5.47689">
        <ele>316.7</ele>
        <time>2016-10-04T10:12:24Z</time>
      </trkpt>
      <trkpt lat="43.26325" lon="5.47692">
        <ele>317.68</ele>
        <time>2016-10-04T10:12:34Z</time>
      </trkpt>
      <trkpt lat="43.26316" lon="5.47692">
        <ele>319.42</ele>
        <time>2016-10-04T10:12:45Z</time>
      </trkpt>
      <trkpt lat="43.26307" lon="5.47694">
        <ele>320.45</ele>
        <time>2016-10-04T10:12:55Z</time>
      </trkpt>
      <trkpt lat="43.263" lon="5.47696">
        <ele>321.1</ele>
        <time>2016-10-04T10:13:04Z</time>
      </trkpt>
      <trkpt lat="43.26297" lon="5.47695">
        <ele>321.45</ele>
        <time>2016-10-04T10:13:08Z</time>
      </trkpt>
      <trkpt lat="43.26289" lon="5.47695">
        <ele>321.59</ele>
        <time>2016-10-04T10:13:16Z</time>
      </trkpt>
      <trkpt lat="43.26285" lon="5.47695">
        <ele>321.87</ele>
        <time>2016-10-04T10:13:20Z</time>
      </trkpt>
      <trkpt lat="43.2628" lon="5.47691">
        <ele>322.82</ele>
        <time>2016-10-04T10:13:29Z</time>
      </trkpt>
      <trkpt lat="43.26278" lon="5.47691">
        <ele>323.4</ele>
        <time>2016-10-04T10:13:41Z</time>
      </trkpt>
      <trkpt lat="43.26274" lon="5.47685">
        <ele>323.55</ele>
        <time>2016-10-04T10:13:51Z</time>
      </trkpt>
      <trkpt lat="43.26273" lon="5.47681">
        <ele>324.43</ele>
        <time>2016-10-04T10:14:01Z</time>
      </trkpt>
      <trkpt lat="43.26268" lon="5.47675">
        <ele>325.33</ele>
        <time>2016-10-04T10:14:11Z</time>
      </trkpt>
      <trkpt lat="43.26266" lon="5.47673">
        <ele>325.99</ele>
        <time>2016-10-04T10:14:20Z</time>
      </trkpt>
      <trkpt lat="43.26259" lon="5.47669">
        <ele>327.13</ele>
        <time>2016-10-04T10:14:31Z</time>
      </trkpt>
      <trkpt lat="43.26254" lon="5.47661">
        <ele>328.16</ele>
        <time>2016-10-04T10:14:41Z</time>
      </trkpt>
      <trkpt lat="43.26249" lon="5.47659">
        <ele>328.8</ele>
        <time>2016-10-04T10:14:48Z</time>
      </trkpt>
      <trkpt lat="43.26241" lon="5.47655">
        <ele>330.27</ele>
        <time>2016-10-04T10:14:59Z</time>
      </trkpt>
      <trkpt lat="43.26241" lon="5.47653">
        <ele>331.21</ele>
        <time>2016-10-04T10:15:10Z</time>
      </trkpt>
      <trkpt lat="43.26239" lon="5.47651">
        <ele>331.33</ele>
        <time>2016-10-04T10:15:13Z</time>
      </trkpt>
      <trkpt lat="43.26233" lon="5.47644">
        <ele>331.42</ele>
        <time>2016-10-04T10:15:22Z</time>
      </trkpt>
      <trkpt lat="43.26231" lon="5.47645">
        <ele>332.18</ele>
        <time>2016-10-04T10:15:35Z</time>
      </trkpt>
      <trkpt lat="43.2623" lon="5.47644">
        <ele>332.08</ele>
        <time>2016-10-04T10:15:51Z</time>
      </trkpt>
      <trkpt lat="43.26229" lon="5.47643">
        <ele>331.98</ele>
        <time>2016-10-04T10:15:55Z</time>
      </trkpt>
      <trkpt lat="43.26226" lon="5.47635">
        <ele>332.03</ele>
        <time>2016-10-04T10:16:03Z</time>
      </trkpt>
      <trkpt lat="43.26222" lon="5.47628">
        <ele>332.71</ele>
        <time>2016-10-04T10:16:11Z</time>
      </trkpt>
      <trkpt lat="43.26218" lon="5.47622">
        <ele>333.81</ele>
        <time>2016-10-04T10:16:21Z</time>
      </trkpt>
      <trkpt lat="43.26211" lon="5.47614">
        <ele>334.82</ele>
        <time>2016-10-04T10:16:32Z</time>
      </trkpt>
      <trkpt lat="43.26207" lon="5.47606">
        <ele>335.57</ele>
        <time>2016-10-04T10:16:40Z</time>
      </trkpt>
      <trkpt lat="43.26203" lon="5.476">
        <ele>336.25</ele>
        <time>2016-10-04T10:16:47Z</time>
      </trkpt>
      <trkpt lat="43.26197" lon="5.47594">
        <ele>336.7</ele>
        <time>2016-10-04T10:16:55Z</time>
      </trkpt>
      <trkpt lat="43.26193" lon="5.47587">
        <ele>337.5</ele>
        <time>2016-10-04T10:17:02Z</time>
      </trkpt>
      <trkpt lat="43.26187" lon="5.47582">
        <ele>338.31</ele>
        <time>2016-10-04T10:17:10Z</time>
      </trkpt>
      <trkpt lat="43.2618" lon="5.47578">
        <ele>339.03</ele>
        <time>2016-10-04T10:17:20Z</time>
      </trkpt>
      <trkpt lat="43.26179" lon="5.47578">
        <ele>339.98</ele>
        <time>2016-10-04T10:17:30Z</time>
      </trkpt>
      <trkpt lat="43.26178" lon="5.47579">
        <ele>340.33</ele>
        <time>2016-10-04T10:17:41Z</time>
      </trkpt>
      <trkpt lat="43.26178" lon="5.47579">
        <ele>340.47</ele>
        <time>2016-10-04T10:17:54Z</time>
      </trkpt>
      <trkpt lat="43.26178" lon="5.47581">
        <ele>340.52</ele>
        <time>2016-10-04T10:18:12Z</time>
      </trkpt>
      <trkpt lat="43.26177" lon="5.4758">
        <ele>340.54</ele>
        <time>2016-10-04T10:18:25Z</time>
      </trkpt>
      <trkpt lat="43.26176" lon="5.47578">
        <ele>340.57</ele>
        <time>2016-10-04T10:18:46Z</time>
      </trkpt>
      <trkpt lat="43.26176" lon="5.4758">
        <ele>340.38</ele>
        <time>2016-10-04T10:19:01Z</time>
      </trkpt>
      <trkpt lat="43.26176" lon="5.47583">
        <ele>340.57</ele>
        <time>2016-10-04T10:19:09Z</time>
      </trkpt>
      <trkpt lat="43.26173" lon="5.47585">
        <ele>341.53</ele>
        <time>2016-10-04T10:19:19Z</time>
      </trkpt>
      <trkpt lat="43.26167" lon="5.47588">
        <ele>343.92</ele>
        <time>2016-10-04T10:19:33Z</time>
      </trkpt>
      <trkpt lat="43.2616" lon="5.47592">
        <ele>346.21</ele>
        <time>2016-10-04T10:19:46Z</time>
      </trkpt>
      <trkpt lat="43.26155" lon="5.47597">
        <ele>348.38</ele>
        <time>2016-10-04T10:19:58Z</time>
      </trkpt>
      <trkpt lat="43.2615" lon="5.47603">
        <ele>350.43</ele>
        <time>2016-10-04T10:20:10Z</time>
      </trkpt>
      <trkpt lat="43.26146" lon="5.47607">
        <ele>352.11</ele>
        <time>2016-10-04T10:20:21Z</time>
      </trkpt>
      <trkpt lat="43.26138" lon="5.47612">
        <ele>354.21</ele>
        <time>2016-10-04T10:20:35Z</time>
      </trkpt>
      <trkpt lat="43.26136" lon="5.47614">
        <ele>355.72</ele>
        <time>2016-10-04T10:20:47Z</time>
      </trkpt>
      <trkpt lat="43.2613" lon="5.47615">
        <ele>356.13</ele>
        <time>2016-10-04T10:20:59Z</time>
      </trkpt>
      <trkpt lat="43.2612" lon="5.47614">
        <ele>356.81</ele>
        <time>2016-10-04T10:21:11Z</time>
      </trkpt>
      <trkpt lat="43.26118" lon="5.47613">
        <ele>356.72</ele>
        <time>2016-10-04T10:21:14Z</time>
      </trkpt>
      <trkpt lat="43.26109" lon="5.47614">
        <ele>356.74</ele>
        <time>2016-10-04T10:21:24Z</time>
      </trkpt>
      <trkpt lat="43.26103" lon="5.47615">
        <ele>357.09</ele>
        <time>2016-10-04T10:21:34Z</time>
      </trkpt>
      <trkpt lat="43.26101" lon="5.47614">
        <ele>357.04</ele>
        <time>2016-10-04T10:21:39Z</time>
      </trkpt>
      <trkpt lat="43.26091" lon="5.47612">
        <ele>356.14</ele>
        <time>2016-10-04T10:21:49Z</time>
      </trkpt>
      <trkpt lat="43.26084" lon="5.47611">
        <ele>356.34</ele>
        <time>2016-10-04T10:21:56Z</time>
      </trkpt>
      <trkpt lat="43.26078" lon="5.47619">
        <ele>356.86</ele>
        <time>2016-10-04T10:22:05Z</time>
      </trkpt>
      <trkpt lat="43.26075" lon="5.47629">
        <ele>357.58</ele>
        <time>2016-10-04T10:22:14Z</time>
      </trkpt>
      <trkpt lat="43.26072" lon="5.47638">
        <ele>358.61</ele>
        <time>2016-10-04T10:22:22Z</time>
      </trkpt>
      <trkpt lat="43.26066" lon="5.47645">
        <ele>359.97</ele>
        <time>2016-10-04T10:22:34Z</time>
      </trkpt>
      <trkpt lat="43.26059" lon="5.47651">
        <ele>361.8</ele>
        <time>2016-10-04T10:22:46Z</time>
      </trkpt>
      <trkpt lat="43.26056" lon="5.47653">
        <ele>363.15</ele>
        <time>2016-10-04T10:22:55Z</time>
      </trkpt>
      <trkpt lat="43.26054" lon="5.47659">
        <ele>363.45</ele>
        <time>2016-10-04T10:23:08Z</time>
      </trkpt>
      <trkpt lat="43.26049" lon="5.47661">
        <ele>363.7</ele>
        <time>2016-10-04T10:23:16Z</time>
      </trkpt>
      <trkpt lat="43.26041" lon="5.47665">
        <ele>364.54</ele>
        <time>2016-10-04T10:23:25Z</time>
      </trkpt>
      <trkpt lat="43.26035" lon="5.47663">
        <ele>366.27</ele>
        <time>2016-10-04T10:23:34Z</time>
      </trkpt>
      <trkpt lat="43.26029" lon="5.47661">
        <ele>366.85</ele>
        <time>2016-10-04T10:23:41Z</time>
      </trkpt>
      <trkpt lat="43.26026" lon="5.4766">
        <ele>367.06</ele>
        <time>2016-10-04T10:23:44Z</time>
      </trkpt>
      <trkpt lat="43.26017" lon="5.47661">
        <ele>367.89</ele>
        <time>2016-10-04T10:23:54Z</time>
      </trkpt>
      <trkpt lat="43.2601" lon="5.4766">
        <ele>368.42</ele>
        <time>2016-10-04T10:24:02Z</time>
      </trkpt>
      <trkpt lat="43.26002" lon="5.47658">
        <ele>368.66</ele>
        <time>2016-10-04T10:24:11Z</time>
      </trkpt>
      <trkpt lat="43.25997" lon="5.47658">
        <ele>369.26</ele>
        <time>2016-10-04T10:24:19Z</time>
      </trkpt>
      <trkpt lat="43.25995" lon="5.47658">
        <ele>369.98</ele>
        <time>2016-10-04T10:24:30Z</time>
      </trkpt>
      <trkpt lat="43.25993" lon="5.47658">
        <ele>369.93</ele>
        <time>2016-10-04T10:24:32Z</time>
      </trkpt>
      <trkpt lat="43.2599" lon="5.47658">
        <ele>369.79</ele>
        <time>2016-10-04T10:24:35Z</time>
      </trkpt>
      <trkpt lat="43.25985" lon="5.47658">
        <ele>369.87</ele>
        <time>2016-10-04T10:24:42Z</time>
      </trkpt>
      <trkpt lat="43.25977" lon="5.47662">
        <ele>371.03</ele>
        <time>2016-10-04T10:24:52Z</time>
      </trkpt>
      <trkpt lat="43.2597" lon="5.47665">
        <ele>372.21</ele>
        <time>2016-10-04T10:25:01Z</time>
      </trkpt>
      <trkpt lat="43.2596" lon="5.47666">
        <ele>374.29</ele>
        <time>2016-10-04T10:25:15Z</time>
      </trkpt>
      <trkpt lat="43.25949" lon="5.47668">
        <ele>376.47</ele>
        <time>2016-10-04T10:25:29Z</time>
      </trkpt>
      <trkpt lat="43.25943" lon="5.4767">
        <ele>377.85</ele>
        <time>2016-10-04T10:25:41Z</time>
      </trkpt>
      <trkpt lat="43.25935" lon="5.47671">
        <ele>378.58</ele>
        <time>2016-10-04T10:25:52Z</time>
      </trkpt>
      <trkpt lat="43.25926" lon="5.47672">
        <ele>379.99</ele>
        <time>2016-10-04T10:26:03Z</time>
      </trkpt>
      <trkpt lat="43.25919" lon="5.47681">
        <ele>380.19</ele>
        <time>2016-10-04T10:26:12Z</time>
      </trkpt>
      <trkpt lat="43.25915" lon="5.47692">
        <ele>379.37</ele>
        <time>2016-10-04T10:26:21Z</time>
      </trkpt>
      <trkpt lat="43.25909" lon="5.47696">
        <ele>379.94</ele>
        <time>2016-10-04T10:26:31Z</time>
      </trkpt>
      <trkpt lat="43.25902" lon="5.47702">
        <ele>381.44</ele>
        <time>2016-10-04T10:26:42Z</time>
      </trkpt>
      <trkpt lat="43.259" lon="5.47705">
        <ele>381.81</ele>
        <time>2016-10-04T10:26:45Z</time>
      </trkpt>
      <trkpt lat="43.25895" lon="5.47714">
        <ele>382.61</ele>
        <time>2016-10-04T10:26:54Z</time>
      </trkpt>
      <trkpt lat="43.25892" lon="5.47717">
        <ele>383.02</ele>
        <time>2016-10-04T10:27:01Z</time>
      </trkpt>
      <trkpt lat="43.25886" lon="5.47722">
        <ele>383.6</ele>
        <time>2016-10-04T10:27:10Z</time>
      </trkpt>
      <trkpt lat="43.2588" lon="5.47726">
        <ele>384.65</ele>
        <time>2016-10-04T10:27:20Z</time>
      </trkpt>
      <trkpt lat="43.25874" lon="5.4773">
        <ele>385.6</ele>
        <time>2016-10-04T10:27:28Z</time>
      </trkpt>
      <trkpt lat="43.25866" lon="5.47734">
        <ele>387.24</ele>
        <time>2016-10-04T10:27:38Z</time>
      </trkpt>
      <trkpt lat="43.25865" lon="5.47735">
        <ele>387.54</ele>
        <time>2016-10-04T10:27:40Z</time>
      </trkpt>
      <trkpt lat="43.25857" lon="5.47736">
        <ele>388.41</ele>
        <time>2016-10-04T10:27:49Z</time>
      </trkpt>
      <trkpt lat="43.25855" lon="5.47738">
        <ele>388.67</ele>
        <time>2016-10-04T10:27:51Z</time>
      </trkpt>
      <trkpt lat="43.25849" lon="5.47742">
        <ele>389.34</ele>
        <time>2016-10-04T10:28:00Z</time>
      </trkpt>
      <trkpt lat="43.25841" lon="5.47743">
        <ele>390.49</ele>
        <time>2016-10-04T10:28:10Z</time>
      </trkpt>
      <trkpt lat="43.2584" lon="5.47742">
        <ele>390.61</ele>
        <time>2016-10-04T10:28:11Z</time>
      </trkpt>
      <trkpt lat="43.25833" lon="5.47744">
        <ele>391.5</ele>
        <time>2016-10-04T10:28:19Z</time>
      </trkpt>
      <trkpt lat="43.25825" lon="5.47746">
        <ele>392.86</ele>
        <time>2016-10-04T10:28:30Z</time>
      </trkpt>
      <trkpt lat="43.25818" lon="5.47748">
        <ele>394.67</ele>
        <time>2016-10-04T10:28:41Z</time>
      </trkpt>
      <trkpt lat="43.25815" lon="5.4775">
        <ele>395.29</ele>
        <time>2016-10-04T10:28:49Z</time>
      </trkpt>
      <trkpt lat="43.2581" lon="5.47751">
        <ele>395.27</ele>
        <time>2016-10-04T10:28:57Z</time>
      </trkpt>
      <trkpt lat="43.25804" lon="5.47756">
        <ele>396.25</ele>
        <time>2016-10-04T10:29:07Z</time>
      </trkpt>
      <trkpt lat="43.25797" lon="5.47762">
        <ele>397.17</ele>
        <time>2016-10-04T10:29:17Z</time>
      </trkpt>
      <trkpt lat="43.2579" lon="5.47767">
        <ele>397.87</ele>
        <time>2016-10-04T10:29:26Z</time>
      </trkpt>
      <trkpt lat="43.25784" lon="5.47772">
        <ele>399.16</ele>
        <time>2016-10-04T10:29:36Z</time>
      </trkpt>
      <trkpt lat="43.25776" lon="5.47772">
        <ele>401.33</ele>
        <time>2016-10-04T10:29:48Z</time>
      </trkpt>
      <trkpt lat="43.25769" lon="5.47771">
        <ele>402.31</ele>
        <time>2016-10-04T10:29:57Z</time>
      </trkpt>
      <trkpt lat="43.25764" lon="5.47775">
        <ele>402.97</ele>
        <time>2016-10-04T10:30:05Z</time>
      </trkpt>
      <trkpt lat="43.25761" lon="5.47778">
        <ele>403.51</ele>
        <time>2016-10-04T10:30:16Z</time>
      </trkpt>
      <trkpt lat="43.25753" lon="5.47783">
        <ele>404.49</ele>
        <time>2016-10-04T10:30:26Z</time>
      </trkpt>
      <trkpt lat="43.25746" lon="5.47785">
        <ele>405.89</ele>
        <time>2016-10-04T10:30:37Z</time>
      </trkpt>
      <trkpt lat="43.25741" lon="5.47784">
        <ele>407.68</ele>
        <time>2016-10-04T10:30:46Z</time>
      </trkpt>
      <trkpt lat="43.25736" lon="5.47788">
        <ele>409.16</ele>
        <time>2016-10-04T10:30:57Z</time>
      </trkpt>
      <trkpt lat="43.25733" lon="5.47788">
        <ele>410.74</ele>
        <time>2016-10-04T10:31:07Z</time>
      </trkpt>
      <trkpt lat="43.25733" lon="5.47791">
        <ele>411.73</ele>
        <time>2016-10-04T10:31:29Z</time>
      </trkpt>
      <trkpt lat="43.25734" lon="5.47788">
        <ele>411.66</ele>
        <time>2016-10-04T10:31:51Z</time>
      </trkpt>
      <trkpt lat="43.25734" lon="5.47789">
        <ele>411.48</ele>
        <time>2016-10-04T10:32:08Z</time>
      </trkpt>
      <trkpt lat="43.25731" lon="5.47792">
        <ele>411.52</ele>
        <time>2016-10-04T10:32:24Z</time>
      </trkpt>
      <trkpt lat="43.25725" lon="5.47794">
        <ele>412.6</ele>
        <time>2016-10-04T10:32:33Z</time>
      </trkpt>
      <trkpt lat="43.25718" lon="5.47795">
        <ele>414.61</ele>
        <time>2016-10-04T10:32:44Z</time>
      </trkpt>
      <trkpt lat="43.2571" lon="5.47798">
        <ele>416.69</ele>
        <time>2016-10-04T10:32:56Z</time>
      </trkpt>
      <trkpt lat="43.25706" lon="5.47803">
        <ele>419.18</ele>
        <time>2016-10-04T10:33:08Z</time>
      </trkpt>
      <trkpt lat="43.25702" lon="5.47807">
        <ele>420.81</ele>
        <time>2016-10-04T10:33:18Z</time>
      </trkpt>
      <trkpt lat="43.25699" lon="5.47811">
        <ele>422.19</ele>
        <time>2016-10-04T10:33:26Z</time>
      </trkpt>
      <trkpt lat="43.25694" lon="5.47814">
        <ele>424.04</ele>
        <time>2016-10-04T10:33:37Z</time>
      </trkpt>
      <trkpt lat="43.25688" lon="5.47818">
        <ele>425.64</ele>
        <time>2016-10-04T10:33:49Z</time>
      </trkpt>
      <trkpt lat="43.25681" lon="5.47822">
        <ele>427.54</ele>
        <time>2016-10-04T10:34:02Z</time>
      </trkpt>
      <trkpt lat="43.25674" lon="5.47827">
        <ele>429.34</ele>
        <time>2016-10-04T10:34:15Z</time>
      </trkpt>
      <trkpt lat="43.25669" lon="5.4783">
        <ele>431.14</ele>
        <time>2016-10-04T10:34:25Z</time>
      </trkpt>
      <trkpt lat="43.25665" lon="5.47834">
        <ele>432.51</ele>
        <time>2016-10-04T10:34:37Z</time>
      </trkpt>
      <trkpt lat="43.25664" lon="5.47837">
        <ele>433.3</ele>
        <time>2016-10-04T10:34:50Z</time>
      </trkpt>
      <trkpt lat="43.2566" lon="5.47842">
        <ele>433.61</ele>
        <time>2016-10-04T10:35:04Z</time>
      </trkpt>
      <trkpt lat="43.25655" lon="5.47846">
        <ele>434.96</ele>
        <time>2016-10-04T10:35:13Z</time>
      </trkpt>
      <trkpt lat="43.25651" lon="5.47851">
        <ele>436.68</ele>
        <time>2016-10-04T10:35:23Z</time>
      </trkpt>
      <trkpt lat="43.25644" lon="5.47856">
        <ele>437.94</ele>
        <time>2016-10-04T10:35:34Z</time>
      </trkpt>
      <trkpt lat="43.25641" lon="5.47859">
        <ele>439.08</ele>
        <time>2016-10-04T10:35:43Z</time>
      </trkpt>
      <trkpt lat="43.25638" lon="5.47862">
        <ele>439.99</ele>
        <time>2016-10-04T10:35:58Z</time>
      </trkpt>
      <trkpt lat="43.25634" lon="5.47867">
        <ele>442.17</ele>
        <time>2016-10-04T10:36:09Z</time>
      </trkpt>
      <trkpt lat="43.25633" lon="5.47868">
        <ele>444.08</ele>
        <time>2016-10-04T10:36:19Z</time>
      </trkpt>
      <trkpt lat="43.25629" lon="5.47872">
        <ele>445.3</ele>
        <time>2016-10-04T10:36:31Z</time>
      </trkpt>
      <trkpt lat="43.25624" lon="5.47879">
        <ele>447.28</ele>
        <time>2016-10-04T10:36:43Z</time>
      </trkpt>
      <trkpt lat="43.25621" lon="5.47884">
        <ele>448.83</ele>
        <time>2016-10-04T10:36:51Z</time>
      </trkpt>
      <trkpt lat="43.25619" lon="5.47889">
        <ele>450.77</ele>
        <time>2016-10-04T10:37:01Z</time>
      </trkpt>
      <trkpt lat="43.25618" lon="5.4789">
        <ele>452.23</ele>
        <time>2016-10-04T10:37:13Z</time>
      </trkpt>
      <trkpt lat="43.25616" lon="5.47894">
        <ele>452.83</ele>
        <time>2016-10-04T10:37:25Z</time>
      </trkpt>
      <trkpt lat="43.25613" lon="5.47899">
        <ele>455.09</ele>
        <time>2016-10-04T10:37:37Z</time>
      </trkpt>
      <trkpt lat="43.25609" lon="5.47905">
        <ele>456.82</ele>
        <time>2016-10-04T10:37:47Z</time>
      </trkpt>
      <trkpt lat="43.25606" lon="5.47912">
        <ele>460.17</ele>
        <time>2016-10-04T10:38:00Z</time>
      </trkpt>
      <trkpt lat="43.25606" lon="5.47914">
        <ele>461.14</ele>
        <time>2016-10-04T10:38:16Z</time>
      </trkpt>
      <trkpt lat="43.25607" lon="5.47916">
        <ele>460.97</ele>
        <time>2016-10-04T10:38:36Z</time>
      </trkpt>
      <trkpt lat="43.25607" lon="5.47916">
        <ele>461.03</ele>
        <time>2016-10-04T10:38:49Z</time>
      </trkpt>
      <trkpt lat="43.25606" lon="5.47915">
        <ele>461.38</ele>
        <time>2016-10-04T10:39:13Z</time>
      </trkpt>
      <trkpt lat="43.2561" lon="5.47921">
        <ele>461.54</ele>
        <time>2016-10-04T10:39:25Z</time>
      </trkpt>
      <trkpt lat="43.25611" lon="5.4793">
        <ele>462.78</ele>
        <time>2016-10-04T10:39:36Z</time>
      </trkpt>
      <trkpt lat="43.25615" lon="5.47939">
        <ele>464.86</ele>
        <time>2016-10-04T10:39:47Z</time>
      </trkpt>
      <trkpt lat="43.25622" lon="5.47946">
        <ele>466.62</ele>
        <time>2016-10-04T10:39:59Z</time>
      </trkpt>
      <trkpt lat="43.25628" lon="5.47953">
        <ele>467.78</ele>
        <time>2016-10-04T10:40:09Z</time>
      </trkpt>
      <trkpt lat="43.25632" lon="5.4796">
        <ele>469.11</ele>
        <time>2016-10-04T10:40:18Z</time>
      </trkpt>
      <trkpt lat="43.25636" lon="5.47966">
        <ele>470.29</ele>
        <time>2016-10-04T10:40:27Z</time>
      </trkpt>
      <trkpt lat="43.25642" lon="5.47975">
        <ele>471.93</ele>
        <time>2016-10-04T10:40:39Z</time>
      </trkpt>
      <trkpt lat="43.25642" lon="5.4798">
        <ele>473.23</ele>
        <time>2016-10-04T10:40:49Z</time>
      </trkpt>
      <trkpt lat="43.25638" lon="5.47982">
        <ele>473.94</ele>
        <time>2016-10-04T10:41:04Z</time>
      </trkpt>
      <trkpt lat="43.25632" lon="5.47982">
        <ele>475.38</ele>
        <time>2016-10-04T10:41:15Z</time>
      </trkpt>
      <trkpt lat="43.2563" lon="5.47982">
        <ele>475.69</ele>
        <time>2016-10-04T10:41:17Z</time>
      </trkpt>
      <trkpt lat="43.25621" lon="5.47979">
        <ele>476.87</ele>
        <time>2016-10-04T10:41:27Z</time>
      </trkpt>
      <trkpt lat="43.25614" lon="5.47978">
        <ele>478.3</ele>
        <time>2016-10-04T10:41:37Z</time>
      </trkpt>
      <trkpt lat="43.25606" lon="5.47978">
        <ele>479.51</ele>
        <time>2016-10-04T10:41:47Z</time>
      </trkpt>
      <trkpt lat="43.256" lon="5.47979">
        <ele>481.09</ele>
        <time>2016-10-04T10:41:57Z</time>
      </trkpt>
      <trkpt lat="43.25594" lon="5.4798">
        <ele>482.24</ele>
        <time>2016-10-04T10:42:07Z</time>
      </trkpt>
      <trkpt lat="43.25587" lon="5.47981">
        <ele>483.35</ele>
        <time>2016-10-04T10:42:17Z</time>
      </trkpt>
      <trkpt lat="43.2558" lon="5.47982">
        <ele>484.13</ele>
        <time>2016-10-04T10:42:26Z</time>
      </trkpt>
      <trkpt lat="43.25573" lon="5.47982">
        <ele>485.88</ele>
        <time>2016-10-04T10:42:35Z</time>
      </trkpt>
      <trkpt lat="43.25563" lon="5.47979">
        <ele>486.87</ele>
        <time>2016-10-04T10:42:47Z</time>
      </trkpt>
      <trkpt lat="43.25562" lon="5.47979">
        <ele>486.96</ele>
        <time>2016-10-04T10:42:48Z</time>
      </trkpt>
      <trkpt lat="43.2556" lon="5.4798">
        <ele>487.18</ele>
        <time>2016-10-04T10:42:50Z</time>
      </trkpt>
      <trkpt lat="43.2555" lon="5.47977">
        <ele>488.3</ele>
        <time>2016-10-04T10:43:00Z</time>
      </trkpt>
      <trkpt lat="43.25542" lon="5.47975">
        <ele>489.39</ele>
        <time>2016-10-04T10:43:09Z</time>
      </trkpt>
      <trkpt lat="43.25535" lon="5.47971">
        <ele>490.6</ele>
        <time>2016-10-04T10:43:18Z</time>
      </trkpt>
      <trkpt lat="43.25529" lon="5.47971">
        <ele>491.56</ele>
        <time>2016-10-04T10:43:26Z</time>
      </trkpt>
      <trkpt lat="43.25522" lon="5.47966">
        <ele>492.81</ele>
        <time>2016-10-04T10:43:36Z</time>
      </trkpt>
      <trkpt lat="43.25517" lon="5.47964">
        <ele>493.41</ele>
        <time>2016-10-04T10:43:43Z</time>
      </trkpt>
      <trkpt lat="43.25511" lon="5.4796">
        <ele>494.93</ele>
        <time>2016-10-04T10:43:53Z</time>
      </trkpt>
      <trkpt lat="43.25504" lon="5.47956">
        <ele>496</ele>
        <time>2016-10-04T10:44:03Z</time>
      </trkpt>
      <trkpt lat="43.25498" lon="5.47954">
        <ele>497.09</ele>
        <time>2016-10-04T10:44:12Z</time>
      </trkpt>
      <trkpt lat="43.25491" lon="5.47953">
        <ele>498.52</ele>
        <time>2016-10-04T10:44:23Z</time>
      </trkpt>
      <trkpt lat="43.25484" lon="5.47949">
        <ele>499.49</ele>
        <time>2016-10-04T10:44:32Z</time>
      </trkpt>
      <trkpt lat="43.25477" lon="5.47946">
        <ele>500.82</ele>
        <time>2016-10-04T10:44:42Z</time>
      </trkpt>
      <trkpt lat="43.2547" lon="5.47943">
        <ele>502.15</ele>
        <time>2016-10-04T10:44:51Z</time>
      </trkpt>
      <trkpt lat="43.25465" lon="5.47942">
        <ele>503.12</ele>
        <time>2016-10-04T10:44:58Z</time>
      </trkpt>
      <trkpt lat="43.25459" lon="5.47944">
        <ele>505.22</ele>
        <time>2016-10-04T10:45:09Z</time>
      </trkpt>
      <trkpt lat="43.25452" lon="5.47948">
        <ele>507.22</ele>
        <time>2016-10-04T10:45:19Z</time>
      </trkpt>
      <trkpt lat="43.25443" lon="5.47949">
        <ele>509.12</ele>
        <time>2016-10-04T10:45:30Z</time>
      </trkpt>
      <trkpt lat="43.25439" lon="5.47953">
        <ele>510</ele>
        <time>2016-10-04T10:45:39Z</time>
      </trkpt>
      <trkpt lat="43.25439" lon="5.47954">
        <ele>510.54</ele>
        <time>2016-10-04T10:45:50Z</time>
      </trkpt>
      <trkpt lat="43.25437" lon="5.47954">
        <ele>510.55</ele>
        <time>2016-10-04T10:46:09Z</time>
      </trkpt>
      <trkpt lat="43.25436" lon="5.47953">
        <ele>510.62</ele>
        <time>2016-10-04T10:46:17Z</time>
      </trkpt>
      <trkpt lat="43.25438" lon="5.47957">
        <ele>510.7</ele>
        <time>2016-10-04T10:46:21Z</time>
      </trkpt>
      <trkpt lat="43.2544" lon="5.47968">
        <ele>510.53</ele>
        <time>2016-10-04T10:46:31Z</time>
      </trkpt>
      <trkpt lat="43.25439" lon="5.47974">
        <ele>510.72</ele>
        <time>2016-10-04T10:46:39Z</time>
      </trkpt>
      <trkpt lat="43.25439" lon="5.47974">
        <ele>511.16</ele>
        <time>2016-10-04T10:46:50Z</time>
      </trkpt>
      <trkpt lat="43.2544" lon="5.47973">
        <ele>511.01</ele>
        <time>2016-10-04T10:47:09Z</time>
      </trkpt>
      <trkpt lat="43.2544" lon="5.47975">
        <ele>511.2</ele>
        <time>2016-10-04T10:47:30Z</time>
      </trkpt>
      <trkpt lat="43.25441" lon="5.47981">
        <ele>510.91</ele>
        <time>2016-10-04T10:47:39Z</time>
      </trkpt>
      <trkpt lat="43.25442" lon="5.47992">
        <ele>510.8</ele>
        <time>2016-10-04T10:47:48Z</time>
      </trkpt>
      <trkpt lat="43.25444" lon="5.48">
        <ele>511.21</ele>
        <time>2016-10-04T10:47:57Z</time>
      </trkpt>
      <trkpt lat="43.25444" lon="5.48004">
        <ele>511.44</ele>
        <time>2016-10-04T10:48:11Z</time>
      </trkpt>
      <trkpt lat="43.25445" lon="5.48007">
        <ele>511.55</ele>
        <time>2016-10-04T10:48:14Z</time>
      </trkpt>
      <trkpt lat="43.25448" lon="5.48017">
        <ele>512.06</ele>
        <time>2016-10-04T10:48:22Z</time>
      </trkpt>
      <trkpt lat="43.25449" lon="5.48024">
        <ele>512.77</ele>
        <time>2016-10-04T10:48:28Z</time>
      </trkpt>
      <trkpt lat="43.2545" lon="5.48026">
        <ele>512.97</ele>
        <time>2016-10-04T10:48:30Z</time>
      </trkpt>
      <trkpt lat="43.25452" lon="5.48034">
        <ele>514.13</ele>
        <time>2016-10-04T10:48:39Z</time>
      </trkpt>
      <trkpt lat="43.25454" lon="5.48039">
        <ele>514.76</ele>
        <time>2016-10-04T10:48:50Z</time>
      </trkpt>
      <trkpt lat="43.25458" lon="5.48047">
        <ele>515.66</ele>
        <time>2016-10-04T10:48:58Z</time>
      </trkpt>
      <trkpt lat="43.25459" lon="5.48058">
        <ele>516.61</ele>
        <time>2016-10-04T10:49:08Z</time>
      </trkpt>
      <trkpt lat="43.25462" lon="5.48067">
        <ele>517.8</ele>
        <time>2016-10-04T10:49:17Z</time>
      </trkpt>
      <trkpt lat="43.25462" lon="5.48068">
        <ele>518.14</ele>
        <time>2016-10-04T10:49:19Z</time>
      </trkpt>
      <trkpt lat="43.25466" lon="5.48078">
        <ele>519.87</ele>
        <time>2016-10-04T10:49:29Z</time>
      </trkpt>
      <trkpt lat="43.25467" lon="5.48083">
        <ele>521.23</ele>
        <time>2016-10-04T10:49:38Z</time>
      </trkpt>
      <trkpt lat="43.2547" lon="5.48091">
        <ele>523.04</ele>
        <time>2016-10-04T10:49:50Z</time>
      </trkpt>
      <trkpt lat="43.25473" lon="5.48093">
        <ele>524.74</ele>
        <time>2016-10-04T10:49:59Z</time>
      </trkpt>
      <trkpt lat="43.25475" lon="5.48095">
        <ele>525.42</ele>
        <time>2016-10-04T10:50:11Z</time>
      </trkpt>
      <trkpt lat="43.25479" lon="5.48102">
        <ele>526.67</ele>
        <time>2016-10-04T10:50:22Z</time>
      </trkpt>
      <trkpt lat="43.25479" lon="5.48106">
        <ele>528.24</ele>
        <time>2016-10-04T10:50:32Z</time>
      </trkpt>
      <trkpt lat="43.2548" lon="5.4811">
        <ele>529.29</ele>
        <time>2016-10-04T10:50:42Z</time>
      </trkpt>
      <trkpt lat="43.25481" lon="5.48118">
        <ele>530.89</ele>
        <time>2016-10-04T10:50:53Z</time>
      </trkpt>
      <trkpt lat="43.25481" lon="5.48126">
        <ele>531.98</ele>
        <time>2016-10-04T10:51:02Z</time>
      </trkpt>
      <trkpt lat="43.25482" lon="5.48135">
        <ele>533.15</ele>
        <time>2016-10-04T10:51:11Z</time>
      </trkpt>
      <trkpt lat="43.25481" lon="5.48136">
        <ele>534.2</ele>
        <time>2016-10-04T10:51:21Z</time>
      </trkpt>
      <trkpt lat="43.25481" lon="5.48136">
        <ele>534.67</ele>
        <time>2016-10-04T10:51:35Z</time>
      </trkpt>
      <trkpt lat="43.25481" lon="5.48138">
        <ele>534.53</ele>
        <time>2016-10-04T10:51:48Z</time>
      </trkpt>
      <trkpt lat="43.25483" lon="5.48149">
        <ele>535.56</ele>
        <time>2016-10-04T10:52:00Z</time>
      </trkpt>
      <trkpt lat="43.25485" lon="5.48157">
        <ele>537.13</ele>
        <time>2016-10-04T10:52:09Z</time>
      </trkpt>
      <trkpt lat="43.25487" lon="5.48166">
        <ele>538.37</ele>
        <time>2016-10-04T10:52:19Z</time>
      </trkpt>
      <trkpt lat="43.25488" lon="5.48175">
        <ele>539.32</ele>
        <time>2016-10-04T10:52:28Z</time>
      </trkpt>
      <trkpt lat="43.25488" lon="5.48179">
        <ele>539.92</ele>
        <time>2016-10-04T10:52:35Z</time>
      </trkpt>
      <trkpt lat="43.25491" lon="5.48186">
        <ele>540.28</ele>
        <time>2016-10-04T10:52:43Z</time>
      </trkpt>
      <trkpt lat="43.25493" lon="5.48192">
        <ele>540.85</ele>
        <time>2016-10-04T10:52:47Z</time>
      </trkpt>
      <trkpt lat="43.25493" lon="5.48203">
        <ele>541.44</ele>
        <time>2016-10-04T10:52:58Z</time>
      </trkpt>
      <trkpt lat="43.25493" lon="5.48204">
        <ele>541.52</ele>
        <time>2016-10-04T10:52:59Z</time>
      </trkpt>
      <trkpt lat="43.25494" lon="5.48222">
        <ele>542.19</ele>
        <time>2016-10-04T10:53:10Z</time>
      </trkpt>
      <trkpt lat="43.25495" lon="5.48229">
        <ele>542.71</ele>
        <time>2016-10-04T10:53:19Z</time>
      </trkpt>
      <trkpt lat="43.25494" lon="5.48231">
        <ele>542.71</ele>
        <time>2016-10-04T10:53:22Z</time>
      </trkpt>
      <trkpt lat="43.25492" lon="5.48233">
        <ele>542.17</ele>
        <time>2016-10-04T10:53:30Z</time>
      </trkpt>
      <trkpt lat="43.25492" lon="5.48233">
        <ele>543.17</ele>
        <time>2016-10-04T10:53:46Z</time>
      </trkpt>
      <trkpt lat="43.25493" lon="5.48237">
        <ele>543.59</ele>
        <time>2016-10-04T10:54:01Z</time>
      </trkpt>
      <trkpt lat="43.25495" lon="5.48241">
        <ele>543.15</ele>
        <time>2016-10-04T10:54:07Z</time>
      </trkpt>
      <trkpt lat="43.25496" lon="5.48249">
        <ele>542.87</ele>
        <time>2016-10-04T10:54:13Z</time>
      </trkpt>
      <trkpt lat="43.25497" lon="5.48253">
        <ele>542.83</ele>
        <time>2016-10-04T10:54:17Z</time>
      </trkpt>
      <trkpt lat="43.25499" lon="5.48261">
        <ele>542.85</ele>
        <time>2016-10-04T10:54:22Z</time>
      </trkpt>
      <trkpt lat="43.25504" lon="5.48277">
        <ele>542.45</ele>
        <time>2016-10-04T10:54:33Z</time>
      </trkpt>
      <trkpt lat="43.25509" lon="5.48289">
        <ele>542.44</ele>
        <time>2016-10-04T10:54:42Z</time>
      </trkpt>
      <trkpt lat="43.25518" lon="5.48302">
        <ele>542.49</ele>
        <time>2016-10-04T10:54:53Z</time>
      </trkpt>
      <trkpt lat="43.25521" lon="5.48311">
        <ele>542.09</ele>
        <time>2016-10-04T10:55:00Z</time>
      </trkpt>
      <trkpt lat="43.25527" lon="5.48324">
        <ele>541.93</ele>
        <time>2016-10-04T10:55:09Z</time>
      </trkpt>
      <trkpt lat="43.25525" lon="5.48329">
        <ele>541.53</ele>
        <time>2016-10-04T10:55:15Z</time>
      </trkpt>
      <trkpt lat="43.25523" lon="5.48333">
        <ele>541.23</ele>
        <time>2016-10-04T10:55:22Z</time>
      </trkpt>
      <trkpt lat="43.25522" lon="5.48333">
        <ele>541.27</ele>
        <time>2016-10-04T10:55:31Z</time>
      </trkpt>
      <trkpt lat="43.25521" lon="5.48334">
        <ele>541.68</ele>
        <time>2016-10-04T10:55:48Z</time>
      </trkpt>
      <trkpt lat="43.2552" lon="5.48333">
        <ele>541.72</ele>
        <time>2016-10-04T10:56:06Z</time>
      </trkpt>
      <trkpt lat="43.2552" lon="5.48333">
        <ele>541.38</ele>
        <time>2016-10-04T10:56:21Z</time>
      </trkpt>
      <trkpt lat="43.25521" lon="5.48333">
        <ele>541.29</ele>
        <time>2016-10-04T10:56:32Z</time>
      </trkpt>
      <trkpt lat="43.25521" lon="5.48333">
        <ele>541.55</ele>
        <time>2016-10-04T10:56:50Z</time>
      </trkpt>
      <trkpt lat="43.25521" lon="5.48333">
        <ele>541.16</ele>
        <time>2016-10-04T10:57:15Z</time>
      </trkpt>
      <trkpt lat="43.25521" lon="5.48333">
        <ele>541.31</ele>
        <time>2016-10-04T10:57:40Z</time>
      </trkpt>
      <trkpt lat="43.25521" lon="5.48333">
        <ele>541.11</ele>
        <time>2016-10-04T10:58:12Z</time>
      </trkpt>
      <trkpt lat="43.25521" lon="5.48332">
        <ele>541.9</ele>
        <time>2016-10-04T10:58:32Z</time>
      </trkpt>
      <trkpt lat="43.25521" lon="5.48332">
        <ele>541.74</ele>
        <time>2016-10-04T10:58:50Z</time>
      </trkpt>
      <trkpt lat="43.25522" lon="5.48333">
        <ele>541.9</ele>
        <time>2016-10-04T10:59:13Z</time>
      </trkpt>
      <trkpt lat="43.25522" lon="5.48334">
        <ele>541.81</ele>
        <time>2016-10-04T10:59:43Z</time>
      </trkpt>
      <trkpt lat="43.25522" lon="5.48334">
        <ele>541.94</ele>
        <time>2016-10-04T11:00:09Z</time>
      </trkpt>
      <trkpt lat="43.25522" lon="5.48333">
        <ele>542.21</ele>
        <time>2016-10-04T11:00:33Z</time>
      </trkpt>
      <trkpt lat="43.25522" lon="5.48334">
        <ele>542.57</ele>
        <time>2016-10-04T11:00:57Z</time>
      </trkpt>
      <trkpt lat="43.25523" lon="5.48334">
        <ele>543.01</ele>
        <time>2016-10-04T11:01:12Z</time>
      </trkpt>
      <trkpt lat="43.25523" lon="5.48334">
        <ele>542.85</ele>
        <time>2016-10-04T11:01:32Z</time>
      </trkpt>
      <trkpt lat="43.25522" lon="5.48333">
        <ele>543.36</ele>
        <time>2016-10-04T11:02:04Z</time>
      </trkpt>
      <trkpt lat="43.25521" lon="5.48332">
        <ele>543.65</ele>
        <time>2016-10-04T11:02:23Z</time>
      </trkpt>
      <trkpt lat="43.25521" lon="5.48333">
        <ele>543.27</ele>
        <time>2016-10-04T11:02:48Z</time>
      </trkpt>
      <trkpt lat="43.25521" lon="5.48332">
        <ele>542.95</ele>
        <time>2016-10-04T11:03:07Z</time>
      </trkpt>
      <trkpt lat="43.25521" lon="5.48333">
        <ele>542.68</ele>
        <time>2016-10-04T11:03:24Z</time>
      </trkpt>
      <trkpt lat="43.25521" lon="5.48332">
        <ele>542.1</ele>
        <time>2016-10-04T11:03:34Z</time>
      </trkpt>
      <trkpt lat="43.25521" lon="5.48332">
        <ele>541.46</ele>
        <time>2016-10-04T11:03:54Z</time>
      </trkpt>
      <trkpt lat="43.25521" lon="5.48333">
        <ele>541.54</ele>
        <time>2016-10-04T11:04:14Z</time>
      </trkpt>
      <trkpt lat="43.25521" lon="5.48333">
        <ele>541.09</ele>
        <time>2016-10-04T11:04:33Z</time>
      </trkpt>
      <trkpt lat="43.25521" lon="5.48331">
        <ele>541.09</ele>
        <time>2016-10-04T11:04:49Z</time>
      </trkpt>
      <trkpt lat="43.25521" lon="5.4833">
        <ele>541.14</ele>
        <time>2016-10-04T11:05:10Z</time>
      </trkpt>
      <trkpt lat="43.25522" lon="5.4833">
        <ele>541.02</ele>
        <time>2016-10-04T11:05:32Z</time>
      </trkpt>
      <trkpt lat="43.25523" lon="5.48331">
        <ele>541.11</ele>
        <time>2016-10-04T11:05:45Z</time>
      </trkpt>
      <trkpt lat="43.25522" lon="5.48332">
        <ele>541.53</ele>
        <time>2016-10-04T11:06:05Z</time>
      </trkpt>
      <trkpt lat="43.25522" lon="5.48332">
        <ele>540.97</ele>
        <time>2016-10-04T11:06:27Z</time>
      </trkpt>
      <trkpt lat="43.25521" lon="5.48331">
        <ele>541.04</ele>
        <time>2016-10-04T11:07:03Z</time>
      </trkpt>
      <trkpt lat="43.25521" lon="5.4833">
        <ele>541.05</ele>
        <time>2016-10-04T11:07:39Z</time>
      </trkpt>
      <trkpt lat="43.2552" lon="5.48331">
        <ele>541.61</ele>
        <time>2016-10-04T11:08:10Z</time>
      </trkpt>
      <trkpt lat="43.25521" lon="5.48332">
        <ele>541.74</ele>
        <time>2016-10-04T11:08:45Z</time>
      </trkpt>
      <trkpt lat="43.25521" lon="5.48333">
        <ele>541.99</ele>
        <time>2016-10-04T11:09:25Z</time>
      </trkpt>
      <trkpt lat="43.25521" lon="5.48333">
        <ele>541.06</ele>
        <time>2016-10-04T11:09:57Z</time>
      </trkpt>
      <trkpt lat="43.25521" lon="5.48333">
        <ele>540.97</ele>
        <time>2016-10-04T11:10:27Z</time>
      </trkpt>
      <trkpt lat="43.25521" lon="5.48332">
        <ele>540.56</ele>
        <time>2016-10-04T11:10:57Z</time>
      </trkpt>
      <trkpt lat="43.25521" lon="5.48332">
        <ele>540.45</ele>
        <time>2016-10-04T11:11:25Z</time>
      </trkpt>
      <trkpt lat="43.25521" lon="5.48332">
        <ele>540.26</ele>
        <time>2016-10-04T11:11:57Z</time>
      </trkpt>
      <trkpt lat="43.25521" lon="5.48332">
        <ele>540.62</ele>
        <time>2016-10-04T11:12:26Z</time>
      </trkpt>
      <trkpt lat="43.25521" lon="5.48332">
        <ele>540.75</ele>
        <time>2016-10-04T11:13:02Z</time>
      </trkpt>
      <trkpt lat="43.2552" lon="5.48332">
        <ele>541.21</ele>
        <time>2016-10-04T11:13:35Z</time>
      </trkpt>
      <trkpt lat="43.25521" lon="5.48332">
        <ele>541.4</ele>
        <time>2016-10-04T11:14:09Z</time>
      </trkpt>
      <trkpt lat="43.25521" lon="5.48333">
        <ele>541.19</ele>
        <time>2016-10-04T11:14:40Z</time>
      </trkpt>
      <trkpt lat="43.25521" lon="5.48332">
        <ele>541</ele>
        <time>2016-10-04T11:15:11Z</time>
      </trkpt>
      <trkpt lat="43.25521" lon="5.48332">
        <ele>540.82</ele>
        <time>2016-10-04T11:15:47Z</time>
      </trkpt>
      <trkpt lat="43.25521" lon="5.48332">
        <ele>540.46</ele>
        <time>2016-10-04T11:16:16Z</time>
      </trkpt>
      <trkpt lat="43.25521" lon="5.48332">
        <ele>540.52</ele>
        <time>2016-10-04T11:16:45Z</time>
      </trkpt>
      <trkpt lat="43.25521" lon="5.48332">
        <ele>540.61</ele>
        <time>2016-10-04T11:17:13Z</time>
      </trkpt>
      <trkpt lat="43.25521" lon="5.48332">
        <ele>540.5</ele>
        <time>2016-10-04T11:17:44Z</time>
      </trkpt>
      <trkpt lat="43.25521" lon="5.48332">
        <ele>540.52</ele>
        <time>2016-10-04T11:18:13Z</time>
      </trkpt>
      <trkpt lat="43.25521" lon="5.48332">
        <ele>540.96</ele>
        <time>2016-10-04T11:18:41Z</time>
      </trkpt>
      <trkpt lat="43.25521" lon="5.48332">
        <ele>540.82</ele>
        <time>2016-10-04T11:19:11Z</time>
      </trkpt>
      <trkpt lat="43.25522" lon="5.48331">
        <ele>541.09</ele>
        <time>2016-10-04T11:19:38Z</time>
      </trkpt>
      <trkpt lat="43.25522" lon="5.48331">
        <ele>541.1</ele>
        <time>2016-10-04T11:20:06Z</time>
      </trkpt>
      <trkpt lat="43.25522" lon="5.48331">
        <ele>541.18</ele>
        <time>2016-10-04T11:20:31Z</time>
      </trkpt>
      <trkpt lat="43.25521" lon="5.48331">
        <ele>541.37</ele>
        <time>2016-10-04T11:20:59Z</time>
      </trkpt>
      <trkpt lat="43.25521" lon="5.48331">
        <ele>541.07</ele>
        <time>2016-10-04T11:21:32Z</time>
      </trkpt>
      <trkpt lat="43.25521" lon="5.48331">
        <ele>541.12</ele>
        <time>2016-10-04T11:21:59Z</time>
      </trkpt>
      <trkpt lat="43.25521" lon="5.4833">
        <ele>541.18</ele>
        <time>2016-10-04T11:22:27Z</time>
      </trkpt>
      <trkpt lat="43.25521" lon="5.4833">
        <ele>540.92</ele>
        <time>2016-10-04T11:22:59Z</time>
      </trkpt>
      <trkpt lat="43.25521" lon="5.4833">
        <ele>540.79</ele>
        <time>2016-10-04T11:23:27Z</time>
      </trkpt>
      <trkpt lat="43.25521" lon="5.4833">
        <ele>540.69</ele>
        <time>2016-10-04T11:23:57Z</time>
      </trkpt>
      <trkpt lat="43.25521" lon="5.4833">
        <ele>540.76</ele>
        <time>2016-10-04T11:24:23Z</time>
      </trkpt>
      <trkpt lat="43.25521" lon="5.4833">
        <ele>540.92</ele>
        <time>2016-10-04T11:24:50Z</time>
      </trkpt>
      <trkpt lat="43.25521" lon="5.4833">
        <ele>540.46</ele>
        <time>2016-10-04T11:25:14Z</time>
      </trkpt>
      <trkpt lat="43.25521" lon="5.4833">
        <ele>540.85</ele>
        <time>2016-10-04T11:25:39Z</time>
      </trkpt>
      <trkpt lat="43.25521" lon="5.48329">
        <ele>540.67</ele>
        <time>2016-10-04T11:26:02Z</time>
      </trkpt>
      <trkpt lat="43.25521" lon="5.4833">
        <ele>540.81</ele>
        <time>2016-10-04T11:26:29Z</time>
      </trkpt>
      <trkpt lat="43.25521" lon="5.48331">
        <ele>540.71</ele>
        <time>2016-10-04T11:26:52Z</time>
      </trkpt>
      <trkpt lat="43.25521" lon="5.48332">
        <ele>541.02</ele>
        <time>2016-10-04T11:27:19Z</time>
      </trkpt>
      <trkpt lat="43.25521" lon="5.48331">
        <ele>541.03</ele>
        <time>2016-10-04T11:27:40Z</time>
      </trkpt>
      <trkpt lat="43.25521" lon="5.4833">
        <ele>540.8</ele>
        <time>2016-10-04T11:28:05Z</time>
      </trkpt>
      <trkpt lat="43.25521" lon="5.4833">
        <ele>540.76</ele>
        <time>2016-10-04T11:28:27Z</time>
      </trkpt>
      <trkpt lat="43.25521" lon="5.48329">
        <ele>540.95</ele>
        <time>2016-10-04T11:28:52Z</time>
      </trkpt>
      <trkpt lat="43.25521" lon="5.48329">
        <ele>540.84</ele>
        <time>2016-10-04T11:29:17Z</time>
      </trkpt>
      <trkpt lat="43.25522" lon="5.4833">
        <ele>540.95</ele>
        <time>2016-10-04T11:29:48Z</time>
      </trkpt>
      <trkpt lat="43.25521" lon="5.48329">
        <ele>540.64</ele>
        <time>2016-10-04T11:30:13Z</time>
      </trkpt>
      <trkpt lat="43.25522" lon="5.4833">
        <ele>540.85</ele>
        <time>2016-10-04T11:30:37Z</time>
      </trkpt>
      <trkpt lat="43.25522" lon="5.4833">
        <ele>541.3</ele>
        <time>2016-10-04T11:31:18Z</time>
      </trkpt>
      <trkpt lat="43.25522" lon="5.48332">
        <ele>541.42</ele>
        <time>2016-10-04T11:32:11Z</time>
      </trkpt>
      <trkpt lat="43.25523" lon="5.48332">
        <ele>541.43</ele>
        <time>2016-10-04T11:32:45Z</time>
      </trkpt>
      <trkpt lat="43.25523" lon="5.48332">
        <ele>541.77</ele>
        <time>2016-10-04T11:33:05Z</time>
      </trkpt>
      <trkpt lat="43.25523" lon="5.48333">
        <ele>542.25</ele>
        <time>2016-10-04T11:33:15Z</time>
      </trkpt>
      <trkpt lat="43.25522" lon="5.48333">
        <ele>542.34</ele>
        <time>2016-10-04T11:33:29Z</time>
      </trkpt>
      <trkpt lat="43.25523" lon="5.48333">
        <ele>542.44</ele>
        <time>2016-10-04T11:33:42Z</time>
      </trkpt>
      <trkpt lat="43.25523" lon="5.48332">
        <ele>542.47</ele>
        <time>2016-10-04T11:33:56Z</time>
      </trkpt>
      <trkpt lat="43.25526" lon="5.48333">
        <ele>542.5</ele>
        <time>2016-10-04T11:34:06Z</time>
      </trkpt>
      <trkpt lat="43.25529" lon="5.48328">
        <ele>542.43</ele>
        <time>2016-10-04T11:34:16Z</time>
      </trkpt>
      <trkpt lat="43.25532" lon="5.48329">
        <ele>541.95</ele>
        <time>2016-10-04T11:34:24Z</time>
      </trkpt>
      <trkpt lat="43.25537" lon="5.48337">
        <ele>541.47</ele>
        <time>2016-10-04T11:34:34Z</time>
      </trkpt>
      <trkpt lat="43.25542" lon="5.48345">
        <ele>540.97</ele>
        <time>2016-10-04T11:34:43Z</time>
      </trkpt>
      <trkpt lat="43.25545" lon="5.48347">
        <ele>540.08</ele>
        <time>2016-10-04T11:34:53Z</time>
      </trkpt>
      <trkpt lat="43.25546" lon="5.48346">
        <ele>539.44</ele>
        <time>2016-10-04T11:35:10Z</time>
      </trkpt>
      <trkpt lat="43.2555" lon="5.48352">
        <ele>539.19</ele>
        <time>2016-10-04T11:35:20Z</time>
      </trkpt>
      <trkpt lat="43.25555" lon="5.48358">
        <ele>538.49</ele>
        <time>2016-10-04T11:35:29Z</time>
      </trkpt>
      <trkpt lat="43.2556" lon="5.48364">
        <ele>536.93</ele>
        <time>2016-10-04T11:35:38Z</time>
      </trkpt>
      <trkpt lat="43.25561" lon="5.48365">
        <ele>535.41</ele>
        <time>2016-10-04T11:35:49Z</time>
      </trkpt>
      <trkpt lat="43.25565" lon="5.4837">
        <ele>534.86</ele>
        <time>2016-10-04T11:35:58Z</time>
      </trkpt>
      <trkpt lat="43.25567" lon="5.48373">
        <ele>534.05</ele>
        <time>2016-10-04T11:36:08Z</time>
      </trkpt>
      <trkpt lat="43.25569" lon="5.48373">
        <ele>534.07</ele>
        <time>2016-10-04T11:36:19Z</time>
      </trkpt>
      <trkpt lat="43.25575" lon="5.48375">
        <ele>533.62</ele>
        <time>2016-10-04T11:36:26Z</time>
      </trkpt>
      <trkpt lat="43.25583" lon="5.4838">
        <ele>531.66</ele>
        <time>2016-10-04T11:36:38Z</time>
      </trkpt>
      <trkpt lat="43.25589" lon="5.48386">
        <ele>529.7</ele>
        <time>2016-10-04T11:36:47Z</time>
      </trkpt>
      <trkpt lat="43.25595" lon="5.48391">
        <ele>527.97</ele>
        <time>2016-10-04T11:36:57Z</time>
      </trkpt>
      <trkpt lat="43.256" lon="5.48396">
        <ele>526.27</ele>
        <time>2016-10-04T11:37:04Z</time>
      </trkpt>
      <trkpt lat="43.25606" lon="5.484">
        <ele>524.59</ele>
        <time>2016-10-04T11:37:13Z</time>
      </trkpt>
      <trkpt lat="43.25613" lon="5.48407">
        <ele>523.32</ele>
        <time>2016-10-04T11:37:22Z</time>
      </trkpt>
      <trkpt lat="43.25618" lon="5.48411">
        <ele>522.51</ele>
        <time>2016-10-04T11:37:31Z</time>
      </trkpt>
      <trkpt lat="43.25624" lon="5.48415">
        <ele>521.64</ele>
        <time>2016-10-04T11:37:40Z</time>
      </trkpt>
      <trkpt lat="43.25626" lon="5.48416">
        <ele>520.8</ele>
        <time>2016-10-04T11:37:48Z</time>
      </trkpt>
      <trkpt lat="43.2563" lon="5.48416">
        <ele>519.59</ele>
        <time>2016-10-04T11:37:56Z</time>
      </trkpt>
      <trkpt lat="43.25636" lon="5.4842">
        <ele>517.92</ele>
        <time>2016-10-04T11:38:05Z</time>
      </trkpt>
      <trkpt lat="43.2564" lon="5.48425">
        <ele>516.24</ele>
        <time>2016-10-04T11:38:14Z</time>
      </trkpt>
      <trkpt lat="43.25647" lon="5.4843">
        <ele>514.41</ele>
        <time>2016-10-04T11:38:24Z</time>
      </trkpt>
      <trkpt lat="43.25652" lon="5.48434">
        <ele>513.44</ele>
        <time>2016-10-04T11:38:32Z</time>
      </trkpt>
      <trkpt lat="43.25656" lon="5.48439">
        <ele>513.91</ele>
        <time>2016-10-04T11:38:41Z</time>
      </trkpt>
      <trkpt lat="43.25661" lon="5.48444">
        <ele>515.35</ele>
        <time>2016-10-04T11:38:51Z</time>
      </trkpt>
      <trkpt lat="43.25662" lon="5.48447">
        <ele>516.09</ele>
        <time>2016-10-04T11:38:59Z</time>
      </trkpt>
      <trkpt lat="43.25667" lon="5.48451">
        <ele>516.65</ele>
        <time>2016-10-04T11:39:08Z</time>
      </trkpt>
      <trkpt lat="43.25668" lon="5.48452">
        <ele>517.49</ele>
        <time>2016-10-04T11:39:19Z</time>
      </trkpt>
      <trkpt lat="43.25673" lon="5.48451">
        <ele>517.81</ele>
        <time>2016-10-04T11:39:33Z</time>
      </trkpt>
      <trkpt lat="43.2568" lon="5.4845">
        <ele>518.9</ele>
        <time>2016-10-04T11:39:42Z</time>
      </trkpt>
      <trkpt lat="43.25688" lon="5.48454">
        <ele>520.13</ele>
        <time>2016-10-04T11:39:51Z</time>
      </trkpt>
      <trkpt lat="43.25697" lon="5.48455">
        <ele>521.52</ele>
        <time>2016-10-04T11:40:00Z</time>
      </trkpt>
      <trkpt lat="43.25705" lon="5.48458">
        <ele>522.67</ele>
        <time>2016-10-04T11:40:07Z</time>
      </trkpt>
      <trkpt lat="43.25709" lon="5.48464">
        <ele>523.28</ele>
        <time>2016-10-04T11:40:15Z</time>
      </trkpt>
      <trkpt lat="43.2571" lon="5.4847">
        <ele>524.69</ele>
        <time>2016-10-04T11:40:24Z</time>
      </trkpt>
      <trkpt lat="43.2571" lon="5.48471">
        <ele>525.29</ele>
        <time>2016-10-04T11:40:32Z</time>
      </trkpt>
      <trkpt lat="43.25711" lon="5.48476">
        <ele>525.63</ele>
        <time>2016-10-04T11:40:42Z</time>
      </trkpt>
      <trkpt lat="43.25713" lon="5.48488">
        <ele>524.32</ele>
        <time>2016-10-04T11:40:53Z</time>
      </trkpt>
      <trkpt lat="43.25717" lon="5.48497">
        <ele>522.64</ele>
        <time>2016-10-04T11:41:02Z</time>
      </trkpt>
      <trkpt lat="43.25719" lon="5.48503">
        <ele>521.34</ele>
        <time>2016-10-04T11:41:10Z</time>
      </trkpt>
      <trkpt lat="43.25723" lon="5.48512">
        <ele>519.34</ele>
        <time>2016-10-04T11:41:19Z</time>
      </trkpt>
      <trkpt lat="43.25725" lon="5.48525">
        <ele>517.32</ele>
        <time>2016-10-04T11:41:29Z</time>
      </trkpt>
      <trkpt lat="43.25726" lon="5.48539">
        <ele>515.27</ele>
        <time>2016-10-04T11:41:40Z</time>
      </trkpt>
      <trkpt lat="43.25728" lon="5.48551">
        <ele>514.13</ele>
        <time>2016-10-04T11:41:49Z</time>
      </trkpt>
      <trkpt lat="43.25729" lon="5.48556">
        <ele>513.69</ele>
        <time>2016-10-04T11:41:53Z</time>
      </trkpt>
      <trkpt lat="43.2573" lon="5.48562">
        <ele>513.19</ele>
        <time>2016-10-04T11:42:02Z</time>
      </trkpt>
      <trkpt lat="43.25731" lon="5.48565">
        <ele>512.98</ele>
        <time>2016-10-04T11:42:08Z</time>
      </trkpt>
      <trkpt lat="43.25733" lon="5.48578">
        <ele>512.08</ele>
        <time>2016-10-04T11:42:16Z</time>
      </trkpt>
      <trkpt lat="43.25735" lon="5.48593">
        <ele>512.2</ele>
        <time>2016-10-04T11:42:26Z</time>
      </trkpt>
      <trkpt lat="43.25734" lon="5.48609">
        <ele>512.34</ele>
        <time>2016-10-04T11:42:36Z</time>
      </trkpt>
      <trkpt lat="43.25733" lon="5.48624">
        <ele>512.34</ele>
        <time>2016-10-04T11:42:45Z</time>
      </trkpt>
      <trkpt lat="43.25734" lon="5.48634">
        <ele>511.92</ele>
        <time>2016-10-04T11:42:53Z</time>
      </trkpt>
      <trkpt lat="43.25734" lon="5.48634">
        <ele>511.98</ele>
        <time>2016-10-04T11:42:54Z</time>
      </trkpt>
      <trkpt lat="43.25738" lon="5.4865">
        <ele>511.51</ele>
        <time>2016-10-04T11:43:06Z</time>
      </trkpt>
      <trkpt lat="43.25739" lon="5.48654">
        <ele>511.36</ele>
        <time>2016-10-04T11:43:09Z</time>
      </trkpt>
      <trkpt lat="43.25742" lon="5.48665">
        <ele>510.92</ele>
        <time>2016-10-04T11:43:18Z</time>
      </trkpt>
      <trkpt lat="43.25742" lon="5.48668">
        <ele>510.91</ele>
        <time>2016-10-04T11:43:22Z</time>
      </trkpt>
      <trkpt lat="43.25743" lon="5.48679">
        <ele>509.96</ele>
        <time>2016-10-04T11:43:30Z</time>
      </trkpt>
      <trkpt lat="43.25747" lon="5.4869">
        <ele>509.49</ele>
        <time>2016-10-04T11:43:40Z</time>
      </trkpt>
      <trkpt lat="43.25747" lon="5.48691">
        <ele>509.53</ele>
        <time>2016-10-04T11:43:42Z</time>
      </trkpt>
      <trkpt lat="43.2575" lon="5.48705">
        <ele>509.32</ele>
        <time>2016-10-04T11:43:52Z</time>
      </trkpt>
      <trkpt lat="43.25753" lon="5.48713">
        <ele>508.69</ele>
        <time>2016-10-04T11:44:02Z</time>
      </trkpt>
      <trkpt lat="43.25753" lon="5.48722">
        <ele>508.14</ele>
        <time>2016-10-04T11:44:09Z</time>
      </trkpt>
      <trkpt lat="43.25754" lon="5.48732">
        <ele>507.89</ele>
        <time>2016-10-04T11:44:18Z</time>
      </trkpt>
      <trkpt lat="43.25756" lon="5.48742">
        <ele>508.82</ele>
        <time>2016-10-04T11:44:28Z</time>
      </trkpt>
      <trkpt lat="43.25757" lon="5.48749">
        <ele>508.97</ele>
        <time>2016-10-04T11:44:37Z</time>
      </trkpt>
      <trkpt lat="43.25758" lon="5.48752">
        <ele>509.42</ele>
        <time>2016-10-04T11:44:45Z</time>
      </trkpt>
      <trkpt lat="43.25761" lon="5.48757">
        <ele>510.28</ele>
        <time>2016-10-04T11:44:55Z</time>
      </trkpt>
      <trkpt lat="43.25762" lon="5.4876">
        <ele>511.03</ele>
        <time>2016-10-04T11:45:04Z</time>
      </trkpt>
      <trkpt lat="43.25764" lon="5.48766">
        <ele>511.08</ele>
        <time>2016-10-04T11:45:12Z</time>
      </trkpt>
      <trkpt lat="43.25766" lon="5.48778">
        <ele>510.82</ele>
        <time>2016-10-04T11:45:22Z</time>
      </trkpt>
      <trkpt lat="43.25767" lon="5.48787">
        <ele>510.65</ele>
        <time>2016-10-04T11:45:31Z</time>
      </trkpt>
      <trkpt lat="43.25769" lon="5.48794">
        <ele>510.51</ele>
        <time>2016-10-04T11:45:39Z</time>
      </trkpt>
      <trkpt lat="43.25772" lon="5.48799">
        <ele>510.94</ele>
        <time>2016-10-04T11:45:48Z</time>
      </trkpt>
      <trkpt lat="43.25774" lon="5.48809">
        <ele>512.18</ele>
        <time>2016-10-04T11:45:59Z</time>
      </trkpt>
      <trkpt lat="43.25777" lon="5.48817">
        <ele>512.67</ele>
        <time>2016-10-04T11:46:09Z</time>
      </trkpt>
      <trkpt lat="43.25779" lon="5.48822">
        <ele>514.29</ele>
        <time>2016-10-04T11:46:18Z</time>
      </trkpt>
      <trkpt lat="43.25779" lon="5.48824">
        <ele>514.49</ele>
        <time>2016-10-04T11:46:20Z</time>
      </trkpt>
      <trkpt lat="43.25779" lon="5.48831">
        <ele>514.36</ele>
        <time>2016-10-04T11:46:28Z</time>
      </trkpt>
      <trkpt lat="43.25781" lon="5.4884">
        <ele>514.78</ele>
        <time>2016-10-04T11:46:37Z</time>
      </trkpt>
      <trkpt lat="43.25785" lon="5.4885">
        <ele>516.14</ele>
        <time>2016-10-04T11:46:48Z</time>
      </trkpt>
      <trkpt lat="43.25787" lon="5.48857">
        <ele>517.37</ele>
        <time>2016-10-04T11:46:59Z</time>
      </trkpt>
      <trkpt lat="43.25789" lon="5.48867">
        <ele>519.36</ele>
        <time>2016-10-04T11:47:11Z</time>
      </trkpt>
      <trkpt lat="43.2579" lon="5.4888">
        <ele>519.62</ele>
        <time>2016-10-04T11:47:21Z</time>
      </trkpt>
      <trkpt lat="43.2579" lon="5.48887">
        <ele>519.91</ele>
        <time>2016-10-04T11:47:30Z</time>
      </trkpt>
      <trkpt lat="43.2579" lon="5.48891">
        <ele>519.68</ele>
        <time>2016-10-04T11:47:42Z</time>
      </trkpt>
      <trkpt lat="43.25792" lon="5.48903">
        <ele>520.09</ele>
        <time>2016-10-04T11:47:52Z</time>
      </trkpt>
      <trkpt lat="43.25794" lon="5.48912">
        <ele>520.86</ele>
        <time>2016-10-04T11:47:59Z</time>
      </trkpt>
      <trkpt lat="43.25796" lon="5.48925">
        <ele>520.61</ele>
        <time>2016-10-04T11:48:08Z</time>
      </trkpt>
      <trkpt lat="43.25798" lon="5.48928">
        <ele>521.55</ele>
        <time>2016-10-04T11:48:17Z</time>
      </trkpt>
      <trkpt lat="43.25802" lon="5.4893">
        <ele>522.47</ele>
        <time>2016-10-04T11:48:25Z</time>
      </trkpt>
      <trkpt lat="43.25808" lon="5.48933">
        <ele>523.86</ele>
        <time>2016-10-04T11:48:34Z</time>
      </trkpt>
      <trkpt lat="43.25809" lon="5.48933">
        <ele>524.17</ele>
        <time>2016-10-04T11:48:44Z</time>
      </trkpt>
      <trkpt lat="43.25809" lon="5.48933">
        <ele>523.81</ele>
        <time>2016-10-04T11:48:55Z</time>
      </trkpt>
      <trkpt lat="43.25808" lon="5.4893">
        <ele>523.9</ele>
        <time>2016-10-04T11:49:03Z</time>
      </trkpt>
      <trkpt lat="43.25807" lon="5.48931">
        <ele>524.39</ele>
        <time>2016-10-04T11:49:18Z</time>
      </trkpt>
      <trkpt lat="43.25807" lon="5.4893">
        <ele>524.69</ele>
        <time>2016-10-04T11:49:30Z</time>
      </trkpt>
      <trkpt lat="43.25809" lon="5.48932">
        <ele>524.67</ele>
        <time>2016-10-04T11:49:44Z</time>
      </trkpt>
      <trkpt lat="43.2581" lon="5.48932">
        <ele>524.39</ele>
        <time>2016-10-04T11:50:00Z</time>
      </trkpt>
      <trkpt lat="43.2581" lon="5.48931">
        <ele>523.98</ele>
        <time>2016-10-04T11:50:25Z</time>
      </trkpt>
      <trkpt lat="43.2581" lon="5.48931">
        <ele>524.46</ele>
        <time>2016-10-04T11:50:41Z</time>
      </trkpt>
      <trkpt lat="43.25809" lon="5.48931">
        <ele>524.25</ele>
        <time>2016-10-04T11:50:57Z</time>
      </trkpt>
      <trkpt lat="43.25808" lon="5.48931">
        <ele>524.11</ele>
        <time>2016-10-04T11:51:18Z</time>
      </trkpt>
      <trkpt lat="43.25806" lon="5.48929">
        <ele>523.79</ele>
        <time>2016-10-04T11:51:26Z</time>
      </trkpt>
      <trkpt lat="43.25803" lon="5.48927">
        <ele>523.42</ele>
        <time>2016-10-04T11:51:35Z</time>
      </trkpt>
      <trkpt lat="43.25798" lon="5.48933">
        <ele>522.83</ele>
        <time>2016-10-04T11:51:43Z</time>
      </trkpt>
      <trkpt lat="43.25798" lon="5.48937">
        <ele>521.83</ele>
        <time>2016-10-04T11:51:51Z</time>
      </trkpt>
      <trkpt lat="43.25798" lon="5.4894">
        <ele>521.43</ele>
        <time>2016-10-04T11:52:00Z</time>
      </trkpt>
      <trkpt lat="43.25796" lon="5.48949">
        <ele>521.24</ele>
        <time>2016-10-04T11:52:09Z</time>
      </trkpt>
      <trkpt lat="43.25794" lon="5.48963">
        <ele>520.5</ele>
        <time>2016-10-04T11:52:20Z</time>
      </trkpt>
      <trkpt lat="43.25793" lon="5.48971">
        <ele>520.17</ele>
        <time>2016-10-04T11:52:28Z</time>
      </trkpt>
      <trkpt lat="43.25792" lon="5.48977">
        <ele>519.84</ele>
        <time>2016-10-04T11:52:36Z</time>
      </trkpt>
      <trkpt lat="43.25791" lon="5.4898">
        <ele>519.37</ele>
        <time>2016-10-04T11:52:44Z</time>
      </trkpt>
      <trkpt lat="43.2579" lon="5.48982">
        <ele>519.3</ele>
        <time>2016-10-04T11:52:46Z</time>
      </trkpt>
      <trkpt lat="43.25786" lon="5.48996">
        <ele>518.23</ele>
        <time>2016-10-04T11:52:56Z</time>
      </trkpt>
      <trkpt lat="43.25782" lon="5.49007">
        <ele>516.23</ele>
        <time>2016-10-04T11:53:07Z</time>
      </trkpt>
      <trkpt lat="43.2578" lon="5.49012">
        <ele>514.67</ele>
        <time>2016-10-04T11:53:16Z</time>
      </trkpt>
      <trkpt lat="43.25777" lon="5.4902">
        <ele>513.76</ele>
        <time>2016-10-04T11:53:26Z</time>
      </trkpt>
      <trkpt lat="43.25773" lon="5.49034">
        <ele>512.18</ele>
        <time>2016-10-04T11:53:37Z</time>
      </trkpt>
      <trkpt lat="43.25771" lon="5.49044">
        <ele>511.23</ele>
        <time>2016-10-04T11:53:46Z</time>
      </trkpt>
      <trkpt lat="43.25768" lon="5.49055">
        <ele>510.24</ele>
        <time>2016-10-04T11:53:56Z</time>
      </trkpt>
      <trkpt lat="43.25766" lon="5.49064">
        <ele>509.41</ele>
        <time>2016-10-04T11:54:05Z</time>
      </trkpt>
      <trkpt lat="43.25765" lon="5.49074">
        <ele>508.67</ele>
        <time>2016-10-04T11:54:16Z</time>
      </trkpt>
      <trkpt lat="43.25763" lon="5.49078">
        <ele>508.34</ele>
        <time>2016-10-04T11:54:19Z</time>
      </trkpt>
      <trkpt lat="43.2576" lon="5.49089">
        <ele>506.76</ele>
        <time>2016-10-04T11:54:28Z</time>
      </trkpt>
      <trkpt lat="43.2576" lon="5.49091">
        <ele>506.38</ele>
        <time>2016-10-04T11:54:30Z</time>
      </trkpt>
      <trkpt lat="43.25754" lon="5.491">
        <ele>504.81</ele>
        <time>2016-10-04T11:54:41Z</time>
      </trkpt>
      <trkpt lat="43.25757" lon="5.49107">
        <ele>503.96</ele>
        <time>2016-10-04T11:54:49Z</time>
      </trkpt>
      <trkpt lat="43.25756" lon="5.49111">
        <ele>502.7</ele>
        <time>2016-10-04T11:54:56Z</time>
      </trkpt>
      <trkpt lat="43.25753" lon="5.49112">
        <ele>501.95</ele>
        <time>2016-10-04T11:55:03Z</time>
      </trkpt>
      <trkpt lat="43.25752" lon="5.49113">
        <ele>502.06</ele>
        <time>2016-10-04T11:55:11Z</time>
      </trkpt>
      <trkpt lat="43.25752" lon="5.49112">
        <ele>502.88</ele>
        <time>2016-10-04T11:55:20Z</time>
      </trkpt>
      <trkpt lat="43.25751" lon="5.49113">
        <ele>502.93</ele>
        <time>2016-10-04T11:55:33Z</time>
      </trkpt>
      <trkpt lat="43.25751" lon="5.49112">
        <ele>502.68</ele>
        <time>2016-10-04T11:55:44Z</time>
      </trkpt>
      <trkpt lat="43.25752" lon="5.49118">
        <ele>502.82</ele>
        <time>2016-10-04T11:55:53Z</time>
      </trkpt>
      <trkpt lat="43.2575" lon="5.49124">
        <ele>502.14</ele>
        <time>2016-10-04T11:55:59Z</time>
      </trkpt>
      <trkpt lat="43.25746" lon="5.49138">
        <ele>500.03</ele>
        <time>2016-10-04T11:56:10Z</time>
      </trkpt>
      <trkpt lat="43.25742" lon="5.49151">
        <ele>498.09</ele>
        <time>2016-10-04T11:56:22Z</time>
      </trkpt>
      <trkpt lat="43.2574" lon="5.49164">
        <ele>496.43</ele>
        <time>2016-10-04T11:56:32Z</time>
      </trkpt>
      <trkpt lat="43.2574" lon="5.49167">
        <ele>496.16</ele>
        <time>2016-10-04T11:56:34Z</time>
      </trkpt>
      <trkpt lat="43.25738" lon="5.49176">
        <ele>494.85</ele>
        <time>2016-10-04T11:56:43Z</time>
      </trkpt>
      <trkpt lat="43.25732" lon="5.49185">
        <ele>493.78</ele>
        <time>2016-10-04T11:56:53Z</time>
      </trkpt>
      <trkpt lat="43.2573" lon="5.49191">
        <ele>493.36</ele>
        <time>2016-10-04T11:56:58Z</time>
      </trkpt>
      <trkpt lat="43.25723" lon="5.49206">
        <ele>491.65</ele>
        <time>2016-10-04T11:57:11Z</time>
      </trkpt>
      <trkpt lat="43.25719" lon="5.49219">
        <ele>490.43</ele>
        <time>2016-10-04T11:57:20Z</time>
      </trkpt>
      <trkpt lat="43.25712" lon="5.49227">
        <ele>489.17</ele>
        <time>2016-10-04T11:57:29Z</time>
      </trkpt>
      <trkpt lat="43.25705" lon="5.49238">
        <ele>487.67</ele>
        <time>2016-10-04T11:57:40Z</time>
      </trkpt>
      <trkpt lat="43.25699" lon="5.49249">
        <ele>486.51</ele>
        <time>2016-10-04T11:57:50Z</time>
      </trkpt>
      <trkpt lat="43.25693" lon="5.49255">
        <ele>485.69</ele>
        <time>2016-10-04T11:57:58Z</time>
      </trkpt>
      <trkpt lat="43.2569" lon="5.49262">
        <ele>485.25</ele>
        <time>2016-10-04T11:58:07Z</time>
      </trkpt>
      <trkpt lat="43.25688" lon="5.49264">
        <ele>484.74</ele>
        <time>2016-10-04T11:58:10Z</time>
      </trkpt>
      <trkpt lat="43.2568" lon="5.4927">
        <ele>483.92</ele>
        <time>2016-10-04T11:58:19Z</time>
      </trkpt>
      <trkpt lat="43.25671" lon="5.49276">
        <ele>483.39</ele>
        <time>2016-10-04T11:58:29Z</time>
      </trkpt>
      <trkpt lat="43.25665" lon="5.49282">
        <ele>483.72</ele>
        <time>2016-10-04T11:58:38Z</time>
      </trkpt>
      <trkpt lat="43.25665" lon="5.49284">
        <ele>484.02</ele>
        <time>2016-10-04T11:58:51Z</time>
      </trkpt>
      <trkpt lat="43.25665" lon="5.49287">
        <ele>483.97</ele>
        <time>2016-10-04T11:58:58Z</time>
      </trkpt>
      <trkpt lat="43.25665" lon="5.49288">
        <ele>483.68</ele>
        <time>2016-10-04T11:59:07Z</time>
      </trkpt>
      <trkpt lat="43.25665" lon="5.4929">
        <ele>483.54</ele>
        <time>2016-10-04T11:59:11Z</time>
      </trkpt>
      <trkpt lat="43.25666" lon="5.49296">
        <ele>483.4</ele>
        <time>2016-10-04T11:59:16Z</time>
      </trkpt>
      <trkpt lat="43.25666" lon="5.49306">
        <ele>482.85</ele>
        <time>2016-10-04T11:59:24Z</time>
      </trkpt>
      <trkpt lat="43.2566" lon="5.49315">
        <ele>482.28</ele>
        <time>2016-10-04T11:59:35Z</time>
      </trkpt>
      <trkpt lat="43.25658" lon="5.49329">
        <ele>481.9</ele>
        <time>2016-10-04T11:59:44Z</time>
      </trkpt>
      <trkpt lat="43.25657" lon="5.49339">
        <ele>481.23</ele>
        <time>2016-10-04T11:59:52Z</time>
      </trkpt>
      <trkpt lat="43.25657" lon="5.49346">
        <ele>480.06</ele>
        <time>2016-10-04T12:00:02Z</time>
      </trkpt>
      <trkpt lat="43.25659" lon="5.49349">
        <ele>479.77</ele>
        <time>2016-10-04T12:00:21Z</time>
      </trkpt>
      <trkpt lat="43.25661" lon="5.49353">
        <ele>479.1</ele>
        <time>2016-10-04T12:00:28Z</time>
      </trkpt>
      <trkpt lat="43.25662" lon="5.49358">
        <ele>478.32</ele>
        <time>2016-10-04T12:00:34Z</time>
      </trkpt>
      <trkpt lat="43.25661" lon="5.49361">
        <ele>477.98</ele>
        <time>2016-10-04T12:00:37Z</time>
      </trkpt>
      <trkpt lat="43.25661" lon="5.49376">
        <ele>476.77</ele>
        <time>2016-10-04T12:00:48Z</time>
      </trkpt>
      <trkpt lat="43.25662" lon="5.49389">
        <ele>475.12</ele>
        <time>2016-10-04T12:00:59Z</time>
      </trkpt>
      <trkpt lat="43.25663" lon="5.49393">
        <ele>474.7</ele>
        <time>2016-10-04T12:01:03Z</time>
      </trkpt>
      <trkpt lat="43.25664" lon="5.49395">
        <ele>474.48</ele>
        <time>2016-10-04T12:01:05Z</time>
      </trkpt>
      <trkpt lat="43.2567" lon="5.49407">
        <ele>473.15</ele>
        <time>2016-10-04T12:01:15Z</time>
      </trkpt>
      <trkpt lat="43.25671" lon="5.49408">
        <ele>473.02</ele>
        <time>2016-10-04T12:01:16Z</time>
      </trkpt>
      <trkpt lat="43.25672" lon="5.49418">
        <ele>472.48</ele>
        <time>2016-10-04T12:01:25Z</time>
      </trkpt>
      <trkpt lat="43.25672" lon="5.49424">
        <ele>472.08</ele>
        <time>2016-10-04T12:01:32Z</time>
      </trkpt>
      <trkpt lat="43.25674" lon="5.49432">
        <ele>471.12</ele>
        <time>2016-10-04T12:01:40Z</time>
      </trkpt>
      <trkpt lat="43.25675" lon="5.49433">
        <ele>470.32</ele>
        <time>2016-10-04T12:01:47Z</time>
      </trkpt>
      <trkpt lat="43.25678" lon="5.49437">
        <ele>469.53</ele>
        <time>2016-10-04T12:01:55Z</time>
      </trkpt>
      <trkpt lat="43.25683" lon="5.49443">
        <ele>467.57</ele>
        <time>2016-10-04T12:02:04Z</time>
      </trkpt>
      <trkpt lat="43.25685" lon="5.49446">
        <ele>465.41</ele>
        <time>2016-10-04T12:02:17Z</time>
      </trkpt>
      <trkpt lat="43.25688" lon="5.49455">
        <ele>464.9</ele>
        <time>2016-10-04T12:02:26Z</time>
      </trkpt>
      <trkpt lat="43.2569" lon="5.49466">
        <ele>463.55</ele>
        <time>2016-10-04T12:02:36Z</time>
      </trkpt>
      <trkpt lat="43.25694" lon="5.49477">
        <ele>461.95</ele>
        <time>2016-10-04T12:02:46Z</time>
      </trkpt>
      <trkpt lat="43.25696" lon="5.4949">
        <ele>461.03</ele>
        <time>2016-10-04T12:02:55Z</time>
      </trkpt>
      <trkpt lat="43.25697" lon="5.49497">
        <ele>460.87</ele>
        <time>2016-10-04T12:03:00Z</time>
      </trkpt>
      <trkpt lat="43.25702" lon="5.49508">
        <ele>460.87</ele>
        <time>2016-10-04T12:03:09Z</time>
      </trkpt>
      <trkpt lat="43.25707" lon="5.49517">
        <ele>461.62</ele>
        <time>2016-10-04T12:03:18Z</time>
      </trkpt>
      <trkpt lat="43.25711" lon="5.49527">
        <ele>462.62</ele>
        <time>2016-10-04T12:03:26Z</time>
      </trkpt>
      <trkpt lat="43.25718" lon="5.49537">
        <ele>463.29</ele>
        <time>2016-10-04T12:03:36Z</time>
      </trkpt>
      <trkpt lat="43.25723" lon="5.4955">
        <ele>463.81</ele>
        <time>2016-10-04T12:03:46Z</time>
      </trkpt>
      <trkpt lat="43.25724" lon="5.49554">
        <ele>463.95</ele>
        <time>2016-10-04T12:03:55Z</time>
      </trkpt>
      <trkpt lat="43.25724" lon="5.49561">
        <ele>463.69</ele>
        <time>2016-10-04T12:04:04Z</time>
      </trkpt>
      <trkpt lat="43.25728" lon="5.49571">
        <ele>463.81</ele>
        <time>2016-10-04T12:04:14Z</time>
      </trkpt>
      <trkpt lat="43.2573" lon="5.49574">
        <ele>463.99</ele>
        <time>2016-10-04T12:04:17Z</time>
      </trkpt>
      <trkpt lat="43.25733" lon="5.49586">
        <ele>464.99</ele>
        <time>2016-10-04T12:04:27Z</time>
      </trkpt>
      <trkpt lat="43.25735" lon="5.49597">
        <ele>465.02</ele>
        <time>2016-10-04T12:04:36Z</time>
      </trkpt>
      <trkpt lat="43.2574" lon="5.49607">
        <ele>464.94</ele>
        <time>2016-10-04T12:04:45Z</time>
      </trkpt>
      <trkpt lat="43.25742" lon="5.49611">
        <ele>465.82</ele>
        <time>2016-10-04T12:04:55Z</time>
      </trkpt>
      <trkpt lat="43.25742" lon="5.49611">
        <ele>466.26</ele>
        <time>2016-10-04T12:05:06Z</time>
      </trkpt>
      <trkpt lat="43.25743" lon="5.49612">
        <ele>466.48</ele>
        <time>2016-10-04T12:05:22Z</time>
      </trkpt>
      <trkpt lat="43.25744" lon="5.49619">
        <ele>466.63</ele>
        <time>2016-10-04T12:05:31Z</time>
      </trkpt>
      <trkpt lat="43.25746" lon="5.4963">
        <ele>466.43</ele>
        <time>2016-10-04T12:05:40Z</time>
      </trkpt>
      <trkpt lat="43.25748" lon="5.49646">
        <ele>466.34</ele>
        <time>2016-10-04T12:05:51Z</time>
      </trkpt>
      <trkpt lat="43.25751" lon="5.49659">
        <ele>466.12</ele>
        <time>2016-10-04T12:06:01Z</time>
      </trkpt>
      <trkpt lat="43.25752" lon="5.49668">
        <ele>466.34</ele>
        <time>2016-10-04T12:06:08Z</time>
      </trkpt>
      <trkpt lat="43.25753" lon="5.49675">
        <ele>467.1</ele>
        <time>2016-10-04T12:06:16Z</time>
      </trkpt>
      <trkpt lat="43.25757" lon="5.49684">
        <ele>467.32</ele>
        <time>2016-10-04T12:06:24Z</time>
      </trkpt>
      <trkpt lat="43.25762" lon="5.49696">
        <ele>467.33</ele>
        <time>2016-10-04T12:06:33Z</time>
      </trkpt>
      <trkpt lat="43.25763" lon="5.49703">
        <ele>467.11</ele>
        <time>2016-10-04T12:06:40Z</time>
      </trkpt>
      <trkpt lat="43.25763" lon="5.49706">
        <ele>467.24</ele>
        <time>2016-10-04T12:06:42Z</time>
      </trkpt>
      <trkpt lat="43.2577" lon="5.49717">
        <ele>467.68</ele>
        <time>2016-10-04T12:06:51Z</time>
      </trkpt>
      <trkpt lat="43.25775" lon="5.49727">
        <ele>467.61</ele>
        <time>2016-10-04T12:07:00Z</time>
      </trkpt>
      <trkpt lat="43.25775" lon="5.49731">
        <ele>467.99</ele>
        <time>2016-10-04T12:07:08Z</time>
      </trkpt>
      <trkpt lat="43.25774" lon="5.49737">
        <ele>468.54</ele>
        <time>2016-10-04T12:07:16Z</time>
      </trkpt>
      <trkpt lat="43.25775" lon="5.49748">
        <ele>469.1</ele>
        <time>2016-10-04T12:07:25Z</time>
      </trkpt>
      <trkpt lat="43.2578" lon="5.49758">
        <ele>469.27</ele>
        <time>2016-10-04T12:07:34Z</time>
      </trkpt>
      <trkpt lat="43.25786" lon="5.49766">
        <ele>470.22</ele>
        <time>2016-10-04T12:07:43Z</time>
      </trkpt>
      <trkpt lat="43.25791" lon="5.49775">
        <ele>471.11</ele>
        <time>2016-10-04T12:07:52Z</time>
      </trkpt>
      <trkpt lat="43.25795" lon="5.49785">
        <ele>472.01</ele>
        <time>2016-10-04T12:08:01Z</time>
      </trkpt>
      <trkpt lat="43.25801" lon="5.49794">
        <ele>474</ele>
        <time>2016-10-04T12:08:11Z</time>
      </trkpt>
      <trkpt lat="43.25807" lon="5.49801">
        <ele>475.26</ele>
        <time>2016-10-04T12:08:22Z</time>
      </trkpt>
      <trkpt lat="43.25812" lon="5.49809">
        <ele>476.85</ele>
        <time>2016-10-04T12:08:33Z</time>
      </trkpt>
      <trkpt lat="43.25814" lon="5.49815">
        <ele>478.76</ele>
        <time>2016-10-04T12:08:45Z</time>
      </trkpt>
      <trkpt lat="43.25818" lon="5.4982">
        <ele>480.24</ele>
        <time>2016-10-04T12:08:54Z</time>
      </trkpt>
      <trkpt lat="43.25822" lon="5.49827">
        <ele>482.38</ele>
        <time>2016-10-04T12:09:04Z</time>
      </trkpt>
      <trkpt lat="43.25824" lon="5.49829">
        <ele>483.88</ele>
        <time>2016-10-04T12:09:22Z</time>
      </trkpt>
      <trkpt lat="43.25825" lon="5.4983">
        <ele>483.97</ele>
        <time>2016-10-04T12:09:23Z</time>
      </trkpt>
      <trkpt lat="43.25831" lon="5.49835">
        <ele>484.39</ele>
        <time>2016-10-04T12:09:31Z</time>
      </trkpt>
      <trkpt lat="43.25835" lon="5.49838">
        <ele>485.48</ele>
        <time>2016-10-04T12:09:42Z</time>
      </trkpt>
      <trkpt lat="43.25835" lon="5.49838">
        <ele>486.29</ele>
        <time>2016-10-04T12:09:52Z</time>
      </trkpt>
      <trkpt lat="43.2584" lon="5.49843">
        <ele>486.18</ele>
        <time>2016-10-04T12:10:02Z</time>
      </trkpt>
      <trkpt lat="43.25845" lon="5.49848">
        <ele>487.11</ele>
        <time>2016-10-04T12:10:12Z</time>
      </trkpt>
      <trkpt lat="43.2585" lon="5.49854">
        <ele>488.09</ele>
        <time>2016-10-04T12:10:22Z</time>
      </trkpt>
      <trkpt lat="43.25851" lon="5.49861">
        <ele>489.36</ele>
        <time>2016-10-04T12:10:31Z</time>
      </trkpt>
      <trkpt lat="43.25852" lon="5.49861">
        <ele>490.76</ele>
        <time>2016-10-04T12:10:40Z</time>
      </trkpt>
      <trkpt lat="43.25854" lon="5.49861">
        <ele>490.57</ele>
        <time>2016-10-04T12:10:53Z</time>
      </trkpt>
      <trkpt lat="43.25855" lon="5.4986">
        <ele>490.05</ele>
        <time>2016-10-04T12:11:10Z</time>
      </trkpt>
      <trkpt lat="43.25857" lon="5.4986">
        <ele>489.75</ele>
        <time>2016-10-04T12:11:21Z</time>
      </trkpt>
      <trkpt lat="43.25861" lon="5.49859">
        <ele>489.84</ele>
        <time>2016-10-04T12:11:35Z</time>
      </trkpt>
      <trkpt lat="43.25868" lon="5.49858">
        <ele>488.94</ele>
        <time>2016-10-04T12:11:43Z</time>
      </trkpt>
      <trkpt lat="43.25876" lon="5.49855">
        <ele>487.5</ele>
        <time>2016-10-04T12:11:53Z</time>
      </trkpt>
      <trkpt lat="43.25879" lon="5.49853">
        <ele>486.68</ele>
        <time>2016-10-04T12:12:01Z</time>
      </trkpt>
      <trkpt lat="43.25884" lon="5.49851">
        <ele>486.11</ele>
        <time>2016-10-04T12:12:09Z</time>
      </trkpt>
      <trkpt lat="43.25888" lon="5.49848">
        <ele>484.85</ele>
        <time>2016-10-04T12:12:16Z</time>
      </trkpt>
      <trkpt lat="43.25892" lon="5.49843">
        <ele>482.51</ele>
        <time>2016-10-04T12:12:25Z</time>
      </trkpt>
      <trkpt lat="43.25898" lon="5.49834">
        <ele>481.31</ele>
        <time>2016-10-04T12:12:35Z</time>
      </trkpt>
      <trkpt lat="43.25906" lon="5.49828">
        <ele>479.86</ele>
        <time>2016-10-04T12:12:45Z</time>
      </trkpt>
      <trkpt lat="43.25912" lon="5.49824">
        <ele>478.51</ele>
        <time>2016-10-04T12:12:54Z</time>
      </trkpt>
      <trkpt lat="43.25917" lon="5.49815">
        <ele>476.97</ele>
        <time>2016-10-04T12:13:04Z</time>
      </trkpt>
      <trkpt lat="43.25918" lon="5.49811">
        <ele>475.59</ele>
        <time>2016-10-04T12:13:12Z</time>
      </trkpt>
      <trkpt lat="43.25923" lon="5.49808">
        <ele>474.66</ele>
        <time>2016-10-04T12:13:21Z</time>
      </trkpt>
      <trkpt lat="43.25928" lon="5.49803">
        <ele>473.7</ele>
        <time>2016-10-04T12:13:29Z</time>
      </trkpt>
      <trkpt lat="43.25937" lon="5.49796">
        <ele>471.52</ele>
        <time>2016-10-04T12:13:40Z</time>
      </trkpt>
      <trkpt lat="43.25945" lon="5.49791">
        <ele>470.48</ele>
        <time>2016-10-04T12:13:49Z</time>
      </trkpt>
      <trkpt lat="43.25952" lon="5.49787">
        <ele>469.44</ele>
        <time>2016-10-04T12:13:57Z</time>
      </trkpt>
      <trkpt lat="43.25957" lon="5.49781">
        <ele>467.89</ele>
        <time>2016-10-04T12:14:06Z</time>
      </trkpt>
      <trkpt lat="43.25958" lon="5.4978">
        <ele>467.81</ele>
        <time>2016-10-04T12:14:07Z</time>
      </trkpt>
      <trkpt lat="43.25963" lon="5.49774">
        <ele>466.59</ele>
        <time>2016-10-04T12:14:14Z</time>
      </trkpt>
      <trkpt lat="43.25969" lon="5.49767">
        <ele>465.08</ele>
        <time>2016-10-04T12:14:23Z</time>
      </trkpt>
      <trkpt lat="43.25972" lon="5.49765">
        <ele>464.17</ele>
        <time>2016-10-04T12:14:32Z</time>
      </trkpt>
      <trkpt lat="43.25974" lon="5.49765">
        <ele>464</ele>
        <time>2016-10-04T12:14:34Z</time>
      </trkpt>
      <trkpt lat="43.25979" lon="5.49761">
        <ele>463.19</ele>
        <time>2016-10-04T12:14:43Z</time>
      </trkpt>
      <trkpt lat="43.25979" lon="5.49755">
        <ele>462.34</ele>
        <time>2016-10-04T12:14:51Z</time>
      </trkpt>
      <trkpt lat="43.2598" lon="5.49756">
        <ele>461.66</ele>
        <time>2016-10-04T12:15:02Z</time>
      </trkpt>
      <trkpt lat="43.25981" lon="5.49755">
        <ele>461.72</ele>
        <time>2016-10-04T12:15:08Z</time>
      </trkpt>
      <trkpt lat="43.25986" lon="5.49754">
        <ele>461.61</ele>
        <time>2016-10-04T12:15:13Z</time>
      </trkpt>
      <trkpt lat="43.25993" lon="5.49749">
        <ele>460.61</ele>
        <time>2016-10-04T12:15:22Z</time>
      </trkpt>
      <trkpt lat="43.25997" lon="5.49742">
        <ele>459.49</ele>
        <time>2016-10-04T12:15:31Z</time>
      </trkpt>
      <trkpt lat="43.25998" lon="5.49738">
        <ele>458.77</ele>
        <time>2016-10-04T12:15:39Z</time>
      </trkpt>
      <trkpt lat="43.26" lon="5.49733">
        <ele>457.6</ele>
        <time>2016-10-04T12:15:47Z</time>
      </trkpt>
      <trkpt lat="43.26008" lon="5.49723">
        <ele>456.02</ele>
        <time>2016-10-04T12:15:59Z</time>
      </trkpt>
      <trkpt lat="43.26012" lon="5.49721">
        <ele>455.45</ele>
        <time>2016-10-04T12:16:08Z</time>
      </trkpt>
      <trkpt lat="43.2602" lon="5.49716">
        <ele>454.4</ele>
        <time>2016-10-04T12:16:18Z</time>
      </trkpt>
      <trkpt lat="43.26027" lon="5.49708">
        <ele>453.1</ele>
        <time>2016-10-04T12:16:27Z</time>
      </trkpt>
      <trkpt lat="43.26031" lon="5.49704">
        <ele>452.22</ele>
        <time>2016-10-04T12:16:36Z</time>
      </trkpt>
      <trkpt lat="43.26038" lon="5.49696">
        <ele>451.38</ele>
        <time>2016-10-04T12:16:45Z</time>
      </trkpt>
      <trkpt lat="43.26039" lon="5.49694">
        <ele>451.22</ele>
        <time>2016-10-04T12:16:47Z</time>
      </trkpt>
      <trkpt lat="43.26041" lon="5.49688">
        <ele>450.3</ele>
        <time>2016-10-04T12:16:57Z</time>
      </trkpt>
      <trkpt lat="43.26042" lon="5.49685">
        <ele>449.92</ele>
        <time>2016-10-04T12:17:00Z</time>
      </trkpt>
      <trkpt lat="43.26046" lon="5.49675">
        <ele>448.75</ele>
        <time>2016-10-04T12:17:10Z</time>
      </trkpt>
      <trkpt lat="43.2605" lon="5.49671">
        <ele>447.86</ele>
        <time>2016-10-04T12:17:16Z</time>
      </trkpt>
      <trkpt lat="43.2606" lon="5.4966">
        <ele>446.16</ele>
        <time>2016-10-04T12:17:28Z</time>
      </trkpt>
      <trkpt lat="43.26064" lon="5.49656">
        <ele>445.35</ele>
        <time>2016-10-04T12:17:33Z</time>
      </trkpt>
      <trkpt lat="43.26069" lon="5.49643">
        <ele>443.8</ele>
        <time>2016-10-04T12:17:44Z</time>
      </trkpt>
      <trkpt lat="43.26075" lon="5.49633">
        <ele>442.5</ele>
        <time>2016-10-04T12:17:54Z</time>
      </trkpt>
      <trkpt lat="43.26079" lon="5.4963">
        <ele>441.47</ele>
        <time>2016-10-04T12:18:03Z</time>
      </trkpt>
      <trkpt lat="43.26081" lon="5.49629">
        <ele>441.14</ele>
        <time>2016-10-04T12:18:06Z</time>
      </trkpt>
      <trkpt lat="43.26088" lon="5.49627">
        <ele>439.8</ele>
        <time>2016-10-04T12:18:15Z</time>
      </trkpt>
      <trkpt lat="43.26089" lon="5.49625">
        <ele>439.55</ele>
        <time>2016-10-04T12:18:17Z</time>
      </trkpt>
      <trkpt lat="43.26097" lon="5.49616">
        <ele>438.57</ele>
        <time>2016-10-04T12:18:27Z</time>
      </trkpt>
      <trkpt lat="43.26103" lon="5.49606">
        <ele>437.33</ele>
        <time>2016-10-04T12:18:37Z</time>
      </trkpt>
      <trkpt lat="43.26109" lon="5.496">
        <ele>435.96</ele>
        <time>2016-10-04T12:18:46Z</time>
      </trkpt>
      <trkpt lat="43.26116" lon="5.49593">
        <ele>434.76</ele>
        <time>2016-10-04T12:18:56Z</time>
      </trkpt>
      <trkpt lat="43.2612" lon="5.49587">
        <ele>433.75</ele>
        <time>2016-10-04T12:19:04Z</time>
      </trkpt>
      <trkpt lat="43.26125" lon="5.49585">
        <ele>433.05</ele>
        <time>2016-10-04T12:19:13Z</time>
      </trkpt>
      <trkpt lat="43.26131" lon="5.49584">
        <ele>432.13</ele>
        <time>2016-10-04T12:19:21Z</time>
      </trkpt>
      <trkpt lat="43.26142" lon="5.49578">
        <ele>430.21</ele>
        <time>2016-10-04T12:19:33Z</time>
      </trkpt>
      <trkpt lat="43.2615" lon="5.49573">
        <ele>428.87</ele>
        <time>2016-10-04T12:19:42Z</time>
      </trkpt>
      <trkpt lat="43.26156" lon="5.4957">
        <ele>427.02</ele>
        <time>2016-10-04T12:19:53Z</time>
      </trkpt>
      <trkpt lat="43.26158" lon="5.49569">
        <ele>426.58</ele>
        <time>2016-10-04T12:19:58Z</time>
      </trkpt>
      <trkpt lat="43.26161" lon="5.49568">
        <ele>426.35</ele>
        <time>2016-10-04T12:20:01Z</time>
      </trkpt>
      <trkpt lat="43.26171" lon="5.49565">
        <ele>424.55</ele>
        <time>2016-10-04T12:20:11Z</time>
      </trkpt>
      <trkpt lat="43.26178" lon="5.49564">
        <ele>422.99</ele>
        <time>2016-10-04T12:20:19Z</time>
      </trkpt>
      <trkpt lat="43.26184" lon="5.49559">
        <ele>421.21</ele>
        <time>2016-10-04T12:20:29Z</time>
      </trkpt>
      <trkpt lat="43.26188" lon="5.49557">
        <ele>419.79</ele>
        <time>2016-10-04T12:20:37Z</time>
      </trkpt>
      <trkpt lat="43.26189" lon="5.49559">
        <ele>419.05</ele>
        <time>2016-10-04T12:20:48Z</time>
      </trkpt>
      <trkpt lat="43.26192" lon="5.49562">
        <ele>418.46</ele>
        <time>2016-10-04T12:20:53Z</time>
      </trkpt>
      <trkpt lat="43.26195" lon="5.49571">
        <ele>416.95</ele>
        <time>2016-10-04T12:21:02Z</time>
      </trkpt>
      <trkpt lat="43.26199" lon="5.49577">
        <ele>415.12</ele>
        <time>2016-10-04T12:21:11Z</time>
      </trkpt>
      <trkpt lat="43.26204" lon="5.49581">
        <ele>413.73</ele>
        <time>2016-10-04T12:21:19Z</time>
      </trkpt>
      <trkpt lat="43.26205" lon="5.49581">
        <ele>413.61</ele>
        <time>2016-10-04T12:21:20Z</time>
      </trkpt>
      <trkpt lat="43.26209" lon="5.49582">
        <ele>412.94</ele>
        <time>2016-10-04T12:21:24Z</time>
      </trkpt>
      <trkpt lat="43.26218" lon="5.49584">
        <ele>410.84</ele>
        <time>2016-10-04T12:21:34Z</time>
      </trkpt>
      <trkpt lat="43.26226" lon="5.49584">
        <ele>409.3</ele>
        <time>2016-10-04T12:21:43Z</time>
      </trkpt>
      <trkpt lat="43.26228" lon="5.49585">
        <ele>408.51</ele>
        <time>2016-10-04T12:21:51Z</time>
      </trkpt>
      <trkpt lat="43.26231" lon="5.49587">
        <ele>407.84</ele>
        <time>2016-10-04T12:22:01Z</time>
      </trkpt>
      <trkpt lat="43.26231" lon="5.49587">
        <ele>407.76</ele>
        <time>2016-10-04T12:22:15Z</time>
      </trkpt>
      <trkpt lat="43.26231" lon="5.49587">
        <ele>407.87</ele>
        <time>2016-10-04T12:22:31Z</time>
      </trkpt>
      <trkpt lat="43.26232" lon="5.49587">
        <ele>407.76</ele>
        <time>2016-10-04T12:22:52Z</time>
      </trkpt>
      <trkpt lat="43.26231" lon="5.49586">
        <ele>407.59</ele>
        <time>2016-10-04T12:23:11Z</time>
      </trkpt>
      <trkpt lat="43.26232" lon="5.49586">
        <ele>407.51</ele>
        <time>2016-10-04T12:23:37Z</time>
      </trkpt>
      <trkpt lat="43.26232" lon="5.49586">
        <ele>407.56</ele>
        <time>2016-10-04T12:24:04Z</time>
      </trkpt>
      <trkpt lat="43.26232" lon="5.49585">
        <ele>407.49</ele>
        <time>2016-10-04T12:24:32Z</time>
      </trkpt>
      <trkpt lat="43.26234" lon="5.49587">
        <ele>407.53</ele>
        <time>2016-10-04T12:24:37Z</time>
      </trkpt>
      <trkpt lat="43.26243" lon="5.49595">
        <ele>406.91</ele>
        <time>2016-10-04T12:24:48Z</time>
      </trkpt>
      <trkpt lat="43.26249" lon="5.496">
        <ele>405.96</ele>
        <time>2016-10-04T12:24:55Z</time>
      </trkpt>
      <trkpt lat="43.26255" lon="5.49607">
        <ele>404.8</ele>
        <time>2016-10-04T12:25:04Z</time>
      </trkpt>
      <trkpt lat="43.26264" lon="5.49611">
        <ele>403.62</ele>
        <time>2016-10-04T12:25:13Z</time>
      </trkpt>
      <trkpt lat="43.26266" lon="5.49614">
        <ele>403.28</ele>
        <time>2016-10-04T12:25:15Z</time>
      </trkpt>
      <trkpt lat="43.26272" lon="5.49618">
        <ele>401.65</ele>
        <time>2016-10-04T12:25:24Z</time>
      </trkpt>
      <trkpt lat="43.26279" lon="5.49628">
        <ele>401.95</ele>
        <time>2016-10-04T12:25:36Z</time>
      </trkpt>
      <trkpt lat="43.26282" lon="5.49636">
        <ele>402.77</ele>
        <time>2016-10-04T12:25:45Z</time>
      </trkpt>
      <trkpt lat="43.26285" lon="5.49642">
        <ele>403.33</ele>
        <time>2016-10-04T12:25:52Z</time>
      </trkpt>
      <trkpt lat="43.26289" lon="5.49652">
        <ele>403.66</ele>
        <time>2016-10-04T12:26:01Z</time>
      </trkpt>
      <trkpt lat="43.2629" lon="5.49658">
        <ele>404.2</ele>
        <time>2016-10-04T12:26:07Z</time>
      </trkpt>
      <trkpt lat="43.26291" lon="5.49671">
        <ele>405.07</ele>
        <time>2016-10-04T12:26:17Z</time>
      </trkpt>
      <trkpt lat="43.2629" lon="5.49683">
        <ele>405.55</ele>
        <time>2016-10-04T12:26:25Z</time>
      </trkpt>
      <trkpt lat="43.26291" lon="5.49695">
        <ele>406.18</ele>
        <time>2016-10-04T12:26:33Z</time>
      </trkpt>
      <trkpt lat="43.26291" lon="5.49699">
        <ele>406.29</ele>
        <time>2016-10-04T12:26:36Z</time>
      </trkpt>
      <trkpt lat="43.26292" lon="5.49702">
        <ele>406.32</ele>
        <time>2016-10-04T12:26:38Z</time>
      </trkpt>
      <trkpt lat="43.26292" lon="5.49715">
        <ele>406.17</ele>
        <time>2016-10-04T12:26:48Z</time>
      </trkpt>
      <trkpt lat="43.26293" lon="5.49718">
        <ele>405.8</ele>
        <time>2016-10-04T12:26:54Z</time>
      </trkpt>
      <trkpt lat="43.26292" lon="5.4973">
        <ele>405.47</ele>
        <time>2016-10-04T12:27:02Z</time>
      </trkpt>
      <trkpt lat="43.26293" lon="5.49732">
        <ele>405.41</ele>
        <time>2016-10-04T12:27:03Z</time>
      </trkpt>
      <trkpt lat="43.26293" lon="5.49742">
        <ele>404.8</ele>
        <time>2016-10-04T12:27:12Z</time>
      </trkpt>
      <trkpt lat="43.26292" lon="5.49746">
        <ele>404.52</ele>
        <time>2016-10-04T12:27:16Z</time>
      </trkpt>
      <trkpt lat="43.2629" lon="5.4976">
        <ele>403.7</ele>
        <time>2016-10-04T12:27:25Z</time>
      </trkpt>
      <trkpt lat="43.26292" lon="5.49775">
        <ele>403.23</ele>
        <time>2016-10-04T12:27:35Z</time>
      </trkpt>
      <trkpt lat="43.26294" lon="5.49789">
        <ele>403.3</ele>
        <time>2016-10-04T12:27:44Z</time>
      </trkpt>
      <trkpt lat="43.26295" lon="5.49801">
        <ele>403.39</ele>
        <time>2016-10-04T12:27:53Z</time>
      </trkpt>
      <trkpt lat="43.26294" lon="5.4981">
        <ele>402.75</ele>
        <time>2016-10-04T12:28:01Z</time>
      </trkpt>
      <trkpt lat="43.26293" lon="5.4982">
        <ele>401.79</ele>
        <time>2016-10-04T12:28:10Z</time>
      </trkpt>
      <trkpt lat="43.26291" lon="5.49831">
        <ele>400.78</ele>
        <time>2016-10-04T12:28:18Z</time>
      </trkpt>
      <trkpt lat="43.2629" lon="5.49844">
        <ele>398.84</ele>
        <time>2016-10-04T12:28:28Z</time>
      </trkpt>
      <trkpt lat="43.2629" lon="5.49856">
        <ele>397.89</ele>
        <time>2016-10-04T12:28:37Z</time>
      </trkpt>
      <trkpt lat="43.26288" lon="5.49864">
        <ele>396.69</ele>
        <time>2016-10-04T12:28:45Z</time>
      </trkpt>
      <trkpt lat="43.26288" lon="5.49865">
        <ele>396.39</ele>
        <time>2016-10-04T12:28:46Z</time>
      </trkpt>
      <trkpt lat="43.26285" lon="5.49877">
        <ele>394.9</ele>
        <time>2016-10-04T12:28:56Z</time>
      </trkpt>
      <trkpt lat="43.26285" lon="5.49883">
        <ele>394.09</ele>
        <time>2016-10-04T12:29:01Z</time>
      </trkpt>
      <trkpt lat="43.26284" lon="5.49899">
        <ele>393.1</ele>
        <time>2016-10-04T12:29:12Z</time>
      </trkpt>
      <trkpt lat="43.26284" lon="5.49899">
        <ele>393.07</ele>
        <time>2016-10-04T12:29:18Z</time>
      </trkpt>
      <trkpt lat="43.26283" lon="5.49903">
        <ele>393.21</ele>
        <time>2016-10-04T12:29:23Z</time>
      </trkpt>
      <trkpt lat="43.26281" lon="5.49909">
        <ele>392.55</ele>
        <time>2016-10-04T12:29:31Z</time>
      </trkpt>
      <trkpt lat="43.26281" lon="5.49913">
        <ele>392.24</ele>
        <time>2016-10-04T12:29:34Z</time>
      </trkpt>
      <trkpt lat="43.26283" lon="5.49917">
        <ele>391.88</ele>
        <time>2016-10-04T12:29:41Z</time>
      </trkpt>
      <trkpt lat="43.26284" lon="5.49917">
        <ele>392.37</ele>
        <time>2016-10-04T12:29:51Z</time>
      </trkpt>
      <trkpt lat="43.26286" lon="5.49913">
        <ele>392.63</ele>
        <time>2016-10-04T12:30:00Z</time>
      </trkpt>
      <trkpt lat="43.26291" lon="5.49903">
        <ele>393.16</ele>
        <time>2016-10-04T12:30:10Z</time>
      </trkpt>
      <trkpt lat="43.26292" lon="5.49898">
        <ele>393.69</ele>
        <time>2016-10-04T12:30:18Z</time>
      </trkpt>
      <trkpt lat="43.26299" lon="5.49892">
        <ele>394.92</ele>
        <time>2016-10-04T12:30:30Z</time>
      </trkpt>
      <trkpt lat="43.26301" lon="5.49896">
        <ele>395.54</ele>
        <time>2016-10-04T12:30:38Z</time>
      </trkpt>
      <trkpt lat="43.26305" lon="5.49899">
        <ele>395.44</ele>
        <time>2016-10-04T12:30:46Z</time>
      </trkpt>
      <trkpt lat="43.26309" lon="5.499">
        <ele>395.19</ele>
        <time>2016-10-04T12:30:55Z</time>
      </trkpt>
      <trkpt lat="43.26313" lon="5.49901">
        <ele>394.84</ele>
        <time>2016-10-04T12:30:59Z</time>
      </trkpt>
      <trkpt lat="43.26317" lon="5.49901">
        <ele>394.15</ele>
        <time>2016-10-04T12:31:07Z</time>
      </trkpt>
      <trkpt lat="43.26321" lon="5.49903">
        <ele>393.27</ele>
        <time>2016-10-04T12:31:19Z</time>
      </trkpt>
      <trkpt lat="43.26324" lon="5.49904">
        <ele>392.26</ele>
        <time>2016-10-04T12:31:27Z</time>
      </trkpt>
      <trkpt lat="43.2633" lon="5.49905">
        <ele>391.31</ele>
        <time>2016-10-04T12:31:39Z</time>
      </trkpt>
      <trkpt lat="43.26335" lon="5.49907">
        <ele>390.14</ele>
        <time>2016-10-04T12:31:47Z</time>
      </trkpt>
      <trkpt lat="43.26338" lon="5.49909">
        <ele>388.98</ele>
        <time>2016-10-04T12:31:54Z</time>
      </trkpt>
      <trkpt lat="43.26344" lon="5.49909">
        <ele>386.99</ele>
        <time>2016-10-04T12:32:06Z</time>
      </trkpt>
      <trkpt lat="43.26349" lon="5.49911">
        <ele>386.3</ele>
        <time>2016-10-04T12:32:14Z</time>
      </trkpt>
      <trkpt lat="43.26352" lon="5.49914">
        <ele>384.92</ele>
        <time>2016-10-04T12:32:23Z</time>
      </trkpt>
      <trkpt lat="43.26357" lon="5.49919">
        <ele>383.77</ele>
        <time>2016-10-04T12:32:31Z</time>
      </trkpt>
      <trkpt lat="43.26359" lon="5.49921">
        <ele>382.33</ele>
        <time>2016-10-04T12:32:38Z</time>
      </trkpt>
      <trkpt lat="43.2636" lon="5.49925">
        <ele>381.3</ele>
        <time>2016-10-04T12:32:50Z</time>
      </trkpt>
      <trkpt lat="43.26362" lon="5.49933">
        <ele>380.17</ele>
        <time>2016-10-04T12:32:59Z</time>
      </trkpt>
      <trkpt lat="43.26361" lon="5.49935">
        <ele>379.16</ele>
        <time>2016-10-04T12:33:10Z</time>
      </trkpt>
      <trkpt lat="43.26359" lon="5.49942">
        <ele>377.72</ele>
        <time>2016-10-04T12:33:19Z</time>
      </trkpt>
      <trkpt lat="43.26358" lon="5.49943">
        <ele>376.15</ele>
        <time>2016-10-04T12:33:31Z</time>
      </trkpt>
      <trkpt lat="43.2636" lon="5.49943">
        <ele>375.62</ele>
        <time>2016-10-04T12:33:53Z</time>
      </trkpt>
      <trkpt lat="43.26358" lon="5.49948">
        <ele>375.36</ele>
        <time>2016-10-04T12:34:03Z</time>
      </trkpt>
      <trkpt lat="43.26357" lon="5.49952">
        <ele>374.04</ele>
        <time>2016-10-04T12:34:12Z</time>
      </trkpt>
      <trkpt lat="43.26355" lon="5.49954">
        <ele>372.62</ele>
        <time>2016-10-04T12:34:29Z</time>
      </trkpt>
      <trkpt lat="43.26353" lon="5.49957">
        <ele>371.07</ele>
        <time>2016-10-04T12:34:47Z</time>
      </trkpt>
      <trkpt lat="43.26353" lon="5.4996">
        <ele>371</ele>
        <time>2016-10-04T12:34:58Z</time>
      </trkpt>
      <trkpt lat="43.26354" lon="5.49965">
        <ele>369.5</ele>
        <time>2016-10-04T12:35:10Z</time>
      </trkpt>
      <trkpt lat="43.26353" lon="5.49969">
        <ele>368.68</ele>
        <time>2016-10-04T12:35:20Z</time>
      </trkpt>
      <trkpt lat="43.26351" lon="5.49972">
        <ele>367.89</ele>
        <time>2016-10-04T12:35:31Z</time>
      </trkpt>
      <trkpt lat="43.2635" lon="5.49976">
        <ele>366.89</ele>
        <time>2016-10-04T12:35:42Z</time>
      </trkpt>
      <trkpt lat="43.2635" lon="5.49981">
        <ele>365.88</ele>
        <time>2016-10-04T12:35:52Z</time>
      </trkpt>
      <trkpt lat="43.26348" lon="5.49988">
        <ele>364.95</ele>
        <time>2016-10-04T12:36:01Z</time>
      </trkpt>
      <trkpt lat="43.26346" lon="5.49989">
        <ele>363.63</ele>
        <time>2016-10-04T12:36:11Z</time>
      </trkpt>
      <trkpt lat="43.26344" lon="5.49989">
        <ele>363.01</ele>
        <time>2016-10-04T12:36:21Z</time>
      </trkpt>
      <trkpt lat="43.26344" lon="5.49992">
        <ele>362.23</ele>
        <time>2016-10-04T12:36:31Z</time>
      </trkpt>
      <trkpt lat="43.26345" lon="5.49993">
        <ele>361.89</ele>
        <time>2016-10-04T12:36:43Z</time>
      </trkpt>
      <trkpt lat="43.2634" lon="5.49995">
        <ele>361.2</ele>
        <time>2016-10-04T12:36:52Z</time>
      </trkpt>
      <trkpt lat="43.26335" lon="5.49997">
        <ele>360.86</ele>
        <time>2016-10-04T12:37:02Z</time>
      </trkpt>
      <trkpt lat="43.26335" lon="5.49997">
        <ele>360.97</ele>
        <time>2016-10-04T12:37:06Z</time>
      </trkpt>
      <trkpt lat="43.26333" lon="5.50001">
        <ele>360.98</ele>
        <time>2016-10-04T12:37:09Z</time>
      </trkpt>
      <trkpt lat="43.2633" lon="5.50012">
        <ele>360.1</ele>
        <time>2016-10-04T12:37:18Z</time>
      </trkpt>
      <trkpt lat="43.26331" lon="5.50024">
        <ele>358.24</ele>
        <time>2016-10-04T12:37:27Z</time>
      </trkpt>
      <trkpt lat="43.2633" lon="5.5003">
        <ele>356.79</ele>
        <time>2016-10-04T12:37:34Z</time>
      </trkpt>
      <trkpt lat="43.2633" lon="5.50032">
        <ele>355.61</ele>
        <time>2016-10-04T12:37:44Z</time>
      </trkpt>
      <trkpt lat="43.2633" lon="5.50032">
        <ele>356.01</ele>
        <time>2016-10-04T12:38:01Z</time>
      </trkpt>
      <trkpt lat="43.26329" lon="5.50033">
        <ele>356.04</ele>
        <time>2016-10-04T12:38:02Z</time>
      </trkpt>
      <trkpt lat="43.26327" lon="5.50043">
        <ele>355.98</ele>
        <time>2016-10-04T12:38:09Z</time>
      </trkpt>
      <trkpt lat="43.26328" lon="5.50054">
        <ele>354.93</ele>
        <time>2016-10-04T12:38:18Z</time>
      </trkpt>
      <trkpt lat="43.26331" lon="5.50064">
        <ele>352.91</ele>
        <time>2016-10-04T12:38:27Z</time>
      </trkpt>
      <trkpt lat="43.26331" lon="5.50072">
        <ele>351.15</ele>
        <time>2016-10-04T12:38:37Z</time>
      </trkpt>
      <trkpt lat="43.26333" lon="5.50075">
        <ele>349.63</ele>
        <time>2016-10-04T12:38:46Z</time>
      </trkpt>
      <trkpt lat="43.26332" lon="5.50076">
        <ele>349.1</ele>
        <time>2016-10-04T12:38:55Z</time>
      </trkpt>
      <trkpt lat="43.26332" lon="5.50082">
        <ele>348.95</ele>
        <time>2016-10-04T12:39:05Z</time>
      </trkpt>
      <trkpt lat="43.26332" lon="5.50088">
        <ele>347.64</ele>
        <time>2016-10-04T12:39:13Z</time>
      </trkpt>
      <trkpt lat="43.26333" lon="5.50095">
        <ele>346.37</ele>
        <time>2016-10-04T12:39:22Z</time>
      </trkpt>
      <trkpt lat="43.26333" lon="5.50105">
        <ele>344.61</ele>
        <time>2016-10-04T12:39:31Z</time>
      </trkpt>
      <trkpt lat="43.26334" lon="5.50111">
        <ele>343.49</ele>
        <time>2016-10-04T12:39:38Z</time>
      </trkpt>
      <trkpt lat="43.26337" lon="5.50117">
        <ele>342.44</ele>
        <time>2016-10-04T12:39:46Z</time>
      </trkpt>
      <trkpt lat="43.26343" lon="5.50124">
        <ele>340.5</ele>
        <time>2016-10-04T12:39:56Z</time>
      </trkpt>
      <trkpt lat="43.26343" lon="5.50124">
        <ele>339.6</ele>
        <time>2016-10-04T12:40:13Z</time>
      </trkpt>
      <trkpt lat="43.26345" lon="5.50124">
        <ele>339.18</ele>
        <time>2016-10-04T12:40:25Z</time>
      </trkpt>
      <trkpt lat="43.26347" lon="5.50127">
        <ele>338.87</ele>
        <time>2016-10-04T12:40:30Z</time>
      </trkpt>
      <trkpt lat="43.2635" lon="5.50136">
        <ele>338.07</ele>
        <time>2016-10-04T12:40:38Z</time>
      </trkpt>
      <trkpt lat="43.26353" lon="5.50138">
        <ele>337.13</ele>
        <time>2016-10-04T12:40:46Z</time>
      </trkpt>
      <trkpt lat="43.26353" lon="5.50138">
        <ele>336.68</ele>
        <time>2016-10-04T12:40:57Z</time>
      </trkpt>
      <trkpt lat="43.26354" lon="5.5014">
        <ele>336.67</ele>
        <time>2016-10-04T12:41:15Z</time>
      </trkpt>
      <trkpt lat="43.26358" lon="5.50141">
        <ele>335.91</ele>
        <time>2016-10-04T12:41:24Z</time>
      </trkpt>
      <trkpt lat="43.26363" lon="5.50144">
        <ele>335.2</ele>
        <time>2016-10-04T12:41:40Z</time>
      </trkpt>
      <trkpt lat="43.26368" lon="5.50149">
        <ele>334.45</ele>
        <time>2016-10-04T12:41:48Z</time>
      </trkpt>
      <trkpt lat="43.26374" lon="5.50156">
        <ele>333.84</ele>
        <time>2016-10-04T12:41:57Z</time>
      </trkpt>
      <trkpt lat="43.26382" lon="5.50163">
        <ele>332.28</ele>
        <time>2016-10-04T12:42:08Z</time>
      </trkpt>
      <trkpt lat="43.26388" lon="5.50171">
        <ele>331.3</ele>
        <time>2016-10-04T12:42:17Z</time>
      </trkpt>
      <trkpt lat="43.26395" lon="5.50175">
        <ele>330.37</ele>
        <time>2016-10-04T12:42:26Z</time>
      </trkpt>
      <trkpt lat="43.26403" lon="5.50184">
        <ele>329.04</ele>
        <time>2016-10-04T12:42:36Z</time>
      </trkpt>
      <trkpt lat="43.26404" lon="5.50186">
        <ele>328.77</ele>
        <time>2016-10-04T12:42:38Z</time>
      </trkpt>
      <trkpt lat="43.26409" lon="5.50197">
        <ele>328.02</ele>
        <time>2016-10-04T12:42:46Z</time>
      </trkpt>
      <trkpt lat="43.2641" lon="5.50198">
        <ele>327.94</ele>
        <time>2016-10-04T12:42:47Z</time>
      </trkpt>
      <trkpt lat="43.26415" lon="5.50211">
        <ele>327.05</ele>
        <time>2016-10-04T12:42:56Z</time>
      </trkpt>
      <trkpt lat="43.26419" lon="5.50219">
        <ele>326.39</ele>
        <time>2016-10-04T12:43:04Z</time>
      </trkpt>
      <trkpt lat="43.26421" lon="5.50231">
        <ele>325.49</ele>
        <time>2016-10-04T12:43:13Z</time>
      </trkpt>
      <trkpt lat="43.26425" lon="5.50234">
        <ele>324.88</ele>
        <time>2016-10-04T12:43:20Z</time>
      </trkpt>
      <trkpt lat="43.26427" lon="5.50244">
        <ele>324.43</ele>
        <time>2016-10-04T12:43:30Z</time>
      </trkpt>
      <trkpt lat="43.26431" lon="5.50255">
        <ele>323.7</ele>
        <time>2016-10-04T12:43:39Z</time>
      </trkpt>
      <trkpt lat="43.26437" lon="5.50265">
        <ele>322.29</ele>
        <time>2016-10-04T12:43:48Z</time>
      </trkpt>
      <trkpt lat="43.26441" lon="5.50273">
        <ele>321.16</ele>
        <time>2016-10-04T12:43:56Z</time>
      </trkpt>
      <trkpt lat="43.26442" lon="5.50276">
        <ele>320.71</ele>
        <time>2016-10-04T12:43:59Z</time>
      </trkpt>
      <trkpt lat="43.26443" lon="5.5029">
        <ele>319.61</ele>
        <time>2016-10-04T12:44:09Z</time>
      </trkpt>
      <trkpt lat="43.26445" lon="5.50296">
        <ele>319.37</ele>
        <time>2016-10-04T12:44:13Z</time>
      </trkpt>
      <trkpt lat="43.26445" lon="5.50308">
        <ele>319.66</ele>
        <time>2016-10-04T12:44:23Z</time>
      </trkpt>
      <trkpt lat="43.26447" lon="5.50318">
        <ele>319.95</ele>
        <time>2016-10-04T12:44:32Z</time>
      </trkpt>
      <trkpt lat="43.26448" lon="5.50323">
        <ele>319.28</ele>
        <time>2016-10-04T12:44:40Z</time>
      </trkpt>
      <trkpt lat="43.26453" lon="5.50331">
        <ele>317.99</ele>
        <time>2016-10-04T12:44:48Z</time>
      </trkpt>
      <trkpt lat="43.26456" lon="5.50339">
        <ele>315.75</ele>
        <time>2016-10-04T12:44:56Z</time>
      </trkpt>
      <trkpt lat="43.26459" lon="5.50349">
        <ele>315.33</ele>
        <time>2016-10-04T12:45:06Z</time>
      </trkpt>
      <trkpt lat="43.2646" lon="5.50353">
        <ele>315.06</ele>
        <time>2016-10-04T12:45:10Z</time>
      </trkpt>
      <trkpt lat="43.26461" lon="5.50366">
        <ele>313.38</ele>
        <time>2016-10-04T12:45:20Z</time>
      </trkpt>
      <trkpt lat="43.26463" lon="5.50372">
        <ele>312.87</ele>
        <time>2016-10-04T12:45:25Z</time>
      </trkpt>
      <trkpt lat="43.26466" lon="5.50381">
        <ele>311.6</ele>
        <time>2016-10-04T12:45:35Z</time>
      </trkpt>
      <trkpt lat="43.26466" lon="5.50384">
        <ele>311.04</ele>
        <time>2016-10-04T12:45:45Z</time>
      </trkpt>
      <trkpt lat="43.26467" lon="5.5039">
        <ele>310.74</ele>
        <time>2016-10-04T12:45:56Z</time>
      </trkpt>
      <trkpt lat="43.2647" lon="5.50397">
        <ele>309.48</ele>
        <time>2016-10-04T12:46:05Z</time>
      </trkpt>
      <trkpt lat="43.26471" lon="5.50401">
        <ele>308.51</ele>
        <time>2016-10-04T12:46:14Z</time>
      </trkpt>
      <trkpt lat="43.26469" lon="5.50406">
        <ele>308.22</ele>
        <time>2016-10-04T12:46:19Z</time>
      </trkpt>
      <trkpt lat="43.26467" lon="5.50411">
        <ele>307.89</ele>
        <time>2016-10-04T12:46:26Z</time>
      </trkpt>
      <trkpt lat="43.26468" lon="5.50415">
        <ele>307.96</ele>
        <time>2016-10-04T12:46:35Z</time>
      </trkpt>
      <trkpt lat="43.26468" lon="5.50424">
        <ele>307.27</ele>
        <time>2016-10-04T12:46:45Z</time>
      </trkpt>
      <trkpt lat="43.26469" lon="5.50428">
        <ele>306</ele>
        <time>2016-10-04T12:46:54Z</time>
      </trkpt>
      <trkpt lat="43.26472" lon="5.50438">
        <ele>305.26</ele>
        <time>2016-10-04T12:47:03Z</time>
      </trkpt>
      <trkpt lat="43.26473" lon="5.50448">
        <ele>302.97</ele>
        <time>2016-10-04T12:47:13Z</time>
      </trkpt>
      <trkpt lat="43.26473" lon="5.50454">
        <ele>301.44</ele>
        <time>2016-10-04T12:47:21Z</time>
      </trkpt>
      <trkpt lat="43.26474" lon="5.50458">
        <ele>300.63</ele>
        <time>2016-10-04T12:47:35Z</time>
      </trkpt>
      <trkpt lat="43.26474" lon="5.50466">
        <ele>299.54</ele>
        <time>2016-10-04T12:47:44Z</time>
      </trkpt>
      <trkpt lat="43.26474" lon="5.50471">
        <ele>298.49</ele>
        <time>2016-10-04T12:47:53Z</time>
      </trkpt>
      <trkpt lat="43.26478" lon="5.50478">
        <ele>297.18</ele>
        <time>2016-10-04T12:48:03Z</time>
      </trkpt>
      <trkpt lat="43.26483" lon="5.50486">
        <ele>295.78</ele>
        <time>2016-10-04T12:48:13Z</time>
      </trkpt>
      <trkpt lat="43.26486" lon="5.50493">
        <ele>294.98</ele>
        <time>2016-10-04T12:48:23Z</time>
      </trkpt>
      <trkpt lat="43.26491" lon="5.50501">
        <ele>294.02</ele>
        <time>2016-10-04T12:48:32Z</time>
      </trkpt>
      <trkpt lat="43.26496" lon="5.50509">
        <ele>292.88</ele>
        <time>2016-10-04T12:48:41Z</time>
      </trkpt>
      <trkpt lat="43.26501" lon="5.50517">
        <ele>291.67</ele>
        <time>2016-10-04T12:48:51Z</time>
      </trkpt>
      <trkpt lat="43.26506" lon="5.50523">
        <ele>290.77</ele>
        <time>2016-10-04T12:48:58Z</time>
      </trkpt>
      <trkpt lat="43.2651" lon="5.50526">
        <ele>290.01</ele>
        <time>2016-10-04T12:49:07Z</time>
      </trkpt>
      <trkpt lat="43.26509" lon="5.50535">
        <ele>289.59</ele>
        <time>2016-10-04T12:49:17Z</time>
      </trkpt>
      <trkpt lat="43.2651" lon="5.50539">
        <ele>289.4</ele>
        <time>2016-10-04T12:49:27Z</time>
      </trkpt>
      <trkpt lat="43.26513" lon="5.50547">
        <ele>289.57</ele>
        <time>2016-10-04T12:49:40Z</time>
      </trkpt>
      <trkpt lat="43.26514" lon="5.50549">
        <ele>289.55</ele>
        <time>2016-10-04T12:49:41Z</time>
      </trkpt>
      <trkpt lat="43.26521" lon="5.50558">
        <ele>288.29</ele>
        <time>2016-10-04T12:49:51Z</time>
      </trkpt>
      <trkpt lat="43.26527" lon="5.50568">
        <ele>286.88</ele>
        <time>2016-10-04T12:50:01Z</time>
      </trkpt>
      <trkpt lat="43.26529" lon="5.50571">
        <ele>286.12</ele>
        <time>2016-10-04T12:50:08Z</time>
      </trkpt>
      <trkpt lat="43.2653" lon="5.50573">
        <ele>285.9</ele>
        <time>2016-10-04T12:50:15Z</time>
      </trkpt>
      <trkpt lat="43.26533" lon="5.50576">
        <ele>285.79</ele>
        <time>2016-10-04T12:50:18Z</time>
      </trkpt>
      <trkpt lat="43.26535" lon="5.50583">
        <ele>285.3</ele>
        <time>2016-10-04T12:50:24Z</time>
      </trkpt>
      <trkpt lat="43.26539" lon="5.50589">
        <ele>284.8</ele>
        <time>2016-10-04T12:50:31Z</time>
      </trkpt>
      <trkpt lat="43.26543" lon="5.50597">
        <ele>283.65</ele>
        <time>2016-10-04T12:50:38Z</time>
      </trkpt>
      <trkpt lat="43.26545" lon="5.50607">
        <ele>282.23</ele>
        <time>2016-10-04T12:50:46Z</time>
      </trkpt>
      <trkpt lat="43.26549" lon="5.50617">
        <ele>281.32</ele>
        <time>2016-10-04T12:50:54Z</time>
      </trkpt>
      <trkpt lat="43.26555" lon="5.50626">
        <ele>279.79</ele>
        <time>2016-10-04T12:51:03Z</time>
      </trkpt>
      <trkpt lat="43.26556" lon="5.50627">
        <ele>279.62</ele>
        <time>2016-10-04T12:51:04Z</time>
      </trkpt>
      <trkpt lat="43.2656" lon="5.50636">
        <ele>278.51</ele>
        <time>2016-10-04T12:51:13Z</time>
      </trkpt>
      <trkpt lat="43.26563" lon="5.5064">
        <ele>277.58</ele>
        <time>2016-10-04T12:51:23Z</time>
      </trkpt>
      <trkpt lat="43.26566" lon="5.50647">
        <ele>276.4</ele>
        <time>2016-10-04T12:51:31Z</time>
      </trkpt>
      <trkpt lat="43.2657" lon="5.50654">
        <ele>274.88</ele>
        <time>2016-10-04T12:51:41Z</time>
      </trkpt>
      <trkpt lat="43.2657" lon="5.50657">
        <ele>273.89</ele>
        <time>2016-10-04T12:51:52Z</time>
      </trkpt>
      <trkpt lat="43.26572" lon="5.50664">
        <ele>272.83</ele>
        <time>2016-10-04T12:52:04Z</time>
      </trkpt>
      <trkpt lat="43.26575" lon="5.50671">
        <ele>271.24</ele>
        <time>2016-10-04T12:52:15Z</time>
      </trkpt>
      <trkpt lat="43.26575" lon="5.50671">
        <ele>270.78</ele>
        <time>2016-10-04T12:52:30Z</time>
      </trkpt>
      <trkpt lat="43.26576" lon="5.50672">
        <ele>270.5</ele>
        <time>2016-10-04T12:52:47Z</time>
      </trkpt>
      <trkpt lat="43.26578" lon="5.5068">
        <ele>269.78</ele>
        <time>2016-10-04T12:52:59Z</time>
      </trkpt>
      <trkpt lat="43.26582" lon="5.50691">
        <ele>267.66</ele>
        <time>2016-10-04T12:53:10Z</time>
      </trkpt>
      <trkpt lat="43.26584" lon="5.50694">
        <ele>266.53</ele>
        <time>2016-10-04T12:53:16Z</time>
      </trkpt>
      <trkpt lat="43.26586" lon="5.50695">
        <ele>265.67</ele>
        <time>2016-10-04T12:53:29Z</time>
      </trkpt>
      <trkpt lat="43.26586" lon="5.50695">
        <ele>265.79</ele>
        <time>2016-10-04T12:53:40Z</time>
      </trkpt>
      <trkpt lat="43.26588" lon="5.50703">
        <ele>265.29</ele>
        <time>2016-10-04T12:53:47Z</time>
      </trkpt>
      <trkpt lat="43.2659" lon="5.50711">
        <ele>263.2</ele>
        <time>2016-10-04T12:53:56Z</time>
      </trkpt>
      <trkpt lat="43.26591" lon="5.50717">
        <ele>261.77</ele>
        <time>2016-10-04T12:54:03Z</time>
      </trkpt>
      <trkpt lat="43.26594" lon="5.50725">
        <ele>259.83</ele>
        <time>2016-10-04T12:54:14Z</time>
      </trkpt>
      <trkpt lat="43.26596" lon="5.50732">
        <ele>258.69</ele>
        <time>2016-10-04T12:54:24Z</time>
      </trkpt>
      <trkpt lat="43.26601" lon="5.50737">
        <ele>257.66</ele>
        <time>2016-10-04T12:54:34Z</time>
      </trkpt>
      <trkpt lat="43.26604" lon="5.5074">
        <ele>256.75</ele>
        <time>2016-10-04T12:54:50Z</time>
      </trkpt>
      <trkpt lat="43.26608" lon="5.50746">
        <ele>255.81</ele>
        <time>2016-10-04T12:54:57Z</time>
      </trkpt>
      <trkpt lat="43.26614" lon="5.50748">
        <ele>254.21</ele>
        <time>2016-10-04T12:55:05Z</time>
      </trkpt>
      <trkpt lat="43.26617" lon="5.50749">
        <ele>252.05</ele>
        <time>2016-10-04T12:55:16Z</time>
      </trkpt>
      <trkpt lat="43.26623" lon="5.50751">
        <ele>250.4</ele>
        <time>2016-10-04T12:55:28Z</time>
      </trkpt>
      <trkpt lat="43.26631" lon="5.50752">
        <ele>248.1</ele>
        <time>2016-10-04T12:55:40Z</time>
      </trkpt>
      <trkpt lat="43.26634" lon="5.50756">
        <ele>246.9</ele>
        <time>2016-10-04T12:55:51Z</time>
      </trkpt>
      <trkpt lat="43.2664" lon="5.5076">
        <ele>245.88</ele>
        <time>2016-10-04T12:55:58Z</time>
      </trkpt>
      <trkpt lat="43.26648" lon="5.50761">
        <ele>244.6</ele>
        <time>2016-10-04T12:56:06Z</time>
      </trkpt>
      <trkpt lat="43.26653" lon="5.5076">
        <ele>243.98</ele>
        <time>2016-10-04T12:56:12Z</time>
      </trkpt>
      <trkpt lat="43.26662" lon="5.50764">
        <ele>243.54</ele>
        <time>2016-10-04T12:56:22Z</time>
      </trkpt>
      <trkpt lat="43.26667" lon="5.50767">
        <ele>242.69</ele>
        <time>2016-10-04T12:56:29Z</time>
      </trkpt>
      <trkpt lat="43.26676" lon="5.5077">
        <ele>241.43</ele>
        <time>2016-10-04T12:56:40Z</time>
      </trkpt>
      <trkpt lat="43.26678" lon="5.5077">
        <ele>240.2</ele>
        <time>2016-10-04T12:56:49Z</time>
      </trkpt>
      <trkpt lat="43.2668" lon="5.50775">
        <ele>239.47</ele>
        <time>2016-10-04T12:56:58Z</time>
      </trkpt>
      <trkpt lat="43.26681" lon="5.50782">
        <ele>237.39</ele>
        <time>2016-10-04T12:57:06Z</time>
      </trkpt>
      <trkpt lat="43.26682" lon="5.50784">
        <ele>235.7</ele>
        <time>2016-10-04T12:57:18Z</time>
      </trkpt>
      <trkpt lat="43.26683" lon="5.50787">
        <ele>235.35</ele>
        <time>2016-10-04T12:57:31Z</time>
      </trkpt>
      <trkpt lat="43.26684" lon="5.50792">
        <ele>233.68</ele>
        <time>2016-10-04T12:57:41Z</time>
      </trkpt>
      <trkpt lat="43.26684" lon="5.50798">
        <ele>232.97</ele>
        <time>2016-10-04T12:57:52Z</time>
      </trkpt>
      <trkpt lat="43.26681" lon="5.50807">
        <ele>231.1</ele>
        <time>2016-10-04T12:58:04Z</time>
      </trkpt>
      <trkpt lat="43.26679" lon="5.50818">
        <ele>229.49</ele>
        <time>2016-10-04T12:58:16Z</time>
      </trkpt>
      <trkpt lat="43.2668" lon="5.5082">
        <ele>228.41</ele>
        <time>2016-10-04T12:58:26Z</time>
      </trkpt>
      <trkpt lat="43.2668" lon="5.50823">
        <ele>228.36</ele>
        <time>2016-10-04T12:58:28Z</time>
      </trkpt>
      <trkpt lat="43.26679" lon="5.50828">
        <ele>228.02</ele>
        <time>2016-10-04T12:58:32Z</time>
      </trkpt>
      <trkpt lat="43.26678" lon="5.50838">
        <ele>226.35</ele>
        <time>2016-10-04T12:58:41Z</time>
      </trkpt>
      <trkpt lat="43.26678" lon="5.50851">
        <ele>224.69</ele>
        <time>2016-10-04T12:58:51Z</time>
      </trkpt>
      <trkpt lat="43.26682" lon="5.50861">
        <ele>223.88</ele>
        <time>2016-10-04T12:59:03Z</time>
      </trkpt>
      <trkpt lat="43.26689" lon="5.50866">
        <ele>222.66</ele>
        <time>2016-10-04T12:59:16Z</time>
      </trkpt>
      <trkpt lat="43.26692" lon="5.50866">
        <ele>221.87</ele>
        <time>2016-10-04T12:59:24Z</time>
      </trkpt>
      <trkpt lat="43.26698" lon="5.50865">
        <ele>221.53</ele>
        <time>2016-10-04T12:59:33Z</time>
      </trkpt>
      <trkpt lat="43.26704" lon="5.50869">
        <ele>221.09</ele>
        <time>2016-10-04T12:59:43Z</time>
      </trkpt>
      <trkpt lat="43.26708" lon="5.50872">
        <ele>220.24</ele>
        <time>2016-10-04T12:59:52Z</time>
      </trkpt>
      <trkpt lat="43.26715" lon="5.50874">
        <ele>218.8</ele>
        <time>2016-10-04T13:00:02Z</time>
      </trkpt>
      <trkpt lat="43.26717" lon="5.50874">
        <ele>218.19</ele>
        <time>2016-10-04T13:00:05Z</time>
      </trkpt>
      <trkpt lat="43.26727" lon="5.5088">
        <ele>216.46</ele>
        <time>2016-10-04T13:00:18Z</time>
      </trkpt>
      <trkpt lat="43.2673" lon="5.50885">
        <ele>215.8</ele>
        <time>2016-10-04T13:00:26Z</time>
      </trkpt>
      <trkpt lat="43.26734" lon="5.50893">
        <ele>213.71</ele>
        <time>2016-10-04T13:00:36Z</time>
      </trkpt>
      <trkpt lat="43.26736" lon="5.50897">
        <ele>212.96</ele>
        <time>2016-10-04T13:00:50Z</time>
      </trkpt>
      <trkpt lat="43.26739" lon="5.50899">
        <ele>212.47</ele>
        <time>2016-10-04T13:00:55Z</time>
      </trkpt>
      <trkpt lat="43.26747" lon="5.50907">
        <ele>211.57</ele>
        <time>2016-10-04T13:01:05Z</time>
      </trkpt>
      <trkpt lat="43.26753" lon="5.50909">
        <ele>211</ele>
        <time>2016-10-04T13:01:12Z</time>
      </trkpt>
      <trkpt lat="43.26764" lon="5.50909">
        <ele>208.96</ele>
        <time>2016-10-04T13:01:24Z</time>
      </trkpt>
      <trkpt lat="43.2677" lon="5.50908">
        <ele>208.22</ele>
        <time>2016-10-04T13:01:31Z</time>
      </trkpt>
      <trkpt lat="43.26781" lon="5.50906">
        <ele>207.27</ele>
        <time>2016-10-04T13:01:40Z</time>
      </trkpt>
      <trkpt lat="43.26787" lon="5.50897">
        <ele>207.46</ele>
        <time>2016-10-04T13:01:50Z</time>
      </trkpt>
      <trkpt lat="43.26792" lon="5.50887">
        <ele>206.18</ele>
        <time>2016-10-04T13:02:01Z</time>
      </trkpt>
      <trkpt lat="43.26798" lon="5.50885">
        <ele>205.33</ele>
        <time>2016-10-04T13:02:08Z</time>
      </trkpt>
      <trkpt lat="43.26803" lon="5.50881">
        <ele>204.74</ele>
        <time>2016-10-04T13:02:15Z</time>
      </trkpt>
      <trkpt lat="43.26807" lon="5.50871">
        <ele>203.25</ele>
        <time>2016-10-04T13:02:26Z</time>
      </trkpt>
      <trkpt lat="43.26808" lon="5.50866">
        <ele>201.79</ele>
        <time>2016-10-04T13:02:35Z</time>
      </trkpt>
      <trkpt lat="43.2681" lon="5.50863">
        <ele>200.81</ele>
        <time>2016-10-04T13:02:48Z</time>
      </trkpt>
      <trkpt lat="43.26809" lon="5.50864">
        <ele>201.13</ele>
        <time>2016-10-04T13:03:03Z</time>
      </trkpt>
      <trkpt lat="43.26808" lon="5.50865">
        <ele>201.12</ele>
        <time>2016-10-04T13:03:20Z</time>
      </trkpt>
      <trkpt lat="43.2681" lon="5.50865">
        <ele>200.93</ele>
        <time>2016-10-04T13:03:38Z</time>
      </trkpt>
      <trkpt lat="43.26811" lon="5.50865">
        <ele>200.71</ele>
        <time>2016-10-04T13:03:55Z</time>
      </trkpt>
      <trkpt lat="43.26813" lon="5.50865">
        <ele>200.9</ele>
        <time>2016-10-04T13:04:11Z</time>
      </trkpt>
      <trkpt lat="43.26813" lon="5.50867">
        <ele>200.94</ele>
        <time>2016-10-04T13:04:26Z</time>
      </trkpt>
      <trkpt lat="43.26818" lon="5.50863">
        <ele>201.82</ele>
        <time>2016-10-04T13:04:37Z</time>
      </trkpt>
      <trkpt lat="43.26821" lon="5.50867">
        <ele>204.11</ele>
        <time>2016-10-04T13:04:50Z</time>
      </trkpt>
      <trkpt lat="43.26821" lon="5.50869">
        <ele>205.6</ele>
        <time>2016-10-04T13:05:00Z</time>
      </trkpt>
      <trkpt lat="43.26822" lon="5.50871">
        <ele>205.73</ele>
        <time>2016-10-04T13:05:12Z</time>
      </trkpt>
      <trkpt lat="43.26821" lon="5.50873">
        <ele>205.85</ele>
        <time>2016-10-04T13:05:27Z</time>
      </trkpt>
      <trkpt lat="43.2682" lon="5.50877">
        <ele>207.4</ele>
        <time>2016-10-04T13:05:38Z</time>
      </trkpt>
      <trkpt lat="43.26816" lon="5.50884">
        <ele>209.35</ele>
        <time>2016-10-04T13:05:50Z</time>
      </trkpt>
      <trkpt lat="43.26815" lon="5.5089">
        <ele>211.04</ele>
        <time>2016-10-04T13:06:01Z</time>
      </trkpt>
      <trkpt lat="43.2681" lon="5.50898">
        <ele>212.35</ele>
        <time>2016-10-04T13:06:12Z</time>
      </trkpt>
      <trkpt lat="43.26806" lon="5.50905">
        <ele>213.39</ele>
        <time>2016-10-04T13:06:23Z</time>
      </trkpt>
      <trkpt lat="43.26805" lon="5.5091">
        <ele>214.57</ele>
        <time>2016-10-04T13:06:34Z</time>
      </trkpt>
      <trkpt lat="43.26804" lon="5.50917">
        <ele>216.39</ele>
        <time>2016-10-04T13:06:47Z</time>
      </trkpt>
      <trkpt lat="43.26802" lon="5.50922">
        <ele>218.78</ele>
        <time>2016-10-04T13:06:58Z</time>
      </trkpt>
      <trkpt lat="43.26803" lon="5.50928">
        <ele>220.62</ele>
        <time>2016-10-04T13:07:10Z</time>
      </trkpt>
      <trkpt lat="43.26804" lon="5.50931">
        <ele>221.74</ele>
        <time>2016-10-04T13:07:21Z</time>
      </trkpt>
      <trkpt lat="43.26807" lon="5.50929">
        <ele>222.84</ele>
        <time>2016-10-04T13:07:31Z</time>
      </trkpt>
      <trkpt lat="43.26811" lon="5.50927">
        <ele>223.66</ele>
        <time>2016-10-04T13:07:40Z</time>
      </trkpt>
      <trkpt lat="43.26816" lon="5.50926">
        <ele>225.25</ele>
        <time>2016-10-04T13:07:50Z</time>
      </trkpt>
      <trkpt lat="43.26817" lon="5.50927">
        <ele>226.62</ele>
        <time>2016-10-04T13:08:01Z</time>
      </trkpt>
      <trkpt lat="43.2682" lon="5.50923">
        <ele>226.87</ele>
        <time>2016-10-04T13:08:20Z</time>
      </trkpt>
      <trkpt lat="43.26824" lon="5.50921">
        <ele>227.07</ele>
        <time>2016-10-04T13:08:30Z</time>
      </trkpt>
      <trkpt lat="43.26829" lon="5.50919">
        <ele>228.25</ele>
        <time>2016-10-04T13:08:41Z</time>
      </trkpt>
      <trkpt lat="43.26833" lon="5.50918">
        <ele>229.91</ele>
        <time>2016-10-04T13:08:51Z</time>
      </trkpt>
      <trkpt lat="43.26837" lon="5.50918">
        <ele>231.55</ele>
        <time>2016-10-04T13:09:00Z</time>
      </trkpt>
      <trkpt lat="43.26843" lon="5.50915">
        <ele>233.46</ele>
        <time>2016-10-04T13:09:14Z</time>
      </trkpt>
      <trkpt lat="43.26846" lon="5.50911">
        <ele>234.12</ele>
        <time>2016-10-04T13:09:23Z</time>
      </trkpt>
      <trkpt lat="43.26852" lon="5.50905">
        <ele>234.19</ele>
        <time>2016-10-04T13:09:33Z</time>
      </trkpt>
      <trkpt lat="43.26854" lon="5.509">
        <ele>233.4</ele>
        <time>2016-10-04T13:09:44Z</time>
      </trkpt>
      <trkpt lat="43.26856" lon="5.50891">
        <ele>233.01</ele>
        <time>2016-10-04T13:09:59Z</time>
      </trkpt>
      <trkpt lat="43.26862" lon="5.50892">
        <ele>233.02</ele>
        <time>2016-10-04T13:10:06Z</time>
      </trkpt>
      <trkpt lat="43.26863" lon="5.50894">
        <ele>233.01</ele>
        <time>2016-10-04T13:10:08Z</time>
      </trkpt>
      <trkpt lat="43.26864" lon="5.50895">
        <ele>233.01</ele>
        <time>2016-10-04T13:10:10Z</time>
      </trkpt>
      <trkpt lat="43.26865" lon="5.50902">
        <ele>233.44</ele>
        <time>2016-10-04T13:10:17Z</time>
      </trkpt>
      <trkpt lat="43.26868" lon="5.50909">
        <ele>234.48</ele>
        <time>2016-10-04T13:10:25Z</time>
      </trkpt>
      <trkpt lat="43.26872" lon="5.50915">
        <ele>235.55</ele>
        <time>2016-10-04T13:10:35Z</time>
      </trkpt>
      <trkpt lat="43.26871" lon="5.50921">
        <ele>236.58</ele>
        <time>2016-10-04T13:10:45Z</time>
      </trkpt>
      <trkpt lat="43.26873" lon="5.50932">
        <ele>238.83</ele>
        <time>2016-10-04T13:10:57Z</time>
      </trkpt>
      <trkpt lat="43.26879" lon="5.50938">
        <ele>240.03</ele>
        <time>2016-10-04T13:11:05Z</time>
      </trkpt>
      <trkpt lat="43.26888" lon="5.50948">
        <ele>240.5</ele>
        <time>2016-10-04T13:11:16Z</time>
      </trkpt>
      <trkpt lat="43.26892" lon="5.50956">
        <ele>241.34</ele>
        <time>2016-10-04T13:11:27Z</time>
      </trkpt>
      <trkpt lat="43.26895" lon="5.5096">
        <ele>242.41</ele>
        <time>2016-10-04T13:11:39Z</time>
      </trkpt>
      <trkpt lat="43.269" lon="5.50964">
        <ele>242.95</ele>
        <time>2016-10-04T13:11:55Z</time>
      </trkpt>
      <trkpt lat="43.26901" lon="5.50962">
        <ele>243.24</ele>
        <time>2016-10-04T13:12:09Z</time>
      </trkpt>
      <trkpt lat="43.26903" lon="5.50963">
        <ele>243.34</ele>
        <time>2016-10-04T13:12:25Z</time>
      </trkpt>
      <trkpt lat="43.26906" lon="5.50972">
        <ele>244.93</ele>
        <time>2016-10-04T13:12:36Z</time>
      </trkpt>
      <trkpt lat="43.26908" lon="5.50975">
        <ele>246.75</ele>
        <time>2016-10-04T13:12:45Z</time>
      </trkpt>
      <trkpt lat="43.2691" lon="5.50982">
        <ele>248.16</ele>
        <time>2016-10-04T13:12:58Z</time>
      </trkpt>
      <trkpt lat="43.26914" lon="5.5099">
        <ele>250.27</ele>
        <time>2016-10-04T13:13:11Z</time>
      </trkpt>
      <trkpt lat="43.26915" lon="5.5099">
        <ele>251.98</ele>
        <time>2016-10-04T13:13:21Z</time>
      </trkpt>
      <trkpt lat="43.26915" lon="5.5099">
        <ele>252.1</ele>
        <time>2016-10-04T13:13:36Z</time>
      </trkpt>
      <trkpt lat="43.26917" lon="5.50995">
        <ele>252.98</ele>
        <time>2016-10-04T13:13:46Z</time>
      </trkpt>
      <trkpt lat="43.26919" lon="5.50996">
        <ele>254.9</ele>
        <time>2016-10-04T13:13:55Z</time>
      </trkpt>
      <trkpt lat="43.26922" lon="5.50995">
        <ele>257.27</ele>
        <time>2016-10-04T13:14:05Z</time>
      </trkpt>
      <trkpt lat="43.26923" lon="5.50995">
        <ele>257.77</ele>
        <time>2016-10-04T13:14:17Z</time>
      </trkpt>
      <trkpt lat="43.26922" lon="5.50995">
        <ele>257.79</ele>
        <time>2016-10-04T13:14:33Z</time>
      </trkpt>
      <trkpt lat="43.26928" lon="5.50995">
        <ele>257.66</ele>
        <time>2016-10-04T13:14:46Z</time>
      </trkpt>
      <trkpt lat="43.26934" lon="5.50997">
        <ele>257.51</ele>
        <time>2016-10-04T13:14:55Z</time>
      </trkpt>
      <trkpt lat="43.26936" lon="5.50998">
        <ele>257.16</ele>
        <time>2016-10-04T13:15:07Z</time>
      </trkpt>
      <trkpt lat="43.26936" lon="5.50996">
        <ele>256.78</ele>
        <time>2016-10-04T13:15:21Z</time>
      </trkpt>
      <trkpt lat="43.26939" lon="5.51005">
        <ele>256.35</ele>
        <time>2016-10-04T13:15:34Z</time>
      </trkpt>
      <trkpt lat="43.26942" lon="5.51009">
        <ele>255.32</ele>
        <time>2016-10-04T13:15:47Z</time>
      </trkpt>
      <trkpt lat="43.26943" lon="5.51009">
        <ele>255.21</ele>
        <time>2016-10-04T13:16:00Z</time>
      </trkpt>
      <trkpt lat="43.26947" lon="5.51011">
        <ele>254.82</ele>
        <time>2016-10-04T13:16:10Z</time>
      </trkpt>
      <trkpt lat="43.26955" lon="5.51009">
        <ele>253.55</ele>
        <time>2016-10-04T13:16:20Z</time>
      </trkpt>
      <trkpt lat="43.26957" lon="5.51008">
        <ele>253.22</ele>
        <time>2016-10-04T13:16:23Z</time>
      </trkpt>
      <trkpt lat="43.26963" lon="5.51005">
        <ele>252.3</ele>
        <time>2016-10-04T13:16:33Z</time>
      </trkpt>
      <trkpt lat="43.26971" lon="5.51001">
        <ele>251.52</ele>
        <time>2016-10-04T13:16:44Z</time>
      </trkpt>
      <trkpt lat="43.26978" lon="5.50998">
        <ele>251.14</ele>
        <time>2016-10-04T13:16:55Z</time>
      </trkpt>
      <trkpt lat="43.26982" lon="5.50995">
        <ele>251.11</ele>
        <time>2016-10-04T13:17:01Z</time>
      </trkpt>
      <trkpt lat="43.26988" lon="5.50988">
        <ele>251.08</ele>
        <time>2016-10-04T13:17:08Z</time>
      </trkpt>
      <trkpt lat="43.26995" lon="5.50986">
        <ele>251.41</ele>
        <time>2016-10-04T13:17:17Z</time>
      </trkpt>
      <trkpt lat="43.27003" lon="5.50983">
        <ele>251.84</ele>
        <time>2016-10-04T13:17:29Z</time>
      </trkpt>
      <trkpt lat="43.27006" lon="5.50979">
        <ele>251.62</ele>
        <time>2016-10-04T13:17:38Z</time>
      </trkpt>
      <trkpt lat="43.27012" lon="5.50977">
        <ele>251.49</ele>
        <time>2016-10-04T13:17:49Z</time>
      </trkpt>
      <trkpt lat="43.27016" lon="5.50976">
        <ele>251.18</ele>
        <time>2016-10-04T13:18:01Z</time>
      </trkpt>
      <trkpt lat="43.27019" lon="5.50974">
        <ele>250.48</ele>
        <time>2016-10-04T13:18:11Z</time>
      </trkpt>
      <trkpt lat="43.27026" lon="5.50975">
        <ele>249.54</ele>
        <time>2016-10-04T13:18:19Z</time>
      </trkpt>
      <trkpt lat="43.27032" lon="5.50969">
        <ele>247.85</ele>
        <time>2016-10-04T13:18:29Z</time>
      </trkpt>
      <trkpt lat="43.27038" lon="5.50965">
        <ele>246.14</ele>
        <time>2016-10-04T13:18:39Z</time>
      </trkpt>
      <trkpt lat="43.27044" lon="5.50961">
        <ele>244.43</ele>
        <time>2016-10-04T13:18:48Z</time>
      </trkpt>
      <trkpt lat="43.27052" lon="5.50957">
        <ele>242.49</ele>
        <time>2016-10-04T13:19:00Z</time>
      </trkpt>
      <trkpt lat="43.27058" lon="5.50955">
        <ele>240.75</ele>
        <time>2016-10-04T13:19:08Z</time>
      </trkpt>
      <trkpt lat="43.27066" lon="5.50948">
        <ele>238.94</ele>
        <time>2016-10-04T13:19:19Z</time>
      </trkpt>
      <trkpt lat="43.27066" lon="5.50947">
        <ele>238.09</ele>
        <time>2016-10-04T13:19:29Z</time>
      </trkpt>
      <trkpt lat="43.27071" lon="5.50945">
        <ele>237.67</ele>
        <time>2016-10-04T13:19:39Z</time>
      </trkpt>
      <trkpt lat="43.27077" lon="5.50944">
        <ele>236.75</ele>
        <time>2016-10-04T13:19:45Z</time>
      </trkpt>
      <trkpt lat="43.27083" lon="5.50939">
        <ele>235.05</ele>
        <time>2016-10-04T13:19:54Z</time>
      </trkpt>
      <trkpt lat="43.27087" lon="5.50935">
        <ele>233.76</ele>
        <time>2016-10-04T13:20:02Z</time>
      </trkpt>
      <trkpt lat="43.27094" lon="5.5093">
        <ele>232.88</ele>
        <time>2016-10-04T13:20:08Z</time>
      </trkpt>
      <trkpt lat="43.27101" lon="5.50921">
        <ele>231.4</ele>
        <time>2016-10-04T13:20:18Z</time>
      </trkpt>
      <trkpt lat="43.27101" lon="5.5092">
        <ele>231.09</ele>
        <time>2016-10-04T13:20:26Z</time>
      </trkpt>
      <trkpt lat="43.27104" lon="5.50918">
        <ele>230.79</ele>
        <time>2016-10-04T13:20:37Z</time>
      </trkpt>
      <trkpt lat="43.27105" lon="5.50918">
        <ele>230.53</ele>
        <time>2016-10-04T13:20:52Z</time>
      </trkpt>
      <trkpt lat="43.27106" lon="5.50914">
        <ele>230.16</ele>
        <time>2016-10-04T13:20:57Z</time>
      </trkpt>
      <trkpt lat="43.27105" lon="5.50907">
        <ele>229.8</ele>
        <time>2016-10-04T13:21:03Z</time>
      </trkpt>
      <trkpt lat="43.27107" lon="5.50901">
        <ele>229.12</ele>
        <time>2016-10-04T13:21:12Z</time>
      </trkpt>
      <trkpt lat="43.27107" lon="5.50901">
        <ele>228.78</ele>
        <time>2016-10-04T13:21:31Z</time>
      </trkpt>
      <trkpt lat="43.27109" lon="5.50902">
        <ele>229.03</ele>
        <time>2016-10-04T13:21:49Z</time>
      </trkpt>
      <trkpt lat="43.27108" lon="5.50902">
        <ele>228.84</ele>
        <time>2016-10-04T13:22:04Z</time>
      </trkpt>
      <trkpt lat="43.27108" lon="5.50903">
        <ele>228.58</ele>
        <time>2016-10-04T13:22:22Z</time>
      </trkpt>
      <trkpt lat="43.27106" lon="5.50904">
        <ele>228.43</ele>
        <time>2016-10-04T13:22:46Z</time>
      </trkpt>
      <trkpt lat="43.27104" lon="5.50903">
        <ele>228.28</ele>
        <time>2016-10-04T13:23:07Z</time>
      </trkpt>
      <trkpt lat="43.27106" lon="5.50906">
        <ele>228.32</ele>
        <time>2016-10-04T13:23:14Z</time>
      </trkpt>
      <trkpt lat="43.2711" lon="5.50914">
        <ele>228.31</ele>
        <time>2016-10-04T13:23:22Z</time>
      </trkpt>
      <trkpt lat="43.2711" lon="5.50919">
        <ele>228.42</ele>
        <time>2016-10-04T13:23:25Z</time>
      </trkpt>
      <trkpt lat="43.2711" lon="5.50922">
        <ele>228.4</ele>
        <time>2016-10-04T13:23:27Z</time>
      </trkpt>
      <trkpt lat="43.27105" lon="5.50931">
        <ele>227.94</ele>
        <time>2016-10-04T13:23:36Z</time>
      </trkpt>
      <trkpt lat="43.27103" lon="5.50941">
        <ele>227.61</ele>
        <time>2016-10-04T13:23:45Z</time>
      </trkpt>
      <trkpt lat="43.27103" lon="5.50943">
        <ele>227.52</ele>
        <time>2016-10-04T13:23:46Z</time>
      </trkpt>
      <trkpt lat="43.27103" lon="5.50951">
        <ele>227.17</ele>
        <time>2016-10-04T13:23:51Z</time>
      </trkpt>
      <trkpt lat="43.27102" lon="5.50961">
        <ele>225.98</ele>
        <time>2016-10-04T13:23:59Z</time>
      </trkpt>
      <trkpt lat="43.271" lon="5.50972">
        <ele>224.62</ele>
        <time>2016-10-04T13:24:09Z</time>
      </trkpt>
      <trkpt lat="43.271" lon="5.50986">
        <ele>222.34</ele>
        <time>2016-10-04T13:24:21Z</time>
      </trkpt>
      <trkpt lat="43.271" lon="5.50993">
        <ele>221.14</ele>
        <time>2016-10-04T13:24:28Z</time>
      </trkpt>
      <trkpt lat="43.27099" lon="5.50995">
        <ele>219.58</ele>
        <time>2016-10-04T13:24:36Z</time>
      </trkpt>
      <trkpt lat="43.271" lon="5.5099">
        <ele>219.47</ele>
        <time>2016-10-04T13:24:49Z</time>
      </trkpt>
      <trkpt lat="43.271" lon="5.50978">
        <ele>221.51</ele>
        <time>2016-10-04T13:25:01Z</time>
      </trkpt>
      <trkpt lat="43.271" lon="5.50971">
        <ele>223.09</ele>
        <time>2016-10-04T13:25:10Z</time>
      </trkpt>
      <trkpt lat="43.27104" lon="5.50966">
        <ele>224.04</ele>
        <time>2016-10-04T13:25:20Z</time>
      </trkpt>
      <trkpt lat="43.27109" lon="5.50965">
        <ele>223.48</ele>
        <time>2016-10-04T13:25:31Z</time>
      </trkpt>
      <trkpt lat="43.27117" lon="5.50967">
        <ele>220.48</ele>
        <time>2016-10-04T13:25:42Z</time>
      </trkpt>
      <trkpt lat="43.27126" lon="5.50969">
        <ele>218.7</ele>
        <time>2016-10-04T13:25:52Z</time>
      </trkpt>
      <trkpt lat="43.27131" lon="5.5097">
        <ele>217.09</ele>
        <time>2016-10-04T13:25:58Z</time>
      </trkpt>
      <trkpt lat="43.27134" lon="5.5097">
        <ele>216.5</ele>
        <time>2016-10-04T13:26:00Z</time>
      </trkpt>
      <trkpt lat="43.27141" lon="5.50974">
        <ele>213.15</ele>
        <time>2016-10-04T13:26:10Z</time>
      </trkpt>
      <trkpt lat="43.27143" lon="5.50977">
        <ele>211.34</ele>
        <time>2016-10-04T13:26:24Z</time>
      </trkpt>
      <trkpt lat="43.27149" lon="5.50982">
        <ele>210.68</ele>
        <time>2016-10-04T13:26:31Z</time>
      </trkpt>
      <trkpt lat="43.27153" lon="5.50987">
        <ele>209.53</ele>
        <time>2016-10-04T13:26:36Z</time>
      </trkpt>
      <trkpt lat="43.27158" lon="5.50991">
        <ele>206.96</ele>
        <time>2016-10-04T13:26:44Z</time>
      </trkpt>
      <trkpt lat="43.27162" lon="5.50992">
        <ele>205</ele>
        <time>2016-10-04T13:26:55Z</time>
      </trkpt>
      <trkpt lat="43.27164" lon="5.50996">
        <ele>204.29</ele>
        <time>2016-10-04T13:27:04Z</time>
      </trkpt>
      <trkpt lat="43.27163" lon="5.50996">
        <ele>203.85</ele>
        <time>2016-10-04T13:27:18Z</time>
      </trkpt>
      <trkpt lat="43.27166" lon="5.50999">
        <ele>203.16</ele>
        <time>2016-10-04T13:27:31Z</time>
      </trkpt>
      <trkpt lat="43.27169" lon="5.51">
        <ele>202.42</ele>
        <time>2016-10-04T13:27:40Z</time>
      </trkpt>
      <trkpt lat="43.27174" lon="5.51007">
        <ele>200.94</ele>
        <time>2016-10-04T13:27:50Z</time>
      </trkpt>
      <trkpt lat="43.2718" lon="5.51016">
        <ele>197.95</ele>
        <time>2016-10-04T13:28:00Z</time>
      </trkpt>
      <trkpt lat="43.27189" lon="5.51027">
        <ele>194.81</ele>
        <time>2016-10-04T13:28:09Z</time>
      </trkpt>
      <trkpt lat="43.27199" lon="5.51034">
        <ele>191.63</ele>
        <time>2016-10-04T13:28:17Z</time>
      </trkpt>
      <trkpt lat="43.27203" lon="5.5104">
        <ele>189.82</ele>
        <time>2016-10-04T13:28:21Z</time>
      </trkpt>
      <trkpt lat="43.27206" lon="5.5105">
        <ele>186.4</ele>
        <time>2016-10-04T13:28:30Z</time>
      </trkpt>
      <trkpt lat="43.27209" lon="5.51048">
        <ele>185.31</ele>
        <time>2016-10-04T13:28:49Z</time>
      </trkpt>
      <trkpt lat="43.27214" lon="5.5105">
        <ele>185.06</ele>
        <time>2016-10-04T13:29:06Z</time>
      </trkpt>
      <trkpt lat="43.27217" lon="5.51058">
        <ele>183.67</ele>
        <time>2016-10-04T13:29:14Z</time>
      </trkpt>
      <trkpt lat="43.27222" lon="5.51065">
        <ele>181.98</ele>
        <time>2016-10-04T13:29:21Z</time>
      </trkpt>
      <trkpt lat="43.27227" lon="5.51073">
        <ele>179.71</ele>
        <time>2016-10-04T13:29:30Z</time>
      </trkpt>
      <trkpt lat="43.27233" lon="5.51079">
        <ele>177.78</ele>
        <time>2016-10-04T13:29:39Z</time>
      </trkpt>
      <trkpt lat="43.27243" lon="5.51085">
        <ele>175.79</ele>
        <time>2016-10-04T13:29:50Z</time>
      </trkpt>
      <trkpt lat="43.27244" lon="5.51087">
        <ele>175.53</ele>
        <time>2016-10-04T13:29:52Z</time>
      </trkpt>
      <trkpt lat="43.27253" lon="5.51099">
        <ele>173.84</ele>
        <time>2016-10-04T13:30:03Z</time>
      </trkpt>
      <trkpt lat="43.27262" lon="5.51111">
        <ele>172.36</ele>
        <time>2016-10-04T13:30:13Z</time>
      </trkpt>
      <trkpt lat="43.2727" lon="5.51119">
        <ele>171.4</ele>
        <time>2016-10-04T13:30:21Z</time>
      </trkpt>
      <trkpt lat="43.27277" lon="5.51131">
        <ele>170.59</ele>
        <time>2016-10-04T13:30:31Z</time>
      </trkpt>
      <trkpt lat="43.27278" lon="5.51132">
        <ele>170.52</ele>
        <time>2016-10-04T13:30:32Z</time>
      </trkpt>
      <trkpt lat="43.27283" lon="5.51136">
        <ele>170.29</ele>
        <time>2016-10-04T13:30:36Z</time>
      </trkpt>
      <trkpt lat="43.27288" lon="5.51146">
        <ele>169.98</ele>
        <time>2016-10-04T13:30:44Z</time>
      </trkpt>
      <trkpt lat="43.27292" lon="5.51153">
        <ele>169.92</ele>
        <time>2016-10-04T13:30:53Z</time>
      </trkpt>
      <trkpt lat="43.27295" lon="5.5115">
        <ele>169.99</ele>
        <time>2016-10-04T13:30:59Z</time>
      </trkpt>
      <trkpt lat="43.27301" lon="5.51141">
        <ele>169.91</ele>
        <time>2016-10-04T13:31:08Z</time>
      </trkpt>
      <trkpt lat="43.27305" lon="5.51139">
        <ele>169.79</ele>
        <time>2016-10-04T13:31:16Z</time>
      </trkpt>
      <trkpt lat="43.27306" lon="5.51135">
        <ele>169.82</ele>
        <time>2016-10-04T13:31:23Z</time>
      </trkpt>
      <trkpt lat="43.27303" lon="5.51127">
        <ele>169.58</ele>
        <time>2016-10-04T13:31:31Z</time>
      </trkpt>
      <trkpt lat="43.27305" lon="5.51113">
        <ele>168.94</ele>
        <time>2016-10-04T13:31:41Z</time>
      </trkpt>
      <trkpt lat="43.27309" lon="5.51104">
        <ele>168.29</ele>
        <time>2016-10-04T13:31:49Z</time>
      </trkpt>
      <trkpt lat="43.27311" lon="5.51099">
        <ele>167.92</ele>
        <time>2016-10-04T13:31:54Z</time>
      </trkpt>
      <trkpt lat="43.27313" lon="5.51094">
        <ele>167.48</ele>
        <time>2016-10-04T13:31:58Z</time>
      </trkpt>
      <trkpt lat="43.2732" lon="5.5108">
        <ele>166.44</ele>
        <time>2016-10-04T13:32:08Z</time>
      </trkpt>
      <trkpt lat="43.27322" lon="5.5107">
        <ele>165.36</ele>
        <time>2016-10-04T13:32:17Z</time>
      </trkpt>
      <trkpt lat="43.27323" lon="5.51068">
        <ele>165.07</ele>
        <time>2016-10-04T13:32:20Z</time>
      </trkpt>
      <trkpt lat="43.27328" lon="5.5105">
        <ele>163.79</ele>
        <time>2016-10-04T13:32:31Z</time>
      </trkpt>
      <trkpt lat="43.27334" lon="5.51036">
        <ele>161.78</ele>
        <time>2016-10-04T13:32:41Z</time>
      </trkpt>
      <trkpt lat="43.2734" lon="5.51022">
        <ele>159.9</ele>
        <time>2016-10-04T13:32:52Z</time>
      </trkpt>
      <trkpt lat="43.27343" lon="5.5101">
        <ele>158.24</ele>
        <time>2016-10-04T13:33:01Z</time>
      </trkpt>
      <trkpt lat="43.27344" lon="5.50994">
        <ele>157.01</ele>
        <time>2016-10-04T13:33:11Z</time>
      </trkpt>
      <trkpt lat="43.27349" lon="5.5098">
        <ele>155.49</ele>
        <time>2016-10-04T13:33:21Z</time>
      </trkpt>
      <trkpt lat="43.27351" lon="5.50975">
        <ele>154.18</ele>
        <time>2016-10-04T13:33:29Z</time>
      </trkpt>
      <trkpt lat="43.27352" lon="5.50972">
        <ele>153.67</ele>
        <time>2016-10-04T13:33:37Z</time>
      </trkpt>
      <trkpt lat="43.2736" lon="5.50958">
        <ele>151.61</ele>
        <time>2016-10-04T13:33:50Z</time>
      </trkpt>
      <trkpt lat="43.27364" lon="5.5095">
        <ele>149.69</ele>
        <time>2016-10-04T13:34:00Z</time>
      </trkpt>
      <trkpt lat="43.27364" lon="5.50949">
        <ele>149.53</ele>
        <time>2016-10-04T13:34:01Z</time>
      </trkpt>
      <trkpt lat="43.27372" lon="5.50935">
        <ele>147.73</ele>
        <time>2016-10-04T13:34:12Z</time>
      </trkpt>
      <trkpt lat="43.27373" lon="5.50934">
        <ele>147.53</ele>
        <time>2016-10-04T13:34:13Z</time>
      </trkpt>
      <trkpt lat="43.27376" lon="5.50924">
        <ele>146.34</ele>
        <time>2016-10-04T13:34:21Z</time>
      </trkpt>
      <trkpt lat="43.27381" lon="5.50914">
        <ele>145.15</ele>
        <time>2016-10-04T13:34:29Z</time>
      </trkpt>
      <trkpt lat="43.27382" lon="5.50912">
        <ele>144.98</ele>
        <time>2016-10-04T13:34:30Z</time>
      </trkpt>
      <trkpt lat="43.27385" lon="5.50907">
        <ele>144.31</ele>
        <time>2016-10-04T13:34:34Z</time>
      </trkpt>
      <trkpt lat="43.27387" lon="5.50901">
        <ele>143.33</ele>
        <time>2016-10-04T13:34:39Z</time>
      </trkpt>
      <trkpt lat="43.27393" lon="5.5089">
        <ele>142.49</ele>
        <time>2016-10-04T13:34:48Z</time>
      </trkpt>
      <trkpt lat="43.27393" lon="5.50889">
        <ele>142.38</ele>
        <time>2016-10-04T13:34:49Z</time>
      </trkpt>
      <trkpt lat="43.27399" lon="5.50878">
        <ele>141.4</ele>
        <time>2016-10-04T13:34:57Z</time>
      </trkpt>
      <trkpt lat="43.27403" lon="5.50867">
        <ele>140.48</ele>
        <time>2016-10-04T13:35:05Z</time>
      </trkpt>
      <trkpt lat="43.27408" lon="5.50861">
        <ele>139.4</ele>
        <time>2016-10-04T13:35:11Z</time>
      </trkpt>
      <trkpt lat="43.27414" lon="5.50851">
        <ele>138.04</ele>
        <time>2016-10-04T13:35:21Z</time>
      </trkpt>
      <trkpt lat="43.27419" lon="5.5084">
        <ele>137</ele>
        <time>2016-10-04T13:35:29Z</time>
      </trkpt>
      <trkpt lat="43.27425" lon="5.50831">
        <ele>136.09</ele>
        <time>2016-10-04T13:35:37Z</time>
      </trkpt>
      <trkpt lat="43.27427" lon="5.50821">
        <ele>135.29</ele>
        <time>2016-10-04T13:35:44Z</time>
      </trkpt>
      <trkpt lat="43.27431" lon="5.50817">
        <ele>134.72</ele>
        <time>2016-10-04T13:35:53Z</time>
      </trkpt>
      <trkpt lat="43.27434" lon="5.50812">
        <ele>134.63</ele>
        <time>2016-10-04T13:35:57Z</time>
      </trkpt>
      <trkpt lat="43.27439" lon="5.50801">
        <ele>134.09</ele>
        <time>2016-10-04T13:36:05Z</time>
      </trkpt>
      <trkpt lat="43.27444" lon="5.50789">
        <ele>132.94</ele>
        <time>2016-10-04T13:36:14Z</time>
      </trkpt>
      <trkpt lat="43.27444" lon="5.50788">
        <ele>132.84</ele>
        <time>2016-10-04T13:36:15Z</time>
      </trkpt>
      <trkpt lat="43.27448" lon="5.50777">
        <ele>131.38</ele>
        <time>2016-10-04T13:36:23Z</time>
      </trkpt>
      <trkpt lat="43.27453" lon="5.50765">
        <ele>130.2</ele>
        <time>2016-10-04T13:36:32Z</time>
      </trkpt>
      <trkpt lat="43.27455" lon="5.50763">
        <ele>130.02</ele>
        <time>2016-10-04T13:36:34Z</time>
      </trkpt>
      <trkpt lat="43.27457" lon="5.50756">
        <ele>129.66</ele>
        <time>2016-10-04T13:36:38Z</time>
      </trkpt>
      <trkpt lat="43.27459" lon="5.50749">
        <ele>128.68</ele>
        <time>2016-10-04T13:36:46Z</time>
      </trkpt>
      <trkpt lat="43.27463" lon="5.50742">
        <ele>128.04</ele>
        <time>2016-10-04T13:36:55Z</time>
      </trkpt>
      <trkpt lat="43.27471" lon="5.50728">
        <ele>127.27</ele>
        <time>2016-10-04T13:37:05Z</time>
      </trkpt>
      <trkpt lat="43.27475" lon="5.50721">
        <ele>126.58</ele>
        <time>2016-10-04T13:37:12Z</time>
      </trkpt>
      <trkpt lat="43.27475" lon="5.50714">
        <ele>125.97</ele>
        <time>2016-10-04T13:37:19Z</time>
      </trkpt>
      <trkpt lat="43.27478" lon="5.50709">
        <ele>125.68</ele>
        <time>2016-10-04T13:37:23Z</time>
      </trkpt>
      <trkpt lat="43.27484" lon="5.50701">
        <ele>125.32</ele>
        <time>2016-10-04T13:37:29Z</time>
      </trkpt>
      <trkpt lat="43.27488" lon="5.50693">
        <ele>124.49</ele>
        <time>2016-10-04T13:37:37Z</time>
      </trkpt>
      <trkpt lat="43.2749" lon="5.50688">
        <ele>124.38</ele>
        <time>2016-10-04T13:37:40Z</time>
      </trkpt>
      <trkpt lat="43.27493" lon="5.50681">
        <ele>124.12</ele>
        <time>2016-10-04T13:37:44Z</time>
      </trkpt>
      <trkpt lat="43.27495" lon="5.50674">
        <ele>123.65</ele>
        <time>2016-10-04T13:37:48Z</time>
      </trkpt>
      <trkpt lat="43.27504" lon="5.50664">
        <ele>122.82</ele>
        <time>2016-10-04T13:37:57Z</time>
      </trkpt>
      <trkpt lat="43.27506" lon="5.50656">
        <ele>122.32</ele>
        <time>2016-10-04T13:38:04Z</time>
      </trkpt>
      <trkpt lat="43.27507" lon="5.50655">
        <ele>122.24</ele>
        <time>2016-10-04T13:38:05Z</time>
      </trkpt>
      <trkpt lat="43.2751" lon="5.50651">
        <ele>122</ele>
        <time>2016-10-04T13:38:08Z</time>
      </trkpt>
      <trkpt lat="43.27518" lon="5.50643">
        <ele>121.31</ele>
        <time>2016-10-04T13:38:16Z</time>
      </trkpt>
      <trkpt lat="43.2752" lon="5.50641">
        <ele>121.13</ele>
        <time>2016-10-04T13:38:18Z</time>
      </trkpt>
      <trkpt lat="43.27524" lon="5.50633">
        <ele>120.48</ele>
        <time>2016-10-04T13:38:27Z</time>
      </trkpt>
      <trkpt lat="43.27525" lon="5.50632">
        <ele>120.44</ele>
        <time>2016-10-04T13:38:28Z</time>
      </trkpt>
      <trkpt lat="43.27529" lon="5.50629">
        <ele>120.24</ele>
        <time>2016-10-04T13:38:33Z</time>
      </trkpt>
      <trkpt lat="43.27538" lon="5.50621">
        <ele>119.67</ele>
        <time>2016-10-04T13:38:42Z</time>
      </trkpt>
      <trkpt lat="43.27543" lon="5.50616">
        <ele>119.3</ele>
        <time>2016-10-04T13:38:47Z</time>
      </trkpt>
      <trkpt lat="43.27548" lon="5.50608">
        <ele>118.22</ele>
        <time>2016-10-04T13:38:55Z</time>
      </trkpt>
      <trkpt lat="43.27549" lon="5.50607">
        <ele>118.1</ele>
        <time>2016-10-04T13:38:56Z</time>
      </trkpt>
      <trkpt lat="43.27555" lon="5.50602">
        <ele>117.58</ele>
        <time>2016-10-04T13:39:02Z</time>
      </trkpt>
      <trkpt lat="43.27565" lon="5.506">
        <ele>116.53</ele>
        <time>2016-10-04T13:39:10Z</time>
      </trkpt>
      <trkpt lat="43.27568" lon="5.506">
        <ele>116.12</ele>
        <time>2016-10-04T13:39:14Z</time>
      </trkpt>
      <trkpt lat="43.27571" lon="5.50601">
        <ele>115.99</ele>
        <time>2016-10-04T13:39:16Z</time>
      </trkpt>
      <trkpt lat="43.2758" lon="5.50604">
        <ele>115.39</ele>
        <time>2016-10-04T13:39:23Z</time>
      </trkpt>
      <trkpt lat="43.27586" lon="5.50605">
        <ele>114.93</ele>
        <time>2016-10-04T13:39:28Z</time>
      </trkpt>
      <trkpt lat="43.27596" lon="5.50605">
        <ele>114.04</ele>
        <time>2016-10-04T13:39:37Z</time>
      </trkpt>
      <trkpt lat="43.27606" lon="5.50603">
        <ele>113.58</ele>
        <time>2016-10-04T13:39:45Z</time>
      </trkpt>
      <trkpt lat="43.27614" lon="5.50596">
        <ele>112.8</ele>
        <time>2016-10-04T13:39:53Z</time>
      </trkpt>
      <trkpt lat="43.27622" lon="5.5059">
        <ele>111.55</ele>
        <time>2016-10-04T13:40:02Z</time>
      </trkpt>
      <trkpt lat="43.2763" lon="5.50586">
        <ele>110.79</ele>
        <time>2016-10-04T13:40:09Z</time>
      </trkpt>
      <trkpt lat="43.27636" lon="5.50578">
        <ele>109.95</ele>
        <time>2016-10-04T13:40:17Z</time>
      </trkpt>
      <trkpt lat="43.27642" lon="5.50573">
        <ele>109.36</ele>
        <time>2016-10-04T13:40:24Z</time>
      </trkpt>
      <trkpt lat="43.27647" lon="5.50569">
        <ele>108.64</ele>
        <time>2016-10-04T13:40:32Z</time>
      </trkpt>
      <trkpt lat="43.2765" lon="5.50567">
        <ele>108.51</ele>
        <time>2016-10-04T13:40:35Z</time>
      </trkpt>
      <trkpt lat="43.27652" lon="5.50563">
        <ele>108.15</ele>
        <time>2016-10-04T13:40:42Z</time>
      </trkpt>
      <trkpt lat="43.27653" lon="5.50562">
        <ele>107.45</ele>
        <time>2016-10-04T13:40:55Z</time>
      </trkpt>
      <trkpt lat="43.27663" lon="5.50555">
        <ele>106.82</ele>
        <time>2016-10-04T13:41:05Z</time>
      </trkpt>
      <trkpt lat="43.27671" lon="5.50553">
        <ele>105.8</ele>
        <time>2016-10-04T13:41:12Z</time>
      </trkpt>
      <trkpt lat="43.27677" lon="5.50555">
        <ele>105.25</ele>
        <time>2016-10-04T13:41:20Z</time>
      </trkpt>
      <trkpt lat="43.27678" lon="5.50556">
        <ele>105.14</ele>
        <time>2016-10-04T13:41:35Z</time>
      </trkpt>
      <trkpt lat="43.27684" lon="5.50553">
        <ele>105.28</ele>
        <time>2016-10-04T13:41:51Z</time>
      </trkpt>
      <trkpt lat="43.27689" lon="5.5056">
        <ele>106.62</ele>
        <time>2016-10-04T13:42:01Z</time>
      </trkpt>
      <trkpt lat="43.27695" lon="5.50564">
        <ele>108.65</ele>
        <time>2016-10-04T13:42:12Z</time>
      </trkpt>
      <trkpt lat="43.27699" lon="5.50565">
        <ele>109.67</ele>
        <time>2016-10-04T13:42:24Z</time>
      </trkpt>
      <trkpt lat="43.27706" lon="5.50567">
        <ele>109.59</ele>
        <time>2016-10-04T13:42:38Z</time>
      </trkpt>
      <trkpt lat="43.27713" lon="5.50577">
        <ele>110.46</ele>
        <time>2016-10-04T13:42:49Z</time>
      </trkpt>
      <trkpt lat="43.27715" lon="5.5058">
        <ele>110.9</ele>
        <time>2016-10-04T13:42:55Z</time>
      </trkpt>
      <trkpt lat="43.2772" lon="5.50594">
        <ele>111.27</ele>
        <time>2016-10-04T13:43:05Z</time>
      </trkpt>
      <trkpt lat="43.27722" lon="5.50599">
        <ele>111.54</ele>
        <time>2016-10-04T13:43:10Z</time>
      </trkpt>
      <trkpt lat="43.27724" lon="5.50606">
        <ele>111.68</ele>
        <time>2016-10-04T13:43:14Z</time>
      </trkpt>
      <trkpt lat="43.27731" lon="5.50616">
        <ele>111.68</ele>
        <time>2016-10-04T13:43:23Z</time>
      </trkpt>
      <trkpt lat="43.27734" lon="5.50622">
        <ele>111.43</ele>
        <time>2016-10-04T13:43:29Z</time>
      </trkpt>
      <trkpt lat="43.27745" lon="5.50625">
        <ele>110.55</ele>
        <time>2016-10-04T13:43:38Z</time>
      </trkpt>
      <trkpt lat="43.27748" lon="5.50624">
        <ele>109.85</ele>
        <time>2016-10-04T13:43:45Z</time>
      </trkpt>
      <trkpt lat="43.27749" lon="5.50626">
        <ele>109.68</ele>
        <time>2016-10-04T13:43:47Z</time>
      </trkpt>
      <trkpt lat="43.2775" lon="5.5063">
        <ele>109.6</ele>
        <time>2016-10-04T13:43:50Z</time>
      </trkpt>
      <trkpt lat="43.27751" lon="5.50643">
        <ele>109.57</ele>
        <time>2016-10-04T13:43:58Z</time>
      </trkpt>
      <trkpt lat="43.27754" lon="5.50649">
        <ele>109.29</ele>
        <time>2016-10-04T13:44:07Z</time>
      </trkpt>
      <trkpt lat="43.27755" lon="5.50654">
        <ele>109.25</ele>
        <time>2016-10-04T13:44:10Z</time>
      </trkpt>
      <trkpt lat="43.27757" lon="5.50671">
        <ele>108.73</ele>
        <time>2016-10-04T13:44:21Z</time>
      </trkpt>
      <trkpt lat="43.27762" lon="5.5068">
        <ele>108.59</ele>
        <time>2016-10-04T13:44:29Z</time>
      </trkpt>
      <trkpt lat="43.27768" lon="5.50686">
        <ele>107.81</ele>
        <time>2016-10-04T13:44:37Z</time>
      </trkpt>
      <trkpt lat="43.27772" lon="5.50696">
        <ele>107.13</ele>
        <time>2016-10-04T13:44:46Z</time>
      </trkpt>
      <trkpt lat="43.27777" lon="5.50693">
        <ele>106.66</ele>
        <time>2016-10-04T13:44:52Z</time>
      </trkpt>
      <trkpt lat="43.27785" lon="5.50694">
        <ele>105.62</ele>
        <time>2016-10-04T13:45:01Z</time>
      </trkpt>
      <trkpt lat="43.27788" lon="5.50695">
        <ele>104.55</ele>
        <time>2016-10-04T13:45:14Z</time>
      </trkpt>
      <trkpt lat="43.27794" lon="5.50699">
        <ele>103.62</ele>
        <time>2016-10-04T13:45:24Z</time>
      </trkpt>
      <trkpt lat="43.27802" lon="5.50701">
        <ele>101.76</ele>
        <time>2016-10-04T13:45:32Z</time>
      </trkpt>
      <trkpt lat="43.2781" lon="5.50703">
        <ele>99.67</ele>
        <time>2016-10-04T13:45:40Z</time>
      </trkpt>
      <trkpt lat="43.27811" lon="5.50704">
        <ele>99.48</ele>
        <time>2016-10-04T13:45:41Z</time>
      </trkpt>
      <trkpt lat="43.27812" lon="5.50706">
        <ele>99.11</ele>
        <time>2016-10-04T13:45:43Z</time>
      </trkpt>
      <trkpt lat="43.27814" lon="5.50709">
        <ele>98.69</ele>
        <time>2016-10-04T13:45:45Z</time>
      </trkpt>
      <trkpt lat="43.27819" lon="5.50712">
        <ele>97.71</ele>
        <time>2016-10-04T13:45:49Z</time>
      </trkpt>
      <trkpt lat="43.27828" lon="5.50721">
        <ele>96.45</ele>
        <time>2016-10-04T13:45:58Z</time>
      </trkpt>
      <trkpt lat="43.27834" lon="5.5073">
        <ele>95.42</ele>
        <time>2016-10-04T13:46:06Z</time>
      </trkpt>
      <trkpt lat="43.27839" lon="5.50737">
        <ele>94.65</ele>
        <time>2016-10-04T13:46:14Z</time>
      </trkpt>
      <trkpt lat="43.27843" lon="5.50744">
        <ele>93.96</ele>
        <time>2016-10-04T13:46:23Z</time>
      </trkpt>
      <trkpt lat="43.27849" lon="5.50757">
        <ele>93.14</ele>
        <time>2016-10-04T13:46:34Z</time>
      </trkpt>
      <trkpt lat="43.27857" lon="5.50763">
        <ele>92.34</ele>
        <time>2016-10-04T13:46:42Z</time>
      </trkpt>
      <trkpt lat="43.27866" lon="5.50767">
        <ele>91.77</ele>
        <time>2016-10-04T13:46:52Z</time>
      </trkpt>
      <trkpt lat="43.27869" lon="5.50768">
        <ele>91.82</ele>
        <time>2016-10-04T13:47:02Z</time>
      </trkpt>
      <trkpt lat="43.27869" lon="5.50769">
        <ele>91.53</ele>
        <time>2016-10-04T13:47:12Z</time>
      </trkpt>
      <trkpt lat="43.27869" lon="5.50768">
        <ele>91.25</ele>
        <time>2016-10-04T13:47:26Z</time>
      </trkpt>
      <trkpt lat="43.27868" lon="5.50767">
        <ele>91.49</ele>
        <time>2016-10-04T13:47:34Z</time>
      </trkpt>
      <trkpt lat="43.2787" lon="5.50767">
        <ele>91.45</ele>
        <time>2016-10-04T13:47:42Z</time>
      </trkpt>
      <trkpt lat="43.27869" lon="5.50767">
        <ele>91.21</ele>
        <time>2016-10-04T13:47:52Z</time>
      </trkpt>
      <trkpt lat="43.27869" lon="5.50768">
        <ele>91.67</ele>
        <time>2016-10-04T13:48:06Z</time>
      </trkpt>
    </trkseg>
  </trk>
</gpx>